[[{"header":{"parameterUnit":"m.s-1","parameterCategory":1,"la1":31.0,"la2":29.5877,"lo1":-88.7671,"lo2":-86.6584,"dy":0.0162,"dx":0.0185,"nx":115,"ny":88,"refTime":"2026-04-02T12:00:00:Z","depth":0,"parameterNumber":2,"parameterNumberName":"U-component_of_WINDS"},"data":[0.0,0.0,0.0,0.0,0.0,0.0,0.0,0.0,0.0,0.0,0.0,0.0,0.0,0.0,0.0,0.0,0.0,0.0,0.0,0.0,0.0,0.0,0.0,0.0,0.0,0.0,0.0,0.0,0.0,0.0,0.0,0.0,0.0,0.0,0.0,0.0,0.0,0.0,0.0,0.0,0.0,0.0,0.0,0.0,0.0,0.0,0.0,0.0,0.0,0.0,0.0,0.0,0.0,0.0,0.0,0.0,0.0,0.0,0.0,0.0,0.0,0.0,0.0,0.0,0.0,0.0,0.0,0.0,0.0,0.0,0.0,0.0,0.0,0.0,0.0,0.0,0.0,0.0,0.0,0.0,0.0,0.0,0.0,0.0,0.0,0.0,0.0,0.0,0.0,0.0,0.0,0.0,0.0,0.0,0.0,0.0,0.0,0.0,0.0,0.0,0.0,0.0,0.0,0.0,0.0,0.0,0.0,0.0,0.0,0.0,0.0,0.0,0.0,0.0,0.0,0.0,0.0,0.0,0.0,0.0,0.0,0.0,0.0,0.0,0.0,0.0,0.0,0.0,0.0,0.0,0.0,0.0,0.0,0.0,0.0,0.0,0.0,0.0,0.0,0.0,0.0,0.0,0.0,0.0,0.0,0.0,0.0,0.0,0.0,0.0,0.0,0.0,0.0,0.0,0.0,0.0,0.0,0.0,0.0,0.0,0.0,0.0,0.0,0.0,0.0,0.0,0.0,0.0,0.0,0.0,0.0,0.0,0.0,0.0,0.0,0.0,0.0,0.0,0.0,0.0,0.0,0.0,0.0,0.0,0.0,0.0,0.0,0.0,0.0,0.0,0.0,0.0,0.0,0.0,0.0,0.0,0.0,0.0,0.0,0.0,0.0,0.0,0.0,0.0,0.0,0.0,0.0,0.0,0.0,0.0,0.0,0.0,0.0,0.0,0.0,0.0,0.0,0.0,0.0,0.0,0.0,0.0,0.0,0.0,0.0,0.0,0.0,0.0,0.0,0.0,0.0,0.0,0.0,0.0,0.0,0.0,0.0,0.0,0.0,0.0,0.0,0.0,0.0,0.0,0.0,0.0,0.0,0.0,0.0,0.0,0.0,0.0,0.0,0.0,0.0,0.0,0.0,0.0,0.0,0.0,0.0,0.0,0.0,0.0,0.0,0.0,0.0,0.0,0.0,0.0,0.0,0.0,0.0,0.0,0.0,0.0,0.0,0.0,0.0,0.0,0.0,0.0,0.0,0.0,0.0,0.0,0.0,0.0,0.0,0.0,0.0,0.0,0.0,0.0,0.0,0.0,0.0,0.0,0.0,0.0,0.0,0.0,0.0,0.0,0.0,0.0,0.0,0.0,0.0,0.0,0.0,0.0,0.0,0.0,0.0,0.0,0.0,0.0,0.0,0.0,0.0,0.0,0.0,0.0,0.0,0.0,0.0,0.0,0.0,0.0,0.0,0.0,0.0,0.0,0.0,0.0,0.0,0.0,0.0,0.0,0.0,0.0,0.0,0.0,0.0,0.0,0.0,0.0,0.0,0.0,0.0,0.0,0.0,0.0,0.0,0.0,0.0,0.0,0.0,0.0,0.0,0.0,0.0,0.0,0.0,0.0,0.0,0.0,0.0,0.0,0.0,0.0,0.0,0.0,0.0,0.0,0.0,0.0,0.0,0.0,0.0,0.0,0.0,0.0,0.0,0.0,0.0,0.0,0.0,0.0,0.0,0.0,0.0,0.0,0.0,0.0,0.0,0.0,0.0,0.0,0.0,0.0,0.0,0.0,0.0,0.0,0.0,0.0,0.0,0.0,0.0,0.0,0.0,0.0,0.0,0.0,0.0,0.0,0.0,0.0,0.0,0.0,0.0,0.0,0.0,0.0,0.0,0.0,0.0,0.0,0.0,0.0,0.0,0.0,0.0,0.0,0.0,0.0,0.0,0.0,0.0,0.0,0.0,0.0,0.0,0.0,0.0,0.0,0.0,0.0,0.0,0.0,0.0,0.0,0.0,0.0,0.0,0.0,0.0,0.0,0.0,0.0,0.0,0.0,0.0,0.0,0.0,0.0,0.0,0.0,0.0,0.0,0.0,0.0,0.0,0.0,0.0,0.0,0.0,0.0,0.0,0.0,0.0,0.0,0.0,0.0,0.0,0.0,0.0,0.0,0.0,0.0,0.0,0.0,0.0,0.0,0.0,0.0,0.0,0.0,0.0,0.0,0.0,0.0,0.0,0.0,0.0,0.0,0.0,0.0,0.0,0.0,0.0,0.0,0.0,0.0,0.0,0.0,0.0,0.0,0.0,0.0,0.0,0.0,0.0,0.0,0.0,0.0,0.0,0.0,0.0,0.0,0.0,0.0,0.0,0.0,0.0,0.0,0.0,0.0,0.0,0.0,0.0,0.0,0.0,0.0,0.0,0.0,0.0,0.0,0.0,0.0,0.0,0.0,0.0,0.0,0.0,0.0,0.0,0.0,0.0,0.0,0.0,0.0,0.0,0.0,0.0,0.0,0.0,0.0,0.0,0.0,0.0,0.0,0.0,0.0,0.0,0.0,0.0,0.0,0.0,0.0,0.0,0.0,0.0,0.0,0.0,0.0,0.0,0.0,0.0,0.0,0.0,0.0,0.0,0.0,0.0,0.0,0.0,0.0,0.0,0.0,0.0,0.0,0.0,0.0,0.0,0.0,0.0,0.0,0.0,0.0,0.0,0.0,0.0,0.0,0.0,0.0,0.0,0.0,0.0,0.0,0.0,0.0,0.0,0.0,0.0,0.0,0.0,0.0,0.0,0.0,0.0,0.0,0.0,0.0,0.0,0.0,0.0,0.0,0.0,0.0,0.0,0.0,0.0,0.0,0.0,0.0,0.0,0.0,0.0,0.0,0.0,0.0,0.0,0.0,0.0,0.0,0.0,0.0,0.0,0.0,0.0,0.0,0.0,0.0,0.0,0.0,0.0,0.0,0.0,0.0,0.0,0.0,0.0,0.0,0.0,0.0,0.0,0.0,0.0,0.0,0.0,0.0,0.0,0.0,0.0,0.0,0.0,0.0,0.0,0.0,0.0,0.0,0.0,0.0,0.0,0.0,0.0,0.0,0.0,0.0,0.0,0.0,0.0,0.0,0.0,0.0,0.0,0.0,0.0,0.0,0.0,0.0,0.0,0.0,0.0,0.0,0.0,0.0,0.0,0.0,0.0,0.0,0.0,0.0,0.0,0.0,0.0,0.0,0.0,0.0,0.0,0.0,0.0,0.0,0.0,0.0,0.0,0.0,0.0,0.0,0.0,0.0,0.0,0.0,0.0,0.0,0.0,0.0,0.0,0.0,0.0,0.0,0.0,0.0,0.0,0.0,0.0,0.0,0.0,0.0,0.0,0.0,0.0,0.0,0.0,0.0,0.0,0.0,0.0,0.0,0.0,0.0,0.0,0.0,0.0,0.0,0.0,0.0,0.0,0.0,0.0,0.0,0.0,0.0,0.0,0.0,0.0,0.0,0.0,0.0,0.0,0.0,0.0,0.0,0.0,0.0,0.0,0.0,0.0,0.0,0.0,0.0,0.0,0.0,0.0,0.0,0.0,0.0,0.0,0.0,0.0,0.0,0.0,0.0,0.0,0.0,0.0,0.0,0.0,0.0,0.0,0.0,0.0,0.0,0.0,0.0,0.0,0.0,0.0,0.0,0.0,0.0,0.0,0.0,0.0,0.0,0.0,0.0,0.0,0.0,0.0,0.0,0.0,0.0,0.0,0.0,0.0,0.0,0.0,0.0,0.0,0.0,0.0,0.0,0.0,0.0,0.0,0.0,0.0,0.0,0.0,0.0,0.0,0.0,0.0,0.0,0.0,0.0,0.0,0.0,0.0,0.0,0.0,0.0,0.0,0.0,0.0,0.0,0.0,0.0,0.0,0.0,0.0,0.0,0.0,0.0,0.0,0.0,0.0,0.0,0.0,0.0,0.0,0.0,0.0,0.0,0.0,0.0,0.0,0.0,0.0,0.0,0.0,0.0,0.0,0.0,0.0,0.0,0.0,0.0,0.0,0.0,0.0,0.0,0.0,0.0,0.0,0.0,0.0,0.0,0.0,0.0,0.0,0.0,0.0,0.0,0.0,0.0,0.0,0.0,0.0,0.0,0.0,0.0,0.0,0.0,0.0,0.0,0.0,0.0,0.0,0.0,0.0,0.0,0.0,0.0,0.0,0.0,0.0,0.0,0.0,0.0,0.0,0.0,0.0,0.0,0.0,0.0,0.0,0.0,0.0,0.0,0.0,0.0,-4.7617,0.0,0.0,0.0,0.0,0.0,0.0,0.0,0.0,0.0,0.0,0.0,0.0,0.0,0.0,0.0,0.0,0.0,0.0,0.0,0.0,0.0,0.0,0.0,0.0,0.0,0.0,0.0,0.0,0.0,0.0,0.0,0.0,0.0,0.0,0.0,0.0,0.0,0.0,0.0,0.0,0.0,0.0,0.0,0.0,0.0,0.0,0.0,0.0,0.0,0.0,0.0,0.0,0.0,0.0,0.0,0.0,0.0,0.0,0.0,0.0,0.0,0.0,0.0,0.0,0.0,0.0,0.0,0.0,0.0,0.0,0.0,0.0,0.0,0.0,0.0,0.0,0.0,0.0,0.0,0.0,0.0,0.0,0.0,0.0,0.0,0.0,0.0,0.0,0.0,0.0,0.0,0.0,0.0,0.0,0.0,0.0,0.0,0.0,0.0,0.0,0.0,0.0,0.0,0.0,0.0,0.0,0.0,0.0,0.0,0.0,-5.0153,-5.0801,-4.957,-4.8711,-4.8281,0.0,0.0,0.0,0.0,0.0,0.0,0.0,0.0,0.0,0.0,0.0,0.0,0.0,0.0,0.0,0.0,0.0,0.0,0.0,0.0,0.0,0.0,0.0,0.0,0.0,0.0,0.0,0.0,0.0,0.0,0.0,0.0,0.0,0.0,0.0,0.0,0.0,0.0,0.0,0.0,0.0,0.0,0.0,0.0,0.0,0.0,0.0,0.0,0.0,0.0,0.0,0.0,0.0,0.0,0.0,0.0,0.0,0.0,0.0,0.0,0.0,0.0,0.0,0.0,0.0,0.0,0.0,0.0,0.0,0.0,0.0,0.0,0.0,0.0,0.0,0.0,0.0,0.0,0.0,0.0,0.0,0.0,0.0,0.0,0.0,0.0,0.0,0.0,0.0,0.0,0.0,0.0,0.0,0.0,0.0,0.0,0.0,0.0,0.0,0.0,0.0,0.0,0.0,0.0,0.0,0.0,0.0,0.0,0.0,0.0,0.0,0.0,-5.0351,-4.9159,-4.8526,0.0,0.0,0.0,0.0,0.0,0.0,0.0,0.0,0.0,0.0,0.0,0.0,0.0,0.0,0.0,0.0,0.0,0.0,0.0,0.0,0.0,0.0,0.0,0.0,0.0,0.0,0.0,0.0,0.0,0.0,0.0,0.0,0.0,0.0,0.0,0.0,0.0,0.0,0.0,0.0,0.0,0.0,0.0,0.0,0.0,0.0,0.0,0.0,0.0,0.0,0.0,0.0,0.0,0.0,0.0,0.0,0.0,0.0,0.0,0.0,0.0,0.0,0.0,0.0,0.0,0.0,0.0,0.0,0.0,0.0,0.0,0.0,0.0,0.0,0.0,0.0,0.0,0.0,0.0,0.0,0.0,0.0,0.0,0.0,0.0,0.0,0.0,0.0,0.0,0.0,0.0,0.0,0.0,0.0,0.0,0.0,0.0,0.0,0.0,0.0,0.0,0.0,0.0,0.0,0.0,0.0,0.0,0.0,0.0,0.0,-5.0257,-5.3613,-5.207,0.0,-4.7607,0.0,0.0,0.0,0.0,0.0,0.0,0.0,0.0,0.0,0.0,0.0,0.0,0.0,0.0,0.0,0.0,0.0,0.0,0.0,0.0,0.0,0.0,0.0,0.0,0.0,0.0,0.0,0.0,0.0,0.0,0.0,0.0,0.0,0.0,0.0,0.0,0.0,0.0,0.0,0.0,0.0,0.0,0.0,0.0,0.0,0.0,0.0,0.0,0.0,0.0,0.0,0.0,0.0,0.0,0.0,0.0,0.0,0.0,0.0,0.0,0.0,0.0,0.0,0.0,0.0,0.0,0.0,0.0,0.0,0.0,0.0,0.0,0.0,0.0,0.0,0.0,0.0,0.0,0.0,0.0,0.0,0.0,0.0,0.0,0.0,0.0,0.0,0.0,0.0,0.0,0.0,0.0,0.0,0.0,0.0,0.0,0.0,0.0,0.0,0.0,0.0,0.0,0.0,0.0,0.0,0.0,0.0,0.0,0.0,0.0,-5.0553,-5.3183,-5.1498,-4.9549,0.0,0.0,0.0,0.0,0.0,0.0,0.0,0.0,0.0,0.0,0.0,0.0,0.0,0.0,0.0,0.0,0.0,0.0,0.0,0.0,0.0,0.0,0.0,0.0,0.0,0.0,0.0,0.0,0.0,0.0,0.0,0.0,0.0,0.0,0.0,0.0,0.0,0.0,0.0,0.0,0.0,0.0,0.0,0.0,0.0,0.0,0.0,0.0,0.0,0.0,0.0,0.0,0.0,0.0,0.0,0.0,0.0,0.0,0.0,0.0,0.0,0.0,0.0,0.0,0.0,0.0,0.0,0.0,0.0,0.0,0.0,0.0,0.0,0.0,0.0,0.0,0.0,0.0,0.0,0.0,0.0,0.0,0.0,0.0,0.0,0.0,0.0,0.0,0.0,0.0,0.0,0.0,0.0,0.0,0.0,0.0,0.0,0.0,0.0,0.0,0.0,0.0,0.0,0.0,0.0,0.0,0.0,0.0,0.0,0.0,-5.0051,-5.0728,-5.2499,-5.1353,-4.9425,-4.6882,0.0,0.0,0.0,0.0,0.0,0.0,0.0,0.0,0.0,0.0,0.0,0.0,0.0,0.0,0.0,0.0,0.0,0.0,0.0,0.0,0.0,0.0,0.0,0.0,0.0,0.0,0.0,0.0,0.0,0.0,0.0,0.0,0.0,0.0,0.0,0.0,0.0,0.0,0.0,0.0,0.0,0.0,0.0,0.0,0.0,0.0,0.0,0.0,0.0,0.0,0.0,0.0,0.0,0.0,0.0,0.0,0.0,0.0,0.0,0.0,0.0,0.0,0.0,0.0,0.0,0.0,0.0,0.0,0.0,0.0,0.0,0.0,0.0,0.0,0.0,0.0,0.0,0.0,0.0,0.0,0.0,0.0,0.0,0.0,0.0,0.0,0.0,0.0,0.0,0.0,0.0,0.0,0.0,0.0,0.0,0.0,0.0,0.0,0.0,0.0,0.0,0.0,0.0,0.0,0.0,0.0,0.0,0.0,-5.194,-5.0644,-5.0748,-5.2656,-5.237,-5.0109,0.0,0.0,0.0,0.0,0.0,0.0,0.0,0.0,0.0,0.0,0.0,0.0,0.0,0.0,0.0,0.0,0.0,0.0,0.0,0.0,0.0,0.0,0.0,0.0,0.0,0.0,0.0,0.0,0.0,0.0,0.0,0.0,0.0,0.0,0.0,0.0,0.0,0.0,0.0,0.0,0.0,0.0,0.0,0.0,0.0,0.0,0.0,0.0,0.0,0.0,0.0,0.0,0.0,0.0,0.0,0.0,0.0,0.0,0.0,0.0,0.0,0.0,0.0,0.0,0.0,0.0,0.0,0.0,0.0,0.0,0.0,0.0,0.0,0.0,0.0,0.0,0.0,0.0,0.0,0.0,0.0,0.0,0.0,0.0,0.0,0.0,0.0,0.0,0.0,0.0,0.0,0.0,0.0,0.0,0.0,0.0,0.0,0.0,0.0,0.0,0.0,0.0,0.0,0.0,0.0,0.0,0.0,0.0,0.0,-4.8875,-4.9594,-5.108,-5.332,-5.067,-4.8477,0.0,0.0,0.0,0.0,0.0,0.0,0.0,0.0,0.0,0.0,0.0,0.0,0.0,0.0,0.0,0.0,0.0,0.0,0.0,0.0,0.0,0.0,0.0,0.0,0.0,0.0,0.0,0.0,0.0,0.0,0.0,0.0,0.0,0.0,0.0,0.0,0.0,0.0,0.0,0.0,0.0,0.0,0.0,0.0,0.0,0.0,0.0,0.0,0.0,0.0,0.0,0.0,0.0,0.0,0.0,0.0,0.0,0.0,0.0,0.0,0.0,0.0,0.0,0.0,0.0,0.0,0.0,0.0,0.0,0.0,0.0,0.0,0.0,0.0,0.0,0.0,0.0,0.0,0.0,0.0,0.0,0.0,0.0,0.0,0.0,0.0,0.0,0.0,0.0,0.0,0.0,0.0,0.0,0.0,0.0,0.0,0.0,0.0,0.0,0.0,0.0,0.0,0.0,0.0,0.0,0.0,0.0,0.0,0.0,-4.8339,0.0,-5.1874,-5.2968,-5.0165,-4.7826,0.0,0.0,0.0,0.0,0.0,0.0,0.0,0.0,0.0,0.0,0.0,0.0,0.0,0.0,0.0,0.0,0.0,0.0,0.0,0.0,0.0,0.0,0.0,0.0,0.0,0.0,0.0,0.0,0.0,0.0,0.0,0.0,0.0,0.0,0.0,0.0,0.0,0.0,0.0,0.0,0.0,0.0,0.0,0.0,0.0,0.0,0.0,0.0,0.0,0.0,0.0,0.0,0.0,0.0,0.0,0.0,0.0,0.0,0.0,0.0,0.0,0.0,0.0,0.0,0.0,0.0,0.0,0.0,0.0,0.0,0.0,0.0,0.0,0.0,0.0,0.0,0.0,0.0,0.0,0.0,0.0,0.0,0.0,0.0,0.0,0.0,0.0,0.0,0.0,0.0,0.0,0.0,0.0,0.0,0.0,0.0,0.0,0.0,0.0,0.0,0.0,0.0,0.0,0.0,0.0,0.0,0.0,0.0,-4.673,-5.086,-5.2701,-5.294,-5.1543,-5.1109,-4.8349,0.0,0.0,0.0,0.0,0.0,0.0,0.0,0.0,0.0,0.0,0.0,0.0,0.0,0.0,0.0,0.0,0.0,0.0,0.0,0.0,0.0,0.0,0.0,0.0,0.0,0.0,0.0,0.0,0.0,0.0,0.0,0.0,0.0,0.0,0.0,0.0,0.0,0.0,0.0,0.0,0.0,0.0,0.0,0.0,0.0,0.0,0.0,0.0,0.0,0.0,0.0,0.0,0.0,0.0,0.0,0.0,0.0,0.0,0.0,0.0,0.0,0.0,0.0,0.0,0.0,0.0,0.0,0.0,0.0,0.0,0.0,0.0,0.0,0.0,0.0,0.0,0.0,0.0,0.0,0.0,0.0,0.0,0.0,0.0,0.0,0.0,0.0,0.0,0.0,0.0,0.0,0.0,0.0,0.0,0.0,0.0,0.0,0.0,0.0,0.0,0.0,0.0,0.0,0.0,0.0,0.0,0.0,0.0,0.0,-4.9318,-5.1023,-5.2629,-5.3886,-5.0441,-4.7989,0.0,0.0,0.0,0.0,0.0,0.0,0.0,0.0,0.0,0.0,0.0,0.0,0.0,0.0,0.0,0.0,0.0,0.0,0.0,0.0,0.0,0.0,0.0,0.0,0.0,0.0,0.0,0.0,0.0,0.0,0.0,0.0,0.0,0.0,0.0,0.0,0.0,0.0,0.0,0.0,0.0,0.0,0.0,0.0,0.0,0.0,0.0,0.0,0.0,0.0,0.0,0.0,0.0,0.0,0.0,0.0,0.0,0.0,0.0,0.0,0.0,0.0,0.0,0.0,0.0,0.0,0.0,0.0,0.0,0.0,0.0,0.0,0.0,0.0,0.0,0.0,0.0,0.0,0.0,0.0,0.0,0.0,0.0,0.0,0.0,0.0,0.0,0.0,0.0,0.0,0.0,0.0,0.0,0.0,0.0,0.0,0.0,0.0,0.0,0.0,0.0,0.0,0.0,0.0,0.0,0.0,0.0,0.0,0.0,-5.0412,-5.2377,-5.3871,-5.4805,-5.1169,-4.8641,-4.7434,0.0,0.0,0.0,0.0,0.0,0.0,0.0,0.0,0.0,0.0,0.0,0.0,0.0,0.0,0.0,0.0,0.0,0.0,0.0,0.0,0.0,0.0,0.0,0.0,0.0,0.0,0.0,0.0,0.0,0.0,0.0,0.0,0.0,0.0,0.0,0.0,0.0,0.0,0.0,0.0,0.0,0.0,0.0,0.0,0.0,0.0,0.0,0.0,0.0,0.0,0.0,0.0,0.0,0.0,0.0,0.0,0.0,0.0,0.0,0.0,0.0,0.0,0.0,0.0,0.0,0.0,0.0,0.0,0.0,0.0,0.0,0.0,0.0,0.0,0.0,0.0,0.0,0.0,0.0,0.0,0.0,0.0,0.0,0.0,0.0,0.0,0.0,0.0,0.0,0.0,0.0,0.0,0.0,0.0,0.0,0.0,0.0,0.0,0.0,0.0,0.0,0.0,0.0,0.0,0.0,0.0,0.0,0.0,-5.346,-5.6136,-5.6492,-5.4413,-5.3058,-5.0151,0.0,0.0,0.0,0.0,0.0,0.0,0.0,0.0,0.0,0.0,0.0,0.0,0.0,0.0,0.0,0.0,0.0,0.0,0.0,0.0,0.0,0.0,0.0,0.0,0.0,0.0,0.0,0.0,0.0,0.0,0.0,0.0,0.0,0.0,0.0,0.0,0.0,0.0,0.0,0.0,0.0,0.0,0.0,0.0,0.0,0.0,0.0,0.0,0.0,0.0,0.0,0.0,0.0,0.0,0.0,0.0,0.0,0.0,0.0,0.0,0.0,0.0,0.0,0.0,0.0,0.0,0.0,0.0,0.0,0.0,0.0,0.0,0.0,0.0,0.0,0.0,0.0,0.0,0.0,0.0,0.0,0.0,0.0,0.0,0.0,0.0,0.0,0.0,0.0,0.0,0.0,0.0,0.0,0.0,0.0,0.0,0.0,0.0,0.0,0.0,0.0,0.0,0.0,0.0,0.0,0.0,0.0,0.0,0.0,-5.4363,-5.7505,-5.8673,-5.7575,-5.4234,-5.127,0.0,0.0,0.0,0.0,0.0,0.0,0.0,0.0,0.0,0.0,0.0,0.0,0.0,0.0,0.0,0.0,0.0,0.0,0.0,0.0,0.0,0.0,0.0,0.0,0.0,0.0,0.0,0.0,0.0,0.0,0.0,0.0,0.0,0.0,0.0,0.0,0.0,0.0,0.0,0.0,0.0,0.0,0.0,0.0,0.0,0.0,0.0,0.0,0.0,0.0,0.0,0.0,0.0,0.0,0.0,0.0,0.0,0.0,0.0,0.0,0.0,0.0,0.0,0.0,0.0,0.0,0.0,0.0,0.0,0.0,0.0,0.0,0.0,0.0,0.0,0.0,0.0,0.0,0.0,0.0,0.0,0.0,0.0,0.0,0.0,0.0,0.0,0.0,0.0,0.0,0.0,0.0,0.0,0.0,0.0,0.0,0.0,0.0,0.0,0.0,0.0,0.0,0.0,0.0,0.0,0.0,0.0,0.0,-5.2691,-5.5382,-5.8624,-5.9968,-5.9263,-5.6119,-5.3,0.0,0.0,0.0,0.0,0.0,0.0,0.0,0.0,0.0,0.0,0.0,0.0,0.0,0.0,0.0,0.0,0.0,0.0,0.0,0.0,0.0,0.0,0.0,0.0,0.0,0.0,0.0,0.0,0.0,0.0,0.0,0.0,0.0,0.0,0.0,0.0,0.0,0.0,0.0,0.0,0.0,0.0,0.0,0.0,0.0,0.0,0.0,0.0,0.0,0.0,0.0,0.0,0.0,0.0,0.0,0.0,0.0,0.0,0.0,0.0,0.0,0.0,0.0,0.0,0.0,0.0,0.0,0.0,0.0,0.0,0.0,0.0,0.0,0.0,0.0,0.0,0.0,0.0,0.0,0.0,0.0,0.0,0.0,0.0,0.0,0.0,0.0,0.0,0.0,0.0,0.0,0.0,0.0,0.0,0.0,0.0,0.0,0.0,0.0,0.0,0.0,0.0,0.0,0.0,0.0,0.0,0.0,0.0,-5.3547,-5.6355,-5.9361,-6.0528,-5.9666,-5.791,-5.4736,0.0,0.0,0.0,0.0,0.0,0.0,0.0,0.0,0.0,0.0,0.0,0.0,0.0,0.0,0.0,0.0,0.0,0.0,0.0,0.0,0.0,0.0,0.0,0.0,0.0,0.0,0.0,0.0,0.0,0.0,0.0,0.0,0.0,0.0,0.0,0.0,0.0,0.0,0.0,0.0,0.0,0.0,0.0,0.0,0.0,0.0,0.0,0.0,0.0,0.0,0.0,0.0,0.0,0.0,0.0,0.0,0.0,0.0,0.0,0.0,0.0,0.0,0.0,0.0,0.0,0.0,0.0,0.0,0.0,0.0,0.0,0.0,0.0,0.0,0.0,0.0,0.0,0.0,0.0,0.0,0.0,0.0,0.0,0.0,0.0,0.0,0.0,0.0,0.0,0.0,0.0,0.0,0.0,0.0,0.0,0.0,0.0,0.0,0.0,0.0,0.0,0.0,0.0,0.0,0.0,0.0,0.0,0.0,-5.3814,-5.6347,-5.8934,-6.0067,-5.9532,-5.6738,-5.3865,0.0,0.0,0.0,0.0,0.0,0.0,0.0,0.0,0.0,0.0,0.0,0.0,0.0,0.0,0.0,0.0,0.0,0.0,0.0,0.0,0.0,0.0,0.0,0.0,0.0,0.0,0.0,0.0,0.0,0.0,0.0,0.0,0.0,0.0,0.0,0.0,0.0,0.0,0.0,0.0,0.0,0.0,0.0,0.0,0.0,0.0,0.0,0.0,-4.5525,0.0,0.0,0.0,0.0,0.0,0.0,0.0,0.0,0.0,0.0,0.0,0.0,0.0,0.0,0.0,0.0,0.0,0.0,0.0,0.0,0.0,0.0,0.0,0.0,0.0,0.0,0.0,0.0,0.0,0.0,0.0,0.0,0.0,0.0,0.0,0.0,0.0,0.0,0.0,0.0,0.0,0.0,0.0,0.0,0.0,0.0,0.0,0.0,0.0,0.0,0.0,0.0,0.0,0.0,0.0,0.0,0.0,0.0,0.0,-5.3875,-5.6307,-5.8403,-5.9387,-5.909,-5.639,-5.3662,0.0,0.0,0.0,0.0,0.0,0.0,0.0,0.0,0.0,0.0,0.0,0.0,0.0,0.0,0.0,0.0,0.0,0.0,0.0,0.0,0.0,0.0,0.0,0.0,0.0,0.0,0.0,0.0,0.0,0.0,0.0,0.0,0.0,0.0,0.0,0.0,0.0,0.0,0.0,0.0,0.0,0.0,0.0,0.0,0.0,0.0,0.0,0.0,0.0,0.0,0.0,0.0,0.0,0.0,0.0,0.0,0.0,0.0,0.0,0.0,0.0,0.0,0.0,0.0,0.0,0.0,0.0,0.0,0.0,0.0,0.0,0.0,0.0,0.0,0.0,0.0,0.0,0.0,0.0,0.0,0.0,0.0,0.0,0.0,0.0,0.0,0.0,0.0,0.0,0.0,0.0,0.0,0.0,0.0,0.0,0.0,0.0,0.0,0.0,0.0,0.0,0.0,0.0,0.0,0.0,0.0,0.0,-5.0664,-5.346,-5.588,-5.7553,-5.8399,-5.8286,-5.6283,-5.3694,-5.0606,0.0,0.0,0.0,0.0,0.0,0.0,0.0,0.0,0.0,0.0,0.0,0.0,0.0,0.0,0.0,0.0,0.0,0.0,0.0,0.0,0.0,0.0,0.0,0.0,0.0,0.0,0.0,0.0,0.0,0.0,0.0,0.0,0.0,0.0,0.0,0.0,0.0,0.0,-4.1335,-4.2802,0.0,0.0,0.0,0.0,0.0,0.0,0.0,0.0,-4.5334,0.0,0.0,0.0,0.0,0.0,0.0,0.0,0.0,0.0,0.0,0.0,0.0,0.0,0.0,0.0,0.0,0.0,0.0,0.0,0.0,0.0,0.0,0.0,0.0,0.0,0.0,0.0,0.0,0.0,0.0,0.0,0.0,0.0,0.0,0.0,0.0,0.0,0.0,0.0,0.0,0.0,0.0,0.0,0.0,0.0,0.0,0.0,0.0,0.0,0.0,0.0,0.0,0.0,0.0,0.0,0.0,-4.7727,-4.9472,-5.1676,-5.4317,-5.5919,-5.6529,-5.6201,-5.582,-5.3384,-4.8824,0.0,0.0,0.0,0.0,0.0,0.0,0.0,0.0,0.0,0.0,0.0,0.0,0.0,0.0,0.0,0.0,0.0,0.0,0.0,0.0,0.0,0.0,0.0,0.0,0.0,0.0,0.0,0.0,0.0,0.0,0.0,0.0,0.0,0.0,0.0,0.0,0.0,0.0,0.0,-4.3517,-4.3775,0.0,0.0,0.0,0.0,0.0,0.0,0.0,0.0,-4.5256,0.0,0.0,0.0,0.0,0.0,0.0,0.0,0.0,0.0,0.0,0.0,0.0,0.0,0.0,0.0,0.0,0.0,0.0,0.0,0.0,0.0,0.0,0.0,0.0,0.0,0.0,0.0,0.0,0.0,0.0,0.0,0.0,0.0,0.0,0.0,0.0,0.0,0.0,0.0,0.0,0.0,0.0,0.0,0.0,0.0,0.0,0.0,0.0,0.0,0.0,0.0,0.0,0.0,0.0,0.0,-4.663,-4.8823,-5.1153,-5.354,-5.4607,-5.517,-5.5316,-5.4132,-5.1796,0.0,0.0,0.0,0.0,0.0,0.0,0.0,0.0,0.0,0.0,0.0,0.0,0.0,0.0,0.0,0.0,0.0,0.0,0.0,0.0,0.0,0.0,0.0,0.0,0.0,0.0,0.0,0.0,0.0,0.0,0.0,0.0,0.0,0.0,0.0,0.0,0.0,0.0,0.0,0.0,-4.3829,-4.4173,-4.5152,0.0,0.0,0.0,0.0,0.0,0.0,-4.5086,-4.4908,0.0,0.0,0.0,0.0,0.0,0.0,0.0,0.0,0.0,0.0,0.0,0.0,0.0,0.0,0.0,0.0,0.0,0.0,0.0,0.0,0.0,0.0,0.0,0.0,0.0,0.0,0.0,0.0,0.0,0.0,0.0,0.0,0.0,0.0,0.0,0.0,0.0,0.0,0.0,0.0,0.0,0.0,0.0,0.0,0.0,0.0,0.0,0.0,0.0,0.0,0.0,0.0,0.0,0.0,0.0,-4.5172,-4.7918,-5.0409,-5.2541,-5.3147,-5.3656,-5.4118,-5.2211,-5.0006,0.0,0.0,0.0,0.0,0.0,0.0,0.0,0.0,0.0,0.0,0.0,0.0,0.0,0.0,0.0,0.0,0.0,0.0,0.0,0.0,0.0,0.0,0.0,0.0,0.0,0.0,0.0,0.0,0.0,0.0,0.0,0.0,0.0,0.0,0.0,0.0,0.0,0.0,0.0,0.0,0.0,-4.4699,-4.4742,-4.4811,0.0,0.0,0.0,0.0,-4.4184,-4.4902,0.0,0.0,0.0,0.0,0.0,0.0,0.0,0.0,0.0,0.0,0.0,0.0,0.0,0.0,0.0,0.0,0.0,0.0,0.0,0.0,0.0,0.0,0.0,0.0,0.0,0.0,0.0,0.0,0.0,0.0,0.0,0.0,0.0,0.0,0.0,0.0,0.0,0.0,0.0,0.0,0.0,0.0,0.0,0.0,0.0,0.0,0.0,0.0,0.0,0.0,0.0,0.0,0.0,0.0,0.0,0.0,-4.3619,-4.5922,-4.817,-5.0279,-5.1087,-5.1428,-5.1371,-5.0599,-4.8758,0.0,0.0,0.0,0.0,0.0,0.0,0.0,0.0,0.0,0.0,0.0,0.0,0.0,0.0,0.0,0.0,0.0,0.0,0.0,0.0,0.0,0.0,0.0,0.0,0.0,0.0,0.0,0.0,0.0,0.0,0.0,0.0,0.0,0.0,0.0,0.0,0.0,0.0,0.0,0.0,0.0,-4.4834,-4.2945,-4.3219,-4.327,0.0,0.0,-4.453,-4.506,-4.63,0.0,0.0,0.0,0.0,0.0,0.0,0.0,0.0,0.0,0.0,0.0,0.0,0.0,0.0,0.0,0.0,0.0,0.0,0.0,0.0,0.0,0.0,0.0,0.0,0.0,0.0,0.0,0.0,0.0,0.0,0.0,0.0,0.0,0.0,0.0,0.0,0.0,0.0,0.0,0.0,0.0,0.0,0.0,0.0,0.0,0.0,0.0,0.0,0.0,0.0,0.0,0.0,0.0,0.0,0.0,-3.9982,-4.2026,-4.4141,-4.6515,-4.9095,-4.9114,-4.9474,-5.0376,-4.8413,-4.6371,0.0,0.0,0.0,0.0,0.0,0.0,0.0,0.0,0.0,0.0,0.0,0.0,0.0,0.0,0.0,0.0,0.0,0.0,0.0,0.0,0.0,0.0,0.0,0.0,0.0,0.0,0.0,0.0,0.0,0.0,0.0,0.0,0.0,0.0,0.0,0.0,0.0,0.0,0.0,0.0,0.0,0.0,-4.1678,-4.217,0.0,0.0,0.0,-4.3752,-4.3407,0.0,0.0,0.0,0.0,0.0,0.0,0.0,0.0,0.0,0.0,0.0,0.0,0.0,0.0,0.0,0.0,0.0,0.0,0.0,0.0,0.0,0.0,0.0,0.0,0.0,0.0,0.0,0.0,0.0,0.0,0.0,0.0,0.0,0.0,0.0,0.0,0.0,0.0,0.0,0.0,0.0,0.0,0.0,0.0,0.0,0.0,0.0,0.0,0.0,0.0,0.0,0.0,0.0,0.0,0.0,0.0,0.0,-4.0467,-4.27,-4.5016,-4.7373,-4.6951,-4.7347,-4.8732,-4.6382,0.0,0.0,0.0,0.0,0.0,0.0,0.0,0.0,0.0,0.0,0.0,0.0,0.0,0.0,0.0,0.0,0.0,0.0,0.0,0.0,0.0,0.0,0.0,0.0,0.0,0.0,0.0,-3.0981,0.0,0.0,0.0,0.0,0.0,0.0,0.0,0.0,0.0,0.0,0.0,0.0,0.0,0.0,-4.1132,-4.0765,-4.1597,-4.1981,0.0,0.0,-4.2719,-4.181,-4.4047,-4.4555,0.0,0.0,0.0,0.0,0.0,0.0,0.0,0.0,0.0,0.0,0.0,0.0,0.0,0.0,0.0,0.0,0.0,0.0,0.0,0.0,0.0,0.0,0.0,0.0,0.0,0.0,0.0,0.0,0.0,0.0,0.0,0.0,0.0,0.0,0.0,0.0,0.0,0.0,0.0,0.0,0.0,0.0,0.0,0.0,0.0,0.0,0.0,0.0,0.0,0.0,0.0,0.0,0.0,0.0,0.0,-3.9075,-4.1771,-4.3553,-4.4475,-4.4459,-4.4799,-4.5557,-4.4875,-4.3743,0.0,0.0,0.0,0.0,0.0,0.0,0.0,0.0,0.0,0.0,0.0,0.0,0.0,0.0,0.0,0.0,0.0,0.0,0.0,0.0,0.0,0.0,0.0,0.0,0.0,0.0,0.0,0.0,0.0,0.0,0.0,0.0,0.0,0.0,0.0,0.0,0.0,0.0,0.0,0.0,0.0,-4.1501,-4.0096,-4.163,-4.2652,0.0,0.0,-4.1837,-4.1083,-4.288,-4.2928,-3.8673,0.0,0.0,0.0,0.0,0.0,0.0,0.0,0.0,0.0,0.0,0.0,0.0,0.0,0.0,0.0,0.0,0.0,0.0,0.0,0.0,0.0,0.0,0.0,0.0,0.0,0.0,0.0,0.0,0.0,0.0,0.0,0.0,0.0,0.0,0.0,0.0,0.0,0.0,0.0,0.0,0.0,0.0,0.0,0.0,0.0,0.0,0.0,0.0,0.0,0.0,0.0,0.0,0.0,-3.5477,-3.6461,-3.9097,-4.1058,-4.2304,-4.2537,-4.3078,-4.3917,-4.2431,-4.0939,0.0,0.0,0.0,0.0,0.0,0.0,0.0,0.0,0.0,0.0,0.0,0.0,0.0,0.0,0.0,0.0,0.0,0.0,0.0,0.0,0.0,0.0,0.0,0.0,0.0,0.0,0.0,0.0,-3.1985,-3.1955,-3.1518,0.0,0.0,0.0,0.0,0.0,0.0,0.0,0.0,0.0,0.0,-3.8254,-3.7992,-3.9569,0.0,0.0,-4.086,-4.1152,-4.0835,-4.1961,-4.1741,-3.835,-3.7919,0.0,0.0,0.0,0.0,0.0,0.0,0.0,0.0,0.0,0.0,0.0,0.0,0.0,0.0,0.0,0.0,0.0,0.0,0.0,0.0,0.0,0.0,0.0,0.0,0.0,0.0,0.0,0.0,0.0,0.0,0.0,0.0,0.0,0.0,0.0,0.0,0.0,0.0,0.0,0.0,0.0,0.0,0.0,0.0,0.0,0.0,0.0,0.0,0.0,0.0,0.0,0.0,-3.3746,-3.4214,-3.6717,-3.8582,-3.9683,-4.0252,-4.0973,-4.1812,-4.0752,-3.9498,0.0,0.0,0.0,0.0,0.0,0.0,0.0,0.0,0.0,0.0,0.0,0.0,0.0,0.0,0.0,0.0,0.0,0.0,0.0,0.0,0.0,0.0,0.0,0.0,0.0,0.0,0.0,0.0,-3.1961,-3.1308,-3.0643,0.0,0.0,0.0,0.0,0.0,0.0,0.0,0.0,0.0,0.0,-3.6,-3.6537,-3.7849,-3.8691,-3.8538,-3.8901,-3.9109,-3.8908,-3.9455,-3.9058,-3.6646,0.0,0.0,0.0,0.0,0.0,0.0,0.0,0.0,0.0,0.0,0.0,0.0,0.0,0.0,0.0,0.0,0.0,0.0,0.0,0.0,0.0,0.0,0.0,0.0,0.0,0.0,0.0,0.0,0.0,0.0,-3.2678,0.0,0.0,0.0,0.0,0.0,0.0,0.0,0.0,0.0,0.0,0.0,0.0,0.0,0.0,0.0,0.0,0.0,0.0,0.0,0.0,0.0,0.0,-3.2656,-3.2698,-3.5076,-3.6292,-3.6371,-3.7357,-3.8324,-3.9176,-4.0121,-4.0014,-3.8727,0.0,0.0,0.0,0.0,0.0,0.0,0.0,0.0,0.0,0.0,0.0,0.0,0.0,0.0,0.0,0.0,0.0,0.0,0.0,0.0,0.0,0.0,0.0,0.0,0.0,0.0,-3.2482,-3.069,-2.9247,0.0,0.0,0.0,0.0,0.0,0.0,0.0,0.0,0.0,0.0,-3.3721,-3.5507,-3.6099,-3.6789,-3.7087,-3.6584,-3.5975,-3.5405,-3.4962,-3.4836,-3.4279,0.0,0.0,0.0,0.0,0.0,0.0,0.0,0.0,0.0,0.0,0.0,0.0,0.0,0.0,0.0,0.0,0.0,0.0,0.0,0.0,0.0,0.0,0.0,0.0,0.0,0.0,0.0,-3.4851,-3.4217,0.0,0.0,0.0,0.0,0.0,0.0,0.0,0.0,0.0,0.0,0.0,-3.0989,-3.1479,0.0,0.0,0.0,0.0,0.0,0.0,0.0,0.0,0.0,0.0,0.0,0.0,-3.1736,-3.2204,-3.4165,-3.521,-3.521,-3.6212,-3.6849,-3.7177,-3.7146,-3.6591,-3.5504,0.0,0.0,0.0,0.0,0.0,0.0,0.0,0.0,0.0,0.0,0.0,0.0,0.0,0.0,0.0,0.0,0.0,0.0,0.0,0.0,0.0,0.0,0.0,0.0,0.0,-3.2318,0.0,0.0,0.0,0.0,0.0,0.0,0.0,0.0,0.0,0.0,0.0,-3.0202,-3.1559,-3.26,-3.3477,-3.4002,-3.5172,-3.5944,0.0,0.0,0.0,0.0,0.0,0.0,0.0,0.0,0.0,0.0,0.0,0.0,0.0,0.0,-3.4046,-3.319,-3.3352,-3.3853,-3.4481,0.0,0.0,0.0,0.0,0.0,0.0,0.0,0.0,0.0,0.0,0.0,0.0,0.0,0.0,-3.4218,0.0,-3.3542,0.0,0.0,0.0,0.0,0.0,0.0,0.0,0.0,-2.9251,-2.967,-3.0134,-3.0572,-3.0518,0.0,-3.0353,-2.9974,0.0,0.0,0.0,0.0,0.0,0.0,0.0,0.0,-3.0867,-3.15,-3.3044,-3.3942,-3.4178,-3.5156,-3.5668,-3.5641,-3.5425,-3.4771,-3.3701,-3.3289,-3.2735,0.0,0.0,0.0,0.0,0.0,0.0,0.0,0.0,0.0,0.0,0.0,0.0,0.0,0.0,0.0,0.0,0.0,0.0,0.0,0.0,0.0,0.0,0.0,-3.155,0.0,0.0,0.0,0.0,0.0,0.0,0.0,0.0,0.0,-2.8789,-2.9083,-2.9644,-3.1204,-3.1846,-3.2318,-3.2682,0.0,0.0,0.0,0.0,0.0,0.0,0.0,-3.2611,-3.2024,-3.187,-3.1729,-3.1492,-3.2117,-3.2557,-3.237,0.0,0.0,-3.3488,-3.3707,-3.4288,-3.5309,-3.5753,-3.6091,-3.663,-3.7126,-3.7405,0.0,0.0,0.0,0.0,0.0,0.0,0.0,0.0,-3.2424,-3.3153,0.0,-3.2123,0.0,0.0,0.0,0.0,0.0,-2.8253,0.0,0.0,-3.0203,-3.0693,-3.0504,-3.0046,-2.9628,-2.9152,-2.9177,-2.841,-2.7158,-2.937,0.0,0.0,0.0,0.0,0.0,0.0,-3.0029,-3.067,-3.1687,-3.2491,-3.3129,-3.4108,-3.4677,-3.4664,-3.5045,-3.4647,-3.3427,-3.283,-3.2096,-3.1174,-3.0504,0.0,0.0,0.0,0.0,0.0,0.0,0.0,0.0,0.0,0.0,0.0,0.0,0.0,0.0,0.0,0.0,0.0,0.0,0.0,0.0,-3.0737,0.0,0.0,0.0,0.0,0.0,0.0,0.0,0.0,0.0,0.0,-2.6176,-2.7718,-2.9178,-3.026,0.0,0.0,0.0,0.0,-3.196,-3.1499,-3.1424,-3.1289,-3.0811,-3.1113,-3.1251,-3.0748,0.0,0.0,-3.1527,-3.1465,-3.1379,-3.0809,-3.2457,-3.3887,-3.4137,-3.3794,-3.4033,-3.5619,-3.5559,-3.559,-3.703,-3.759,-3.7775,-3.1545,0.0,0.0,0.0,0.0,-3.1356,-3.1649,-3.2137,-3.2655,-3.2501,-3.1857,-3.1534,0.0,0.0,0.0,0.0,0.0,0.0,-2.7987,-2.8301,-2.8198,-2.8249,-2.8564,-2.8695,-2.8553,-2.8167,-2.8268,-2.7946,-2.7306,-2.8114,-2.7964,-2.6901,0.0,0.0,0.0,0.0,-2.9429,-3.1094,-3.1863,-3.2491,-3.3068,-3.3398,-3.3556,-3.3543,-3.396,-3.3793,-3.3019,-3.3094,-3.2621,-3.1525,-3.0804,0.0,0.0,0.0,0.0,0.0,0.0,0.0,0.0,0.0,0.0,0.0,0.0,0.0,0.0,0.0,0.0,0.0,0.0,0.0,-2.9959,-2.9598,-2.8843,0.0,0.0,0.0,0.0,0.0,0.0,0.0,0.0,0.0,-2.4968,-2.6455,-2.8146,0.0,0.0,-2.8848,-2.9677,-3.0169,-3.0549,-3.067,-3.1395,0.0,0.0,-3.1549,-3.1336,-3.1185,-3.175,-3.2152,-3.2001,-3.2315,-3.2554,-3.2378,-3.29,-3.3321,-3.3488,-3.4165,-3.5256,-3.6782,-3.6726,-3.6852,-3.8412,-3.8805,-3.8897,-3.2049,-3.2001,-3.1317,-3.1116,-3.1233,-3.0937,-3.1053,-3.1572,-3.1856,-3.1902,-3.1685,-3.1081,-3.0488,-2.9844,-2.8571,0.0,0.0,0.0,-2.7295,-2.7854,-2.7497,-2.75,-2.7963,-2.8174,-2.8066,-2.7741,-2.7623,-2.7396,-2.6998,-2.6758,-2.6203,-2.5315,0.0,0.0,-2.6959,-2.7476,-2.848,-2.9935,-3.0518,-3.0963,-3.1375,-3.1226,-3.1117,-3.1117,-3.1348,-3.1211,-3.0664,-3.1253,-3.1373,-3.0781,-3.0556,-3.0242,0.0,0.0,0.0,0.0,0.0,0.0,0.0,0.0,0.0,0.0,0.0,-2.5824,-2.5446,0.0,0.0,0.0,-2.5979,-2.7263,-2.8074,-2.7722,0.0,0.0,0.0,0.0,0.0,0.0,0.0,-2.4364,-2.472,-2.4907,-2.4702,-2.5638,-2.6907,-2.8576,-2.8184,-2.7955,-2.8641,0.0,-2.9566,-3.0304,-3.1022,-3.1642,-3.2118,-3.2139,-3.2051,-3.2064,-3.2328,-3.2541,-3.2566,-3.2855,-3.3111,-3.3124,-3.3124,-3.3124,-3.3124,-3.3822,-3.4861,-3.6274,-3.6557,-3.7068,-3.8473,-3.909,-3.9388,-3.2617,-3.2199,-3.0565,-3.0039,-3.0273,-2.9512,-2.9394,-2.979,-3.052,-3.1389,-3.2103,-3.0722,-3.0786,-3.1741,-2.8851,0.0,-2.6533,-2.6572,-2.7053,-2.7767,-2.7715,-2.791,-2.8281,-2.8291,-2.8086,-2.7757,-2.7236,-2.6816,-2.6406,-2.5595,-2.5098,-2.5134,-2.6326,-2.677,-2.6526,-2.6821,-2.732,-2.7973,-2.8399,-2.8668,-2.8824,-2.834,-2.8124,-2.8124,-2.8124,-2.7845,-2.7372,-2.8249,-2.8907,-2.9257,-2.9716,-2.9816,-2.947,0.0,0.0,0.0,0.0,0.0,0.0,0.0,0.0,0.0,0.0,0.0,0.0,0.0,0.0,0.0,-2.4047,0.0,-2.5612,-2.5646,0.0,0.0,0.0,-2.4238,-2.3277,-2.3875,-2.428,-2.3879,0.0,0.0,-2.5057,-2.5116,-2.569,-2.7253,-2.7955,-2.8354,-2.8444,-2.8433,-2.889,-3.0074,-3.0423,-3.091,-3.2129,-3.2692,-3.3011,-3.3011,-3.3124,-3.3043,-3.3086,-3.3111,-3.3124,-3.3124,-3.3124,-3.3124,-3.3124,-3.3172,-3.3398,-3.4457,-3.5386,-3.6434,-3.7625,-3.8546,-3.9192,-3.3213,-3.3057,-3.2334,-3.1904,-3.1689,-3.1484,-3.126,-3.1045,-3.1219,-3.1077,-3.0724,-3.036,-3.0018,-2.9618,-2.8907,-2.8292,-2.7851,-2.8164,-2.8252,-2.8144,-2.8144,-2.8193,-2.8291,-2.8301,-2.8232,-2.8096,-2.7383,-2.6963,-2.6826,-2.5996,-2.54,-2.5116,-2.5395,-2.5786,-2.6199,-2.6283,-2.7005,-2.8399,-2.8567,-2.8679,-2.8768,-2.834,-2.8124,-2.8124,-2.8124,-2.7845,-2.7318,-2.7549,-2.755,-2.725,-2.7621,-2.7434,-2.6626,-2.5663,0.0,0.0,0.0,0.0,0.0,0.0,0.0,0.0,0.0,-2.2941,-2.1608,0.0,-2.2416,0.0,-2.3387,-2.4764,-2.5991,-2.6035,0.0,0.0,-2.4851,-2.4334,-2.371,-2.4103,-2.4368,-2.4258,-2.4648,-2.4951,-2.5106,-2.5059,-2.5367,-2.6069,-2.6036,-2.6238,-2.7013,-2.7243,-2.7874,-2.9365,-3.0343,-3.1452,-3.253,-3.2968,-3.3081,-3.3124,-3.3124,-3.3124,-3.3124,-3.3124,-3.3124,-3.3124,-3.3124,-3.3124,-3.3124,-3.3124,-3.3154,-3.3471,-3.4304,-3.5601,-3.741,-3.7994,-3.8435,-3.3418,-3.3398,-3.3164,-3.2484,-3.1583,-3.1805,-3.1738,-3.1504,-3.1318,-3.0967,-3.0498,-3.0293,-2.9834,-2.9219,-2.9209,-2.9082,-2.8877,-2.8896,-2.8799,-2.8564,-2.8379,-2.8301,-2.8301,-2.8301,-2.8301,-2.8262,-2.7422,-2.7012,-2.6963,-2.6103,-2.5605,-2.5371,-2.5361,-2.5567,-2.5872,-2.5762,-2.6141,-2.7049,-2.7049,-2.701,-2.6833,-2.6432,-2.6082,-2.588,-2.588,-2.5752,-2.5455,-2.5904,-2.607,-2.5788,-2.6437,-2.6434,-2.5634,-2.4876,-2.4129,0.0,0.0,0.0,0.0,0.0,0.0,0.0,0.0,0.0,0.0,0.0,-2.1876,-2.2129,-2.3254,-2.4354,-2.5375,-2.5363,-2.5029,-2.4146,-2.3955,-2.376,-2.3466,-2.3815,-2.4307,-2.4905,-2.5225,-2.5371,-2.5371,-2.5371,-2.5449,-2.5654,-2.5527,-2.56,-2.6094,-2.633,-2.6884,-2.8347,-2.9177,-3.0045,-3.1279,-3.1921,-3.2239,-3.2295,-3.2742,-3.3124,-3.3124,-3.3124,-3.3124,-3.3124,-3.3124,-3.3124,-3.3124,-3.3124,-3.3124,-3.3197,-3.3556,-3.4553,-3.6081,-3.7165,-3.8032,-3.2756,-3.2765,-3.2765,-3.1845,-3.0497,-3.0836,-3.1091,-3.1194,-3.0896,-3.0801,-3.0869,-3.0459,-3.0088,-2.9746,-2.9736,-2.9707,-2.9629,-2.9199,-2.8975,-2.8896,-2.8486,-2.8301,-2.8301,-2.8301,-2.8301,-2.8262,-2.7432,-2.7012,-2.6992,-2.6103,-2.5684,-2.5684,-2.5684,-2.5684,-2.5664,-2.5342,-2.5156,-2.5204,-2.5145,-2.493,-2.4512,-2.4043,-2.3603,-2.3198,-2.313,-2.3101,-2.3135,-2.4049,-2.4585,-2.4628,-2.5611,-2.5884,-2.5308,-2.4643,-2.4017,0.0,-2.2323,0.0,0.0,0.0,0.0,0.0,0.0,0.0,0.0,-2.0986,-2.0984,-2.2235,-2.3148,-2.3861,-2.4417,-2.4492,-2.3925,-2.2648,-2.2838,-2.3005,-2.2814,-2.3292,-2.4146,-2.5333,-2.5586,-2.5674,-2.5577,-2.5645,-2.5684,-2.5596,-2.5625,-2.5684,-2.5723,-2.5752,-2.6225,-2.741,-2.7731,-2.8634,-2.9498,-3.0541,-3.1267,-3.1356,-3.2283,-3.3081,-3.3124,-3.3124,-3.3124,-3.3124,-3.3124,-3.3124,-3.3124,-3.3124,-3.3124,-3.3124,-3.3154,-3.3556,-3.4664,-3.6094,-3.7396,-2.9156,-2.9156,-2.9156,-2.8952,-2.8647,-2.8409,-2.8902,-2.9861,-2.9797,-3.0208,-3.0898,-3.0801,-3.0723,-3.0644,-3.0635,-3.0439,-3.0059,-2.9639,-2.9268,-2.8852,-2.8486,-2.8301,-2.8301,-2.8301,-2.8301,-2.8242,-2.7422,-2.7012,-2.6992,-2.6103,-2.5684,-2.5684,-2.5684,-2.5684,-2.5684,0.0,0.0,0.0,-2.5254,-2.5077,-2.4932,-2.418,-2.375,-2.3662,-2.3276,0.0,-2.3101,-2.3309,-2.342,-2.343,-2.3977,0.0,0.0,0.0,0.0,0.0,0.0,0.0,0.0,0.0,0.0,0.0,-1.8287,-1.8264,-1.8537,-1.9134,-2.0103,-2.1415,-2.2199,-2.3327,-2.4808,-2.4941,-2.4402,-2.3094,-2.3282,-2.2987,-2.1658,-2.274,-2.385,-2.4048,-2.502,-2.5596,-2.5312,-2.5498,-2.5596,-2.5322,-2.5508,-2.5674,-2.5684,-2.5684,-2.6197,-2.7352,-2.8226,-2.9004,-2.935,-3.0305,-3.0944,-3.1368,-3.2239,-3.297,-3.3056,-3.3086,-3.3099,-3.3074,-3.3124,-3.3111,-3.3099,-3.3124,-3.3074,-3.3111,-3.3099,-3.3428,-3.447,-3.4979,-3.5775,-2.8172,0.0,-2.8172,-2.7701,0.0,-2.6584,-2.6671,-2.7057,-2.8579,-2.9419,-2.9658,-2.9648,-2.9648,-2.9717,-3.0518,-3.0771,-3.0508,-2.9863,-2.9453,-2.9209,-2.8584,-2.8301,-2.8301,-2.8301,-2.8301,-2.8262,-2.7422,-2.7012,-2.6963,-2.6103,-2.5684,-2.5684,-2.5684,-2.5684,-2.5684,-2.5684,-2.5684,-2.5684,-2.5518,-2.5293,-2.5106,-2.4434,-2.3994,-2.3789,0.0,0.0,0.0,0.0,0.0,0.0,0.0,0.0,0.0,0.0,0.0,-1.9737,-1.8762,-1.7916,-1.7367,-1.7383,-1.7415,-1.7248,-1.7084,-1.7303,-1.8137,-1.9106,-1.9983,-2.0635,-2.1246,-2.233,-2.3983,-2.424,-2.3636,-2.231,-2.2443,-2.2012,-2.0574,-2.1034,-2.2206,-2.3457,-2.407,-2.4581,-2.5304,-2.5361,-2.542,-2.541,-2.5538,-2.5684,-2.5684,-2.5684,-2.5965,-2.6572,-2.7115,-2.7521,-2.7662,-2.8634,-2.967,-3.0248,-3.1109,-3.1945,-3.2569,-3.2428,-3.224,-3.2265,-3.2453,-3.2579,-3.2328,-3.2453,-3.2566,-3.2315,-3.2282,-3.2521,-3.3325,-3.4095,-3.5129,-2.7246,-2.7238,-2.7246,-2.638,-2.5053,-2.5053,-2.4812,-2.4573,0.0,0.0,0.0,-2.7991,-2.7991,-2.8051,-2.9412,-3.003,-2.9963,-2.9146,-2.8747,-2.8709,-2.8173,-2.7897,-2.7906,-2.8184,-2.8301,-2.8252,-2.7205,-2.6746,-2.6922,-2.5678,-2.5118,-2.5333,-2.5333,-2.543,-2.5684,-2.5684,-2.5577,-2.5391,-2.5577,-2.5518,-2.5116,-2.4639,-2.4219,-2.3799,-2.3325,-2.3003,-2.2765,-2.2775,-2.2217,-2.1078,-2.098,-2.0531,-1.9534,-1.9314,-1.9177,-1.9177,-1.9012,-1.8489,-1.7547,-1.7699,-1.7425,-1.637,-1.6273,-1.6853,-1.8281,-1.9039,-1.9532,-1.9833,-2.0205,-2.109,-2.281,-2.2867,-2.2289,-2.0999,-2.1021,-2.0535,-1.9054,-1.9182,-2.0378,-2.2343,-2.2819,-2.3453,-2.4842,-2.5101,-2.5195,-2.5527,-2.5615,-2.5684,-2.5684,-2.5684,-2.5732,-2.583,-2.6004,-2.582,-2.5917,-2.6897,-2.7934,-2.8782,-2.9597,-3.0426,-3.1149,-3.1261,-3.1124,-3.1104,-3.1622,-3.1838,-3.1537,-3.1788,-3.1901,-3.1474,-3.1386,-3.1512,-3.2059,-3.3219,-3.4533,-2.3659,-2.3659,-2.3659,-2.3461,-2.3263,-2.3263,-2.3708,-2.4501,-2.58,-2.639,-2.634,-2.6349,-2.6349,-2.634,-2.6591,-2.6712,-2.6661,-2.5881,-2.5542,0.0,-2.6129,-2.6436,-2.649,-2.7726,-2.8301,-2.8116,-2.628,-2.5886,-2.6548,-2.3809,-2.2826,-2.384,-2.3989,-2.4559,-2.5586,-2.5684,-2.5128,-2.4048,-2.5128,-2.5518,-2.5125,-2.4639,-2.4219,-2.3799,-2.3325,-2.2589,-2.1623,-2.1569,-2.098,-1.9815,-1.9761,-1.9679,-1.9497,-1.8495,-1.7963,-1.7924,-1.7194,-1.6684,-1.6497,-1.6776,-1.6731,-1.6355,-1.6273,-1.642,-1.6636,-1.6739,-1.7419,-1.8675,-1.8856,-1.968,-2.1587,-2.1359,-2.059,-1.966,-1.9266,-1.857,-1.7312,-1.8103,-1.9033,-1.9732,-2.1377,-2.2675,-2.3398,-2.4345,-2.5155,-2.5215,-2.5488,-2.5664,-2.5635,-2.5684,-2.5684,-2.5684,-2.5684,-2.5684,-2.5781,-2.6754,-2.7353,-2.7274,-2.8252,-2.8885,-2.8933,-2.9557,-2.9989,-3.0019,-3.0811,-3.1395,-3.1336,-3.1436,-3.1424,-3.1286,-3.1248,-3.1348,-3.1499,-3.2171,-3.3123,-2.2866,-2.2866,-2.2866,-2.2866,-2.2908,-2.2519,-2.269,-2.3088,-2.3277,-2.3861,-2.4648,-2.4717,-2.4717,-2.477,-2.5619,-2.5976,-2.5943,-2.5233,-2.4903,-2.4903,-2.4892,-2.4884,-2.4931,-2.5544,-2.5882,-2.5728,-2.4429,-2.407,-2.4436,-2.2622,-2.2005,-2.2567,-2.2617,-2.2918,-2.3484,-2.3534,-2.3235,-2.2667,-2.3939,-2.4403,-2.3991,-2.3532,-2.3177,-2.282,-2.2354,-2.1578,-2.0395,-2.0305,-1.9761,-1.8596,-1.8549,-1.8218,-1.7529,-1.6936,-1.6669,-1.6669,-1.6239,-1.6032,-1.6039,-1.6306,-1.6553,-1.677,-1.66,-1.658,-1.679,-1.6502,-1.6613,-1.733,-1.7478,-1.8303,-2.0093,-1.986,-1.9388,-1.8957,-1.878,-1.8098,-1.6852,-1.711,-1.8271,-1.9781,-2.0887,-2.2235,-2.4048,-2.4755,-2.5185,-2.5361,-2.5459,-2.54,-2.5381,-2.5381,-2.5478,-2.5625,-2.5684,-2.5625,-2.543,-2.5829,-2.6278,-2.649,-2.6781,-2.7162,-2.7504,-2.8393,-2.8775,-2.8968,-3.0,-3.0728,-3.0633,-3.0783,-3.0809,-3.0557,-3.052,-3.0608,-3.0934,-3.1612,-3.2759,-2.2866,-2.2866,-2.2866,-2.2826,-2.2719,-2.2205,-2.1951,-2.1837,-2.1329,-2.1846,-2.2959,-2.3021,-2.3014,-2.3139,-2.4348,-2.4885,-2.4798,-2.4166,-2.3799,-2.3779,-2.348,-2.3319,-2.3375,-2.3607,-2.3822,-2.3684,-2.2763,-2.2429,-2.256,-2.1438,-2.0939,-2.1194,-2.1245,-2.1389,-2.1693,-2.1693,-2.155,-2.1296,-2.2265,-2.2641,-2.2479,-2.2178,-2.1808,-2.1431,-2.1067,-2.035,-1.9185,-1.9093,-1.8549,-1.7365,-1.7264,-1.6803,-1.5872,-1.5825,-1.5825,-1.5832,-1.5851,-1.5965,-1.6039,-1.6306,-1.669,-1.7052,-1.6901,-1.6874,-1.7038,-1.6757,-1.6473,-1.6549,-1.68,-1.7406,-1.8477,-1.846,-1.824,-1.8174,-1.8086,-1.7642,-1.6808,-1.6862,-1.7986,-2.0443,-2.0975,-2.2188,-2.4361,-2.514,-2.5254,-2.5557,-2.5352,-2.5078,-2.5059,-2.5059,-2.5234,-2.5478,-2.5615,-2.5557,-2.5156,-2.5125,-2.5358,-2.5747,-2.5385,-2.5466,-2.6173,-2.6975,-2.7701,-2.7921,-2.9212,-3.0125,-2.9942,-3.0118,-3.0244,-2.998,-2.9917,-3.0068,-3.0796,-3.1424,-3.2514,-2.2866,-2.2866,-2.2866,-2.2706,-2.2438,-2.2118,-2.183,-2.1577,-2.1243,-2.1172,-2.1411,-2.1348,-2.1411,-2.1355,-2.1601,-2.172,-2.1665,-2.0917,-2.0758,-2.087,-2.1437,-2.1813,-2.1919,-2.3095,-2.3822,-2.3453,-2.1791,-2.141,-2.2228,-1.9535,-1.8662,-1.9679,-1.9782,-2.0436,-2.1499,-2.1643,-2.1041,-1.9826,-1.993,-2.0276,-2.0765,-2.0779,-2.0437,-1.9745,-1.9695,-1.9085,-1.7917,-1.7863,-1.7271,-1.6109,-1.6015,-1.592,-1.5825,-1.5825,-1.5825,-1.5838,-1.6079,-1.6346,-1.66,-1.6951,-1.6998,-1.6794,-1.7032,-1.7007,-1.6827,-1.7012,-1.7119,-1.7119,-1.7139,-1.7282,-1.7326,-1.7133,-1.6948,-1.6744,-1.6443,-1.6408,-1.7287,-1.7926,-1.8693,-1.9966,-2.1397,-2.2729,-2.3721,-2.4622,-2.5273,-2.5625,-2.5293,-2.5037,-2.499,-2.4988,-2.5028,-2.5156,-2.5439,-2.5488,-2.5137,-2.5059,-2.4808,-2.4285,-2.4033,-2.4048,-2.4359,-2.5475,-2.6678,-2.7139,-2.855,-2.9789,-2.9842,-2.9854,-2.9867,-2.9842,-2.9854,-3.008,-3.0997,-3.1373,-3.21,-2.2866,-2.2866,-2.2866,-2.2692,-2.2372,-2.1924,-2.1728,-2.1594,-2.1243,-2.1102,-2.1102,-2.1102,-2.1102,-2.1102,-2.1102,-2.1102,-2.1062,-2.0501,-2.0173,-2.018,-2.0316,-2.0314,-2.0364,-2.0873,-2.1209,-2.1094,-1.996,-1.9661,-1.982,-1.8443,-1.7891,-1.8349,-1.8401,-1.8708,-1.9265,-1.9265,-1.8961,-1.8454,-1.8401,-1.8494,-1.8627,-1.9083,-1.9142,-1.8707,-1.8512,-1.7863,-1.6716,-1.6574,-1.6346,-1.5872,-1.5825,-1.5825,-1.5825,-1.5825,-1.5825,-1.5784,-1.5939,-1.6139,-1.6433,-1.6567,-1.6777,-1.6941,-1.7132,-1.7206,-1.7221,-1.7341,-1.7454,-1.7454,-1.7454,-1.7393,-1.7199,-1.6887,-1.6593,-1.6299,-1.6005,-1.6069,-1.648,-1.6734,-1.7706,-2.0066,-2.1099,-2.2467,-2.4245,-2.5121,-2.5499,-2.5577,-2.5166,-2.4727,-2.4678,-2.4473,-2.4434,-2.4678,-2.5059,-2.5117,-2.4805,-2.4687,-2.4307,-2.3691,-2.3364,-2.3247,-2.3466,-2.4978,-2.6472,-2.6483,-2.8291,-2.9573,-2.9792,-2.9779,-2.9779,-2.9779,-2.9792,-2.9967,-3.0369,-3.0708,-3.1278,-2.2866,-2.2921,-2.2847,-2.2525,-2.2151,-2.1802,-2.1574,-2.1416,-2.1203,-2.1102,-2.1102,-2.1102,-2.1102,-2.1102,-2.1102,-2.1069,-2.0935,-2.0461,-2.0127,-2.0067,-1.9599,-1.9424,-1.9424,-1.9424,-1.9424,-1.933,-1.8827,-1.8452,-1.8217,-1.7822,-1.7589,-1.7589,-1.7589,-1.7589,-1.7589,-1.7589,-1.7589,-1.7641,-1.7589,-1.7534,-1.7461,-1.7872,-1.7957,-1.763,-1.7432,-1.6848,-1.5879,-1.5825,-1.5825,-1.5825,-1.5825,-1.5825,-1.5825,-1.5825,-1.5825,-1.5825,-1.5825,-1.5959,-1.6253,-1.6346,-1.6663,-1.7132,-1.7266,-1.7407,-1.7535,-1.7589,-1.7589,-1.7575,-1.7589,-1.7435,-1.7112,-1.6958,-1.673,-1.6326,-1.6119,-1.6142,-1.6443,-1.6518,-1.7871,-2.0554,-2.1505,-2.2522,-2.4985,-2.5664,-2.5645,-2.5421,-2.4902,-2.4346,-2.4248,-2.4014,-2.3965,-2.4355,-2.4795,-2.4932,-2.4648,-2.4512,-2.4072,-2.3584,-2.3266,-2.314,-2.3178,-2.4882,-2.6307,-2.6472,-2.8239,-2.9365,-2.9702,-2.9779,-2.9779,-2.9779,-2.9792,-2.9867,-3.0193,-3.0419,-3.0658,-2.2866,-2.2812,-2.2552,-2.2111,-2.1661,-2.1621,-2.139,-2.1156,-2.1122,-2.1102,-2.1102,-2.1102,-2.1102,-2.1102,-2.1102,-2.0962,-2.0688,-2.0381,-2.0087,-1.9833,-1.9578,-1.9424,-1.9424,-1.9424,-1.9424,-1.9383,-1.8804,-1.8243,-1.7716,-1.7609,-1.7589,-1.7589,-1.7589,-1.7589,-1.7589,-1.7589,-1.7589,-1.7589,-1.7589,-1.7569,-1.7574,-1.7371,-1.7062,-1.6569,-1.6399,-1.625,-1.5865,-1.5825,-1.5825,-1.5825,-1.5825,-1.5825,-1.5825,-1.5825,-1.5825,-1.5825,-1.5784,-1.5972,-1.6273,-1.654,-1.6827,-1.7186,-1.7454,-1.7562,-1.7575,-1.7589,-1.7589,-1.7589,-1.7589,-1.7368,-1.6914,-1.7032,-1.6911,-1.64,-1.6513,-1.6973,-1.7753,-1.7858,-1.947,-2.1298,-2.2381,-2.3623,-2.5402,-2.5684,-2.5537,-2.5195,-2.4707,-2.4297,-2.3955,-2.3818,-2.3935,-2.4297,-2.4697,-2.5086,-2.498,-2.4658,-2.4248,-2.3769,-2.3359,-2.3101,-2.3464,-2.4092,-2.5221,-2.6295,-2.7602,-2.8636,-2.9443,-2.9779,-2.9779,-2.9779,-2.9779,-2.9905,-3.0105,-3.0432,-3.0595,-2.2465,-2.2271,-2.1984,-2.1737,-2.1608,-2.1349,-2.1209,-2.1109,-2.1102,-2.1102,-2.1102,-2.1102,-2.1102,-2.1102,-2.1102,-2.0949,-2.0661,-2.0368,-2.0074,-1.9786,-1.9499,-1.9424,-1.9424,-1.9424,-1.9424,-1.9363,-1.8958,-1.8464,-1.7909,-1.7682,-1.7589,-1.7589,-1.7589,-1.7589,-1.7589,-1.7589,-1.7589,-1.7589,-1.7589,-1.7589,-1.7582,-1.7475,-1.728,-1.6898,-1.6516,-1.6132,-1.5838,-1.5825,-1.5825,-1.5825,-1.5825,-1.5825,-1.5825,-1.5825,-1.5825,-1.5845,-1.6005,-1.6239,-1.6526,-1.682,-1.7114,-1.7447,-1.7515,-1.7589,-1.7589,-1.7589,-1.7589,-1.7589,-1.7589,-1.7388,-1.7179,-1.7146,-1.7038,-1.666,-1.664,-1.683,-1.7091,-1.7211,-1.788,-1.975,-2.1764,-2.3899,-2.5198,-2.5684,-2.5557,-2.5127,-2.4687,-2.4248,-2.3857,-2.3574,-2.3545,-2.3916,-2.415,-2.4355,-2.4639,-2.4541,-2.4268,-2.3848,-2.3477,-2.3188,-2.3343,-2.4006,-2.5052,-2.5588,-2.6767,-2.8096,-2.8976,-2.965,-2.9663,-2.9779,-2.9779,-2.9854,-3.003,-3.0193,-3.0256,-2.2111,-2.1837,-2.1702,-2.1496,-2.139,-2.1196,-2.1102,-2.1102,-2.1102,-2.1102,-2.1102,-2.1102,-2.1102,-2.1102,-2.1102,-2.0955,-2.0661,-2.0368,-2.0074,-1.9786,-1.9499,-1.9424,-1.9424,-1.9424,-1.9424,-1.9357,-1.8965,-1.8524,-1.8009,-1.7736,-1.7595,-1.7589,-1.7589,-1.7589,-1.7589,-1.7589,-1.7589,-1.7589,-1.7589,-1.7589,-1.7589,-1.7589,-1.7494,-1.7179,-1.6723,-1.6279,-1.5985,-1.5885,-1.5825,-1.5825,-1.5825,-1.5825,-1.5825,-1.5825,-1.5824,-1.5985,-1.6201,-1.6496,-1.6851,-1.7092,-1.7326,-1.7549,-1.7589,-1.7589,-1.7589,-1.7589,-1.7589,-1.7589,-1.7635,-1.7534,-1.74,-1.7347,-1.7219,-1.6927,-1.6927,-1.6941,-1.6847,-1.6643,-1.745,-1.94,-2.1719,-2.3754,-2.5256,-2.5528,-2.5312,-2.4922,-2.4482,-2.4062,-2.3643,-2.3325,-2.3247,-2.3691,-2.3818,-2.4062,-2.4277,-2.4297,-2.415,-2.3779,-2.3428,-2.3179,-2.3222,-2.3963,-2.45,-2.5031,-2.6066,-2.7481,-2.8518,-2.9275,-2.9611,-2.974,-2.9779,-2.9829,-2.9867,-2.9817,-2.9942,-2.181,-2.1628,-2.1608,-2.1376,-2.1162,-2.1116,-2.1102,-2.1102,-2.1102,-2.1102,-2.1102,-2.1102,-2.1102,-2.1102,-2.1102,-2.0955,-2.0708,-2.0414,-2.0107,-1.9786,-1.9499,-1.9424,-1.9424,-1.9424,-1.9424,-1.9397,-1.8791,-1.8377,-1.8029,-1.7789,-1.7622,-1.7595,-1.7589,-1.7589,-1.7589,-1.7589,-1.7589,-1.7589,-1.7589,-1.7589,-1.7589,-1.7589,-1.7507,-1.7233,-1.6874,-1.6587,-1.6355,-1.5999,-1.5825,-1.5825,-1.5825,-1.5825,-1.5825,-1.5825,-1.5952,-1.6192,-1.6328,-1.6616,-1.7099,-1.7213,-1.7373,-1.7581,-1.7589,-1.7589,-1.7589,-1.7589,-1.7589,-1.7589,-1.7589,-1.7562,-1.7562,-1.7542,-1.7494,-1.7286,-1.7335,-1.7368,-1.7213,-1.6931,-1.7718,-2.0176,-2.1974,-2.3669,-2.5044,-2.5391,-2.498,-2.4502,-2.4111,-2.3721,-2.3305,-2.313,-2.334,-2.3603,-2.3691,-2.3769,-2.3945,-2.4072,-2.3906,-2.3701,-2.3389,-2.3101,-2.3101,-2.3551,-2.3844,-2.4382,-2.5755,-2.7168,-2.9028,-2.9663,-2.9702,-2.9779,-2.9779,-2.9779,-2.9779,-2.9779,-2.9779,-2.1516,-2.1256,-2.1249,-2.1196,-2.1109,-2.1102,-2.1102,-2.1102,-2.1102,-2.1102,-2.1102,-2.1102,-2.1102,-2.1102,-2.1102,-2.1056,-2.0949,-2.0661,-2.0281,-1.9826,-1.9506,-1.943,-1.9424,-1.9424,-1.9424,-1.9363,-1.8978,-1.8637,-1.835,-1.8043,-1.7809,-1.7622,-1.7589,-1.7589,-1.7589,-1.7589,-1.7589,-1.7589,-1.7589,-1.7589,-1.7589,-1.7589,-1.7588,-1.7435,-1.7168,-1.7012,-1.6898,-1.6206,-1.5845,-1.5838,-1.5825,-1.5825,-1.5832,-1.5825,-1.5972,-1.6246,-1.6466,-1.6727,-1.7146,-1.7387,-1.7527,-1.7615,-1.7589,-1.7589,-1.7589,-1.7589,-1.7589,-1.7589,-1.7589,-1.7589,-1.7589,-1.7589,-1.7588,-1.7507,-1.7522,-1.7535,-1.7407,-1.7001,-1.8051,-2.0192,-2.1207,-2.2556,-2.4536,-2.5078,-2.4736,-2.4141,-2.3867,-2.3594,-2.3218,-2.3101,-2.311,-2.3276,-2.3315,-2.3383,-2.351,-2.3633,-2.3555,-2.3486,-2.3247,-2.3101,-2.3101,-2.3135,-2.3387,-2.4178,-2.5515,-2.7046,-2.887,-2.9779,-2.9779,-2.9779,-2.9779,-2.9779,-2.9779,-2.9779,-2.9779,-2.1283,-2.1109,-2.1102,-2.1102,-2.1102,-2.1102,-2.1102,-2.1102,-2.1102,-2.1102,-2.1102,-2.1102,-2.1102,-2.1102,-2.1102,-2.1102,-2.1076,-2.0808,-2.0421,-1.9973,-1.9659,-1.9479,-1.9444,-1.9424,-1.9424,-1.937,-1.9065,-1.8831,-1.8637,-1.8189,-1.7889,-1.7782,-1.7649,-1.7589,-1.7589,-1.7589,-1.7589,-1.7589,-1.7589,-1.7589,-1.7589,-1.7589,-1.7589,-1.7594,-1.7353,-1.7213,-1.7152,-1.65,-1.6152,-1.6104,-1.6152,-1.6152,-1.6152,-1.6172,-1.6286,-1.656,-1.6824,-1.7052,-1.7333,-1.7482,-1.7589,-1.7589,-1.7589,-1.7589,-1.7589,-1.7589,-1.7589,-1.7589,-1.7589,-1.7589,-1.7589,-1.7589,-1.7589,-1.7589,-1.7582,-1.7482,-1.7295,-1.7041,-1.7967,-1.983,-2.067,-2.2125,-2.3956,-2.4629,-2.4414,-2.3877,-2.3643,-2.3496,-2.3169,-2.3101,-2.3101,-2.3101,-2.3149,-2.3169,-2.313,-2.314,-2.313,-2.3149,-2.314,-2.3101,-2.3101,-2.3135,-2.3299,-2.4349,-2.5557,-2.6789,-2.8518,-2.9443,-2.9779,-2.9779,-2.9779,-2.9779,-2.9779,-2.9779,-2.9779,-2.1109,-2.1102,-2.1102,-2.1102,-2.1102,-2.1102,-2.1102,-2.1102,-2.1102,-2.1102,-2.1102,-2.1102,-2.1102,-2.1102,-2.1102,-2.1102,-2.1056,-2.0862,-2.0541,-2.0214,-1.9933,-1.9679,-1.9406,-1.9424,-1.9424,-1.9377,-1.9098,-1.8951,-1.8851,-1.8362,-1.8015,-1.7935,-1.7769,-1.7595,-1.7595,-1.7589,-1.7589,-1.7589,-1.7589,-1.7589,-1.7589,-1.7589,-1.7589,-1.7621,-1.7393,-1.7259,-1.7213,-1.6914,-1.6727,-1.67,-1.6627,-1.6613,-1.6673,-1.67,-1.6774,-1.7085,-1.7186,-1.7326,-1.7495,-1.7569,-1.7589,-1.7589,-1.7589,-1.7589,-1.7589,-1.7589,-1.7589,-1.7589,-1.7589,-1.7589,-1.7589,-1.7589,-1.7589,-1.7589,-1.7589,-1.7361,-1.6874,-1.6974,-1.7996,-1.951,-2.0403,-2.1453,-2.3792,-2.39,-2.3887,-2.3672,-2.3408,-2.3188,-2.312,-2.3101,-2.3101,-2.3101,-2.3101,-2.3101,-2.3101,-2.3101,-2.3101,-2.3101,-2.3101,-2.3101,-2.3101,-2.3135,-2.3464,-2.451,-2.5515,-2.6737,-2.7936,-2.9028,-2.9663,-2.9779,-2.9779,-2.9779,-2.9779,-2.9779,-2.9779,-2.1102,-2.1102,-2.1102,-2.1102,-2.1102,-2.1102,-2.1102,-2.1102,-2.1102,-2.1102,-2.1102,-2.1102,-2.1102,-2.1102,-2.1102,-2.1102,-2.1076,-2.1022,-2.0695,-2.0281,-2.0167,-1.9826,-1.9452,-1.9424,-1.9424,-1.9403,-1.9265,-1.9145,-1.8931,-1.8738,-1.8395,-1.7995,-1.7909,-1.7789,-1.7622,-1.7589,-1.7589,-1.7589,-1.7589,-1.7589,-1.7589,-1.7589,-1.7589,-1.7575,-1.7502,-1.7514,-1.7521,-1.7402,-1.7121,-1.6734,-1.6707,-1.6707,-1.674,-1.6747,-1.6887,-1.7166,-1.7226,-1.7333,-1.7515,-1.7589,-1.7589,-1.7589,-1.7589,-1.7589,-1.7589,-1.7589,-1.7589,-1.7589,-1.7589,-1.7589,-1.7589,-1.7589,-1.7589,-1.7589,-1.7589,-1.7435,-1.7152,-1.6945,-1.7427,-1.8836,-1.9726,-2.093,-2.2317,-2.324,-2.3553,-2.3354,-2.3198,-2.3101,-2.3101,-2.3101,-2.3101,-2.3101,-2.3101,-2.3101,-2.3101,-2.3101,-2.3101,-2.3101,-2.3101,-2.3101,-2.3101,-2.3091,-2.3714,-2.4542,-2.5347,-2.6502,-2.7787,-2.8988,-2.9326,-2.9663,-2.9779,-2.9779,-2.9779,-2.9779,-2.9779,-2.1102,-2.1102,-2.1102,-2.1102,-2.1102,-2.1102,-2.1102,-2.1102,-2.1102,-2.1102,-2.1102,-2.1102,-2.1102,-2.1102,-2.1102,-2.1102,-2.1102,-2.1102,-2.0782,-2.0254,-1.996,-1.9666,-1.9419,-1.9424,-1.9424,-1.9424,-1.9424,-1.9272,-1.9112,-1.8991,-1.8664,-1.8297,-1.8049,-1.7889,-1.7602,-1.7589,-1.7589,-1.7589,-1.7589,-1.7589,-1.7589,-1.7589,-1.7589,-1.7589,-1.7589,-1.7589,-1.7582,-1.7582,-1.7408,-1.7148,-1.7081,-1.7074,-1.7074,-1.7081,-1.7154,-1.738,-1.738,-1.7467,-1.7535,-1.7589,-1.7589,-1.7589,-1.7589,-1.7589,-1.7589,-1.7589,-1.7589,-1.7589,-1.7589,-1.7589,-1.7589,-1.7589,-1.7589,-1.7589,-1.7589,-1.7514,-1.7233,-1.7058,-1.7488,-1.8339,-1.9039,-1.9994,-2.1584,-2.2435,-2.2821,-2.3047,-2.313,-2.3101,-2.3101,-2.3101,-2.3101,-2.3101,-2.3101,-2.3101,-2.3101,-2.3101,-2.3101,-2.3101,-2.3101,-2.3101,-2.3101,-2.3101,-2.342,-2.4168,-2.5136,-2.6182,-2.7371,-2.845,-2.9067,-2.9365,-2.9611,-2.9779,-2.9779,-2.9779,-2.9779,-2.1102,-2.1102,-2.1102,-2.1102,-2.1102,-2.1102,-2.1102,-2.1102,-2.1102,-2.1102,-2.1102,-2.1102,-2.1102,-2.1102,-2.1102,-2.1102,-2.1102,-2.1102,-2.0735,-2.0221,-1.9753,-1.945,-1.9444,-1.9424,-1.9424,-1.9424,-1.9424,-1.9417,-1.9272,-1.9085,-1.8831,-1.8537,-1.8202,-1.7949,-1.7722,-1.7622,-1.7589,-1.7589,-1.7589,-1.7589,-1.7589,-1.7589,-1.7589,-1.7589,-1.7589,-1.7589,-1.7589,-1.7589,-1.7555,-1.7575,-1.7589,-1.7528,-1.7542,-1.7562,-1.7562,-1.7549,-1.7535,-1.7503,-1.7411,-1.7364,-1.7424,-1.7312,-1.7417,-1.7589,-1.7589,-1.7589,-1.7589,-1.7589,-1.7589,-1.7589,-1.7589,-1.7589,-1.7589,-1.7589,-1.7589,-1.7455,-1.732,-1.7219,-1.7493,-1.83,-1.8237,-1.9573,-2.0763,-2.1708,-2.2026,-2.3266,-2.3227,-2.3101,-2.3101,-2.3101,-2.3101,-2.3101,-2.3101,-2.3101,-2.3101,-2.3101,-2.3101,-2.3101,-2.3101,-2.3101,-2.3101,-2.3101,-2.3101,-2.3681,-2.4978,-2.5891,-2.6637,-2.7585,-2.8661,-2.9326,-2.9702,-2.9779,-2.9779,-2.9779,-2.9779,-2.1102,-2.1102,-2.1102,-2.1102,-2.1102,-2.1102,-2.1102,-2.1102,-2.1102,-2.1102,-2.1102,-2.1102,-2.1102,-2.1102,-2.1102,-2.1102,-2.1096,-2.1056,-2.0788,-2.0214,-1.9639,-1.945,-1.9424,-1.9424,-1.9424,-1.9424,-1.9424,-1.9424,-1.9383,-1.9272,-1.9112,-1.8811,-1.8531,-1.8237,-1.7896,-1.7716,-1.7589,-1.7589,-1.7589,-1.7589,-1.7589,-1.7589,-1.7589,-1.7589,-1.7589,-1.7589,-1.7589,-1.7589,-1.7589,-1.7589,-1.7589,-1.7589,-1.7589,-1.7589,-1.7529,-1.7424,-1.7477,-1.7041,-1.634,-1.6823,-1.7094,-1.634,-1.7094,-1.7589,-1.7589,-1.7589,-1.7589,-1.7589,-1.7589,-1.7589,-1.7589,-1.7589,-1.7589,-1.7589,-1.7582,-1.7555,-1.7462,-1.7347,-1.7391,-1.777,-1.895,-2.0262,-2.0875,-2.2447,-2.2934,-2.3479,-2.3418,-2.3149,-2.3101,-2.3101,-2.3101,-2.3101,-2.3101,-2.3101,-2.3101,-2.3101,-2.3101,-2.3101,-2.3101,-2.3101,-2.3101,-2.3101,-2.3101,-2.3844,-2.501,-2.5766,-2.6265,-2.7747,-2.8988,-2.9404,-2.9779,-2.9779,-2.9779,-2.9779,-2.9905,-2.1102,-2.1102,-2.1102,-2.1102,-2.1102,-2.1102,-2.1102,-2.1102,-2.1102,-2.1102,-2.1102,-2.1102,-2.1102,-2.1102,-2.1102,-2.1102,-2.1022,-2.0802,-2.0473,-2.0134,-1.9659,-1.9437,-1.9424,-1.9424,-1.9424,-1.9424,-1.9424,-1.9424,-1.9424,-1.9403,-1.9205,-1.8945,-1.8764,-1.8444,-1.8049,-1.7869,-1.7729,-1.7609,-1.7589,-1.7589,-1.7589,-1.7589,-1.7589,-1.7589,-1.7589,-1.7589,-1.7589,-1.7589,-1.7589,-1.7589,-1.7589,-1.7589,-1.7589,-1.7589,-1.7305,-1.6658,-1.6552,-1.628,-1.5849,-1.6068,-1.6552,-1.644,-1.7199,-1.7424,-1.7589,-1.7589,-1.7589,-1.7589,-1.7589,-1.7589,-1.7589,-1.7589,-1.7589,-1.7589,-1.7589,-1.7589,-1.7608,-1.7494,-1.7407,-1.7702,-1.8838,-1.9951,-2.1097,-2.259,-2.3374,-2.3648,-2.3711,-2.3477,-2.3101,-2.3101,-2.3101,-2.3101,-2.3101,-2.3101,-2.3101,-2.3101,-2.3101,-2.3101,-2.3101,-2.3101,-2.3101,-2.3101,-2.3101,-2.3887,-2.4553,-2.5389,-2.6099,-2.7706,-2.8949,-2.9495,-2.9753,-2.9779,-2.988,-3.0043,-3.0193,-2.1102,-2.1102,-2.1102,-2.1102,-2.1102,-2.1102,-2.1102,-2.1102,-2.1102,-2.1102,-2.1102,-2.1102,-2.1102,-2.1102,-2.1102,-2.1102,-2.0969,-2.0621,-2.0361,-2.0167,-1.9726,-1.9524,-1.9457,-1.9424,-1.9424,-1.9424,-1.9424,-1.9424,-1.9424,-1.941,-1.9259,-1.9025,-1.8931,-1.8637,-1.8175,-1.7989,-1.7876,-1.7629,-1.7589,-1.7589,-1.7589,-1.7589,-1.7589,-1.7589,-1.7589,-1.7589,-1.7589,-1.7589,-1.7589,-1.7589,-1.7589,-1.7589,-1.7589,-1.7529,-1.7147,-1.5849,-1.5796,-1.5524,-1.547,-1.5577,-1.6009,-1.7252,-1.7529,-1.7582,-1.7589,-1.7589,-1.7589,-1.7589,-1.7589,-1.7589,-1.7589,-1.7589,-1.7589,-1.7589,-1.7589,-1.7589,-1.7589,-1.7589,-1.7555,-1.7777,-1.9125,-2.0524,-2.1418,-2.2586,-2.3196,-2.3789,-2.3855,-2.375,-2.3428,-2.3179,-2.3227,-2.311,-2.3101,-2.333,-2.3369,-2.3418,-2.3389,-2.3432,-2.3364,-2.3364,-2.3335,-2.3325,-2.3389,-2.3261,-2.3854,-2.4787,-2.583,-2.7075,-2.8239,-2.9209,-2.9778,-2.9854,-3.0055,-3.0319,-3.052,-2.1102,-2.1102,-2.1102,-2.1102,-2.1102,-2.1102,-2.1102,-2.1102,-2.1102,-2.1102,-2.1102,-2.1102,-2.1102,-2.1102,-2.1102,-2.1102,-2.1015,-2.0708,-2.0441,-2.0221,-1.9846,-1.9606,-1.945,-1.9424,-1.9424,-1.9424,-1.9424,-1.9424,-1.9424,-1.9417,-1.9319,-1.9239,-1.9065,-1.8744,-1.845,-1.8122,-1.7936,-1.7682,-1.7609,-1.7582,-1.7371,-1.7364,-1.7529,-1.7529,-1.7589,-1.7589,-1.7589,-1.7589,-1.7589,-1.7589,-1.7589,-1.7589,-1.7589,-1.7589,-1.7364,-1.677,-1.5902,-1.5417,-1.5417,-1.5417,-1.5524,-1.6009,-1.6929,-1.7582,-1.7589,-1.7589,-1.7589,-1.7589,-1.7589,-1.7589,-1.7589,-1.7589,-1.7589,-1.7589,-1.7589,-1.7589,-1.7589,-1.7589,-1.7589,-1.7726,-1.9501,-2.1216,-2.1852,-2.2691,-2.3747,-2.4245,-2.4358,-2.4141,-2.3779,-2.3613,-2.3574,-2.3335,-2.3101,-2.3398,-2.3643,-2.373,-2.3789,-2.4014,-2.4033,-2.4023,-2.3965,-2.3809,-2.3726,-2.3614,-2.3847,-2.4655,-2.5665,-2.6636,-2.7731,-2.8851,-2.9401,-2.9902,-3.0382,-3.0783,-3.0984,-2.1102,-2.1102,-2.1102,-2.1102,-2.1102,-2.1102,-2.1102,-2.1102,-2.1102,-2.1102,-2.1102,-2.1102,-2.1102,-2.1102,-2.1102,-2.1102,-2.1029,-2.0808,-2.0521,-2.0227,-1.9933,-1.9646,-1.945,-1.9424,-1.9424,-1.9424,-1.9424,-1.9424,-1.9424,-1.9424,-1.9424,-1.9332,-1.9205,-1.9011,-1.8718,-1.843,-1.8123,-1.7869,-1.7622,-1.7206,-1.6605,-1.6499,-1.6823,-1.747,-1.7589,-1.7589,-1.7589,-1.7589,-1.7589,-1.7589,-1.7589,-1.7589,-1.7589,-1.7529,-1.7252,-1.6605,-1.5849,-1.5417,-1.5417,-1.547,-1.5737,-1.6552,-1.7265,-1.7529,-1.7589,-1.7589,-1.7595,-1.7589,-1.7589,-1.7589,-1.7589,-1.7589,-1.7589,-1.7589,-1.7589,-1.7589,-1.7589,-1.7589,-1.7589,-1.7687,-1.9036,-2.0535,-2.1803,-2.2857,-2.4245,-2.4755,-2.4836,-2.4551,-2.417,-2.4062,-2.3984,-2.3828,-2.3598,-2.3799,-2.4033,-2.4102,-2.4238,-2.4463,-2.458,-2.458,-2.4463,-2.4258,-2.4121,-2.3994,-2.4385,-2.4712,-2.548,-2.6422,-2.7468,-2.8516,-2.9198,-2.9955,-3.073,-3.1235,-3.1449,-2.1102,-2.1102,-2.1102,-2.1102,-2.1102,-2.1102,-2.1102,-2.1102,-2.1102,-2.1102,-2.1102,-2.1102,-2.1102,-2.1102,-2.1102,-2.1102,-2.1082,-2.0855,-2.0595,-2.0241,-2.002,-1.9733,-1.9504,-1.9424,-1.9424,-1.9424,-1.9424,-1.9424,-1.9424,-1.9424,-1.9424,-1.9417,-1.9359,-1.9219,-1.8905,-1.8677,-1.8397,-1.7955,-1.7381,-1.658,-1.5755,-1.5743,-1.634,-1.747,-1.7589,-1.7589,-1.7589,-1.7589,-1.7589,-1.7589,-1.7589,-1.7589,-1.7589,-1.7589,-1.7041,-1.6068,-1.563,-1.5524,-1.5796,-1.547,-1.5986,-1.733,-1.7583,-1.7716,-1.7769,-1.7789,-1.7669,-1.7609,-1.7589,-1.7589,-1.7589,-1.7589,-1.7589,-1.7589,-1.7589,-1.7589,-1.7589,-1.7589,-1.7589,-1.7996,-1.876,-1.993,-2.1338,-2.29,-2.4238,-2.5102,-2.5254,-2.5,-2.4658,-2.457,-2.4482,-2.4365,-2.4287,-2.4346,-2.4473,-2.4531,-2.4697,-2.4932,-2.4953,-2.4962,-2.4853,-2.4658,-2.458,-2.4551,-2.4401,-2.4776,-2.5492,-2.6159,-2.7097,-2.8054,-2.9051,-3.0116,-3.1137,-3.1709,-3.1964,-2.1102,-2.1102,-2.1102,-2.1102,-2.1102,-2.1102,-2.1102,-2.1102,-2.1102,-2.1102,-2.1102,-2.1102,-2.1102,-2.1102,-2.1102,-2.1102,-2.1089,-2.1029,-2.0748,-2.0327,-2.0167,-1.9867,-1.9504,-1.943,-1.9424,-1.9424,-1.9424,-1.9424,-1.9424,-1.9424,-1.9424,-1.9424,-1.9403,-1.9232,-1.9005,-1.8865,-1.8591,-1.7871,-1.6725,-1.5862,-1.569,-1.6511,-1.7094,-1.7371,-1.7609,-1.7496,-1.7444,-1.745,-1.7622,-1.7589,-1.7595,-1.7589,-1.7589,-1.7589,-1.7582,-1.6988,-1.6393,-1.5956,-1.6776,-1.628,-1.6232,-1.7588,-1.7896,-1.8123,-1.817,-1.8083,-1.7889,-1.7595,-1.7622,-1.7635,-1.7655,-1.7609,-1.7595,-1.7589,-1.7589,-1.7589,-1.7589,-1.7589,-1.7589,-1.7641,-1.8199,-1.9627,-2.1092,-2.2667,-2.4128,-2.4973,-2.5605,-2.5342,-2.5156,-2.5049,-2.4951,-2.4834,-2.4795,-2.4863,-2.4932,-2.498,-2.5078,-2.5284,-2.5304,-2.5323,-2.5206,-2.5127,-2.5234,-2.5166,-2.4951,-2.4756,-2.5212,-2.5895,-2.6715,-2.7833,-2.9054,-3.0414,-3.1801,-3.2181,-3.2453,-2.1102,-2.1102,-2.1102,-2.1102,-2.1102,-2.1102,-2.1102,-2.1102,-2.1102,-2.1102,-2.1102,-2.1102,-2.1102,-2.1102,-2.1102,-2.1102,-2.1102,-2.1102,-2.0889,-2.0488,-2.0287,-2.0013,-1.9666,-1.9511,-1.9424,-1.9424,-1.9424,-1.9424,-1.9424,-1.9366,-1.9424,-1.9424,-1.9366,-1.9332,-1.8953,-1.8941,-1.817,-1.7024,-1.5649,-1.4987,-1.552,-1.6053,-1.6393,-1.6405,-1.7269,-1.7143,-1.6747,-1.7449,-1.7676,-1.7682,-1.7722,-1.7749,-1.7736,-1.7862,-1.805,-1.7749,-1.7469,-1.733,-1.743,-1.6955,-1.7248,-1.7633,-1.8022,-1.8156,-1.8377,-1.8384,-1.8263,-1.813,-1.8103,-1.8016,-1.7876,-1.7849,-1.7722,-1.7669,-1.7682,-1.7629,-1.7629,-1.7589,-1.7589,-1.7589,-1.7793,-1.9169,-2.0487,-2.1853,-2.3484,-2.4952,-2.5548,-2.5576,-2.5488,-2.543,-2.5343,-2.5255,-2.5245,-2.5274,-2.5343,-2.5449,-2.541,-2.5518,-2.5518,-2.5538,-2.5567,-2.5557,-2.5605,-2.5605,-2.5439,-2.5264,-2.5174,-2.5654,-2.6512,-2.7798,-2.9148,-3.0521,-3.1865,-3.2612,-3.283,-2.1102,-2.1102,-2.1102,-2.1102,-2.1102,-2.1102,-2.1102,-2.1102,-2.1102,-2.1102,-2.1102,-2.1102,-2.1102,-2.1102,-2.1102,-2.1102,-2.1102,-2.1102,-2.0929,-2.0661,-2.0374,-2.008,-1.9766,-1.9526,-1.9424,-1.9424,-1.9424,-1.9424,-1.9243,-1.9004,-1.8823,-1.9307,-1.8765,-1.87,-1.8706,-1.8275,-1.7398,-1.5106,-1.4204,-1.4267,-1.4933,-1.5019,-1.5327,-1.5741,-1.6266,-1.6314,-1.5458,-1.5945,-1.661,-1.7235,-1.7252,-1.7386,-1.7814,-1.819,-1.8317,-1.821,-1.809,-1.8086,-1.8003,-1.7802,-1.7989,-1.8115,-1.8282,-1.8544,-1.8564,-1.8604,-1.8531,-1.8437,-1.8424,-1.8323,-1.8223,-1.8102,-1.8083,-1.7969,-1.7889,-1.7789,-1.7729,-1.7756,-1.7689,-1.7589,-1.7845,-1.8401,-1.9723,-2.099,-2.2667,-2.4618,-2.5382,-2.5635,-2.5674,-2.5664,-2.5606,-2.5489,-2.5499,-2.5508,-2.5567,-2.5645,-2.5674,-2.5684,-2.5684,-2.5674,-2.5664,-2.5664,-2.5645,-2.5664,-2.5684,-2.5596,-2.542,-2.5866,-2.637,-2.7904,-2.9342,-3.0568,-3.1728,-3.2612,-3.3124,-2.1102,-2.1102,-2.1102,-2.1102,-2.1102,-2.1102,-2.1102,-2.1102,-2.1102,-2.1102,-2.1102,-2.1102,-2.1102,-2.1102,-2.1102,-2.1102,-2.1102,-2.1102,-2.0949,-2.0688,-2.0368,-2.01,-1.9826,-1.9579,-1.9424,-1.9424,-1.9424,-1.9424,-1.8946,-1.7689,-1.8227,-1.9004,-1.787,-1.7331,-1.7079,-1.6903,-1.5434,-1.3654,-1.3112,-1.352,-1.3896,-1.4071,-1.4494,-1.5244,-1.4716,-1.3938,-1.381,-1.4445,-1.5266,-1.6396,-1.6524,-1.7252,-1.8097,-1.8517,-1.8571,-1.8517,-1.8564,-1.8544,-1.8444,-1.8357,-1.8537,-1.8818,-1.8998,-1.9011,-1.8911,-1.8898,-1.8784,-1.8624,-1.8671,-1.8571,-1.8497,-1.845,-1.841,-1.829,-1.8176,-1.8123,-1.8063,-1.8023,-1.7929,-1.7682,-1.7918,-1.8426,-1.9465,-2.0837,-2.2206,-2.4106,-2.5382,-2.5684,-2.5684,-2.5674,-2.5674,-2.5635,-2.5635,-2.5645,-2.5654,-2.5684,-2.5684,-2.5684,-2.5684,-2.5684,-2.5674,-2.5684,-2.5693,-2.5684,-2.5684,-2.5684,-2.5684,-2.5868,-2.6514,-2.8132,-2.9498,-3.0508,-3.1745,-3.2797,-3.3124,-2.1102,-2.1102,-2.1102,-2.1102,-2.1102,-2.1102,-2.1102,-2.1102,-2.1102,-2.1102,-2.1102,-2.1102,-2.1102,-2.1102,-2.1102,-2.1102,-2.1102,-2.1102,-2.1015,-2.0815,-2.0494,-2.0201,-1.9927,-1.9646,-1.9424,-1.9424,-1.9424,-1.9424,-1.9185,-1.6915,-1.7572,-1.787,-1.6615,-1.6615,-1.6256,-1.5128,-1.3347,-1.2735,-1.234,-1.2583,-1.2725,-1.3355,-1.3576,-1.3074,-1.5465,-1.4028,-1.3108,-1.4578,-1.5399,-1.5891,-1.6085,-1.6978,-1.7996,-1.8479,-1.8645,-1.8635,-1.8708,-1.8901,-1.8898,-1.8738,-1.8631,-1.8905,-1.9165,-1.9312,-1.9165,-1.9185,-1.9158,-1.9065,-1.9048,-1.8918,-1.8771,-1.8751,-1.8704,-1.8564,-1.849,-1.8457,-1.839,-1.8337,-1.819,-1.7956,-1.8056,-1.8388,-1.9554,-2.0837,-2.2165,-2.3592,-2.4766,-2.5684,-2.5693,-2.5752,-2.5791,-2.5849,-2.5879,-2.5801,-2.5791,-2.5752,-2.5703,-2.5713,-2.5732,-2.581,-2.5849,-2.5703,-2.5703,-2.5693,-2.5762,-2.583,-2.583,-2.5723,-2.6506,-2.7967,-2.9163,-3.0226,-3.1512,-3.2909,-3.3312,-2.1102,-2.1102,-2.1102,-2.1102,-2.1102,-2.1102,-2.1102,-2.1102,-2.1102,-2.1102,-2.1102,-2.1102,-2.1102,-2.1102,-2.1102,-2.1102,-2.1102,-2.1102,-2.1102,-2.0915,-2.0641,-2.0347,-2.0094,-1.98,-1.9486,-1.9464,-1.9366,-1.9307,-1.8402,-1.5849,-1.6497,-1.6791,-1.5306,-1.4594,-1.5128,-1.3287,-1.1499,-1.1399,-1.1339,-1.1612,-1.1938,-1.2143,-1.2646,-1.1858,-1.3362,-1.2953,-1.185,-1.2655,-1.3936,-1.4482,-1.5014,-1.5838,-1.6869,-1.7708,-1.807,-1.8314,-1.8564,-1.8881,-1.9123,-1.9078,-1.8844,-1.9098,-1.9232,-1.941,-1.9424,-1.9424,-1.9357,-1.9377,-1.9383,-1.9279,-1.9045,-1.9045,-1.9025,-1.8918,-1.8898,-1.8851,-1.8698,-1.8604,-1.843,-1.8237,-1.8428,-1.8692,-2.0416,-2.1778,-2.3305,-2.4371,-2.4971,-2.5703,-2.5723,-2.582,-2.6035,-2.6113,-2.6201,-2.6044,-2.5937,-2.6035,-2.6074,-2.6055,-2.6084,-2.6162,-2.6162,-2.6035,-2.6044,-2.6249,-2.6269,-2.6162,-2.6142,-2.6259,-2.6821,-2.7671,-2.916,-3.0927,-3.1376,-3.2689,-3.3576,-2.1102,-2.1102,-2.1102,-2.1102,-2.1102,-2.1102,-2.1102,-2.1102,-2.1102,-2.1102,-2.1102,-2.1102,-2.1102,-2.1102,-2.1102,-2.1102,-2.1102,-2.1102,-2.1102,-2.1002,-2.0755,-2.0494,-2.0201,-1.9893,-1.9579,-1.947,-1.9307,-1.8706,-1.7267,-1.5488,-1.5902,-1.5424,-1.3522,-1.1976,-1.4123,-1.1495,-1.0001,-0.9876,-0.9983,-1.0808,-1.1331,-1.0883,-1.1048,-1.1407,-1.1599,-1.1168,-1.0752,-1.1108,-1.2294,-1.2949,-1.3008,-1.3848,-1.5114,-1.5542,-1.618,-1.7178,-1.736,-1.8046,-1.9165,-1.9332,-1.9299,-1.9279,-1.9403,-1.9417,-1.9424,-1.9424,-1.9424,-1.9424,-1.9424,-1.9424,-1.939,-1.9325,-1.9272,-1.9239,-1.9199,-1.9152,-1.8991,-1.8911,-1.8751,-1.8717,-1.8767,-1.9222,-2.1171,-2.2917,-2.4545,-2.5429,-2.5595,-2.5752,-2.5888,-2.6044,-2.6338,-2.6416,-2.6514,-2.6484,-2.6406,-2.6387,-2.6396,-2.6377,-2.6396,-2.6484,-2.6602,-2.6631,-2.6728,-2.6885,-2.6777,-2.6572,-2.6758,-2.6922,-2.7352,-2.8015,-3.0421,-3.1973,-3.2137,-3.2567,-3.367,-2.1102,-2.1102,-2.1102,-2.1102,-2.1102,-2.1102,-2.1102,-2.1102,-2.1102,-2.1102,-2.1102,-2.1102,-2.1102,-2.1102,-2.1102,-2.1102,-2.1102,-2.1102,-2.1102,-2.1069,-2.0828,-2.0514,-2.0227,-1.9953,-1.9659,-1.9497,-1.9301,-1.8583,-1.7026,-1.537,-1.4837,-1.4361,-1.2749,-1.1555,-1.1257,-1.0061,-0.9819,-0.9819,-0.9876,-1.0119,-1.0482,-1.0122,-1.0061,-1.0721,-1.0959,-1.0721,-0.9943,-1.0482,-1.1318,-1.192,-1.1976,-1.2753,-1.4242,-1.4896,-1.6138,-1.7144,-1.7624,-1.8765,-1.9307,-1.9417,-1.9417,-1.9424,-1.9424,-1.9424,-1.9424,-1.9424,-1.9424,-1.9424,-1.9424,-1.9424,-1.9417,-1.941,-1.9383,-1.939,-1.9363,-1.9305,-1.9225,-1.9212,-1.9176,-1.9337,-1.9431,-2.1082,-2.2943,-2.4368,-2.5919,-2.642,-2.653,-2.6444,-2.6562,-2.6641,-2.6797,-2.6807,-2.6855,-2.6865,-2.6846,-2.6826,-2.6807,-2.6807,-2.6807,-2.6826,-2.6963,-2.7158,-2.7119,-2.7148,-2.707,-2.7012,-2.7187,-2.7324,-2.7518,-2.8523,-3.0488,-3.2035,-3.2405,-3.3074,-3.4239,-2.1102,-2.1102,-2.1102,-2.1102,-2.1102,-2.1102,-2.1102,-2.1102,-2.1102,-2.1102,-2.1102,-2.1102,-2.1102,-2.1102,-2.1102,-2.1102,-2.1102,-2.1102,-2.1102,-2.1082,-2.0935,-2.0608,-2.0281,-2.0013,-1.974,-1.9486,-1.9127,-1.8409,-1.6085,-1.5079,-1.3944,-1.2873,-1.2457,-1.1318,-1.0482,-0.9879,-0.9819,-0.9819,-0.9819,-0.9819,-0.994,-0.9819,-0.9819,-1.0183,-1.0482,-1.0781,-1.0361,-1.066,-1.1378,-1.1438,-1.1619,-1.1916,-1.3168,-1.4356,-1.5542,-1.6374,-1.8169,-1.9068,-1.9424,-1.9424,-1.9424,-1.9424,-1.9424,-1.9424,-1.9424,-1.9424,-1.9424,-1.9424,-1.9424,-1.9424,-1.9424,-1.9424,-1.9424,-1.9424,-1.9424,-1.9417,-1.941,-1.9332,-1.937,-1.9549,-2.0132,-2.2159,-2.4383,-2.597,-2.7331,-2.7396,-2.7451,-2.7305,-2.7148,-2.7187,-2.7236,-2.7256,-2.7314,-2.7383,-2.7344,-2.7256,-2.7246,-2.7246,-2.7246,-2.7246,-2.749,-2.7705,-2.7559,-2.7461,-2.7549,-2.7607,-2.7598,-2.7708,-2.7839,-2.8413,-2.9679,-3.1075,-3.2264,-3.3598,-3.4794,-2.1102,-2.1102,-2.1102,-2.1102,-2.1102,-2.1102,-2.1102,-2.1102,-2.1102,-2.1102,-2.1102,-2.1102,-2.1102,-2.1102,-2.1102,-2.1102,-2.1102,-2.1102,-2.1102,-2.1076,-2.0982,-2.0648,-2.0361,-2.0127,-1.978,-1.9506,-1.8887,-1.7455,-1.4901,-1.3706,-1.2273,-1.108,-1.1378,-1.0781,-1.0119,-0.9819,-0.9819,-0.9819,-0.9819,-0.9819,-0.9819,-0.9819,-0.9819,-0.994,-1.0061,-1.0122,-0.9879,-1.0119,-1.0119,-1.0061,-1.0001,-1.0001,-1.0479,-1.1495,-1.3048,-1.5252,-1.8117,-1.8952,-1.9424,-1.9424,-1.9424,-1.9424,-1.9424,-1.9424,-1.9424,-1.9424,-1.9424,-1.9424,-1.9424,-1.9424,-1.9424,-1.9424,-1.9424,-1.9424,-1.9424,-1.9424,-1.9424,-1.9417,-1.9417,-1.9639,-2.0078,-2.1782,-2.4331,-2.6235,-2.792,-2.7949,-2.7861,-2.7725,-2.7607,-2.7627,-2.7666,-2.7715,-2.7793,-2.7939,-2.7871,-2.7695,-2.7685,-2.7676,-2.7695,-2.7734,-2.8008,-2.8125,-2.7978,-2.7939,-2.8144,-2.8184,-2.7998,-2.8027,-2.8164,-2.8856,-2.9539,-3.0372,-3.1639,-3.4054,-3.5414,-2.1102,-2.1102,-2.1102,-2.1102,-2.1102,-2.1102,-2.1102,-2.1102,-2.1102,-2.1102,-2.1102,-2.1102,-2.1102,-2.1102,-2.1102,-2.1102,-2.1102,-2.1102,-2.1102,-2.1049,-2.0909,-2.0575,-2.0287,-2.002,-1.9706,-1.9128,-1.8169,-1.6791,-1.448,-1.2868,-1.1257,-1.0183,-1.0418,-1.0179,-1.0001,-0.9819,-0.9819,-0.9819,-0.9819,-0.9819,-0.9819,-0.9819,-0.9819,-0.9819,-0.9819,-0.9819,-0.9819,-0.9819,-0.9819,-0.9819,-0.9819,-0.9819,-0.994,-1.2393,-1.4901,-1.7695,-1.9068,-1.9424,-1.9424,-1.9424,-1.9424,-1.9424,-1.9424,-1.9424,-1.9424,-1.9424,-1.9424,-1.9424,-1.9424,-1.9424,-1.9424,-1.9424,-1.9424,-1.9424,-1.9424,-1.9424,-1.9424,-1.9424,-1.9482,-2.0097,-2.0544,-2.2548,-2.4994,-2.6698,-2.8135,-2.8242,-2.8232,-2.8076,-2.7988,-2.7978,-2.7988,-2.8027,-2.8066,-2.8144,-2.8193,-2.8057,-2.8096,-2.8115,-2.8076,-2.8047,-2.8144,-2.8232,-2.8281,-2.8301,-2.8301,-2.8301,-2.8262,-2.8301,-2.8301,-2.8708,-2.9316,-3.0078,-3.1195,-3.3434,-3.5029,-2.1102,-2.1102,-2.1102,-2.1102,-2.1102,-2.1102,-2.1102,-2.1102,-2.1102,-2.1102,-2.1102,-2.1102,-2.1102,-2.1102,-2.1102,-2.1102,-2.1102,-2.1096,-2.1049,-2.0855,-2.0748,-2.0414,-2.012,-1.9873,-1.9653,-1.892,-1.7747,-1.6321,-1.4059,-1.1615,-0.9819,-0.9822,-0.9819,-0.9819,-0.9819,-0.9819,-0.9819,-0.9819,-0.9819,-0.9819,-0.9819,-0.9819,-0.9819,-0.9819,-0.9819,-0.9819,-0.9819,-0.9819,-0.9819,-0.9819,-0.9819,-1.0179,-1.1016,-1.382,-1.638,-1.8765,-1.9307,-1.9424,-1.9424,-1.9424,-1.9424,-1.9424,-1.9424,-1.9424,-1.9424,-1.9424,-1.9424,-1.9424,-1.9424,-1.9424,-1.9424,-1.9424,-1.9424,-1.9424,-1.9424,-1.9424,-1.9424,-1.9424,-1.9924,-2.0594,-2.2047,-2.3989,-2.5827,-2.734,-2.8301,-2.8301,-2.8301,-2.8242,-2.8174,-2.8174,-2.8174,-2.8193,-2.8223,-2.8262,-2.8301,-2.8301,-2.8262,-2.8232,-2.8223,-2.8223,-2.8301,-2.8301,-2.8301,-2.8301,-2.8301,-2.831,-2.834,-2.8301,-2.8344,-2.8757,-2.8996,-2.9389,-3.0433,-3.2222,-3.3456,-2.1102,-2.1102,-2.1102,-2.1102,-2.1102,-2.1102,-2.1102,-2.1102,-2.1102,-2.1102,-2.1102,-2.1102,-2.1102,-2.1102,-2.1102,-2.1102,-2.1102,-2.1102,-2.0962,-2.0737,-2.0601,-2.0321,-1.9973,-1.9753,-1.9311,-1.8706,-1.7331,-1.5246,-1.3581,-1.1378,-0.9819,-0.9819,-0.9819,-0.9819,-0.9819,-0.9819,-0.9819,-0.9819,-0.9819,-0.9819,-0.9819,-0.9819,-0.9819,-0.9819,-0.9819,-0.9819,-0.9819,-0.9819,-0.9819,-0.9819,-1.0001,-1.0539,-1.2808,-1.5004,-1.7384,-1.8765,-1.9366,-1.9424,-1.9424,-1.9424,-1.9424,-1.9424,-1.9424,-1.9424,-1.9424,-1.9424,-1.9424,-1.9424,-1.9424,-1.9424,-1.9424,-1.9424,-1.9424,-1.9424,-1.9424,-1.9424,-1.9424,-1.9533,-2.004,-2.0931,-2.2484,-2.4378,-2.5882,-2.734,-2.8291,-2.8301,-2.8301,-2.8301,-2.8301,-2.8301,-2.8301,-2.8301,-2.8301,-2.8301,-2.8301,-2.8301,-2.8301,-2.8291,-2.8301,-2.8301,-2.8301,-2.8301,-2.8301,-2.8301,-2.8301,-2.8369,-2.8389,-2.8437,-2.8535,-2.876,-2.8873,-2.8746,-2.9819,-3.1413,-3.2182,-2.1102,-2.1102,-2.1102,-2.1102,-2.1102,-2.1102,-2.1102,-2.1102,-2.1102,-2.1102,-2.1102,-2.1102,-2.1102,-2.1102,-2.1102,-2.1096,-2.1082,-2.1076,-2.0929,-2.0641,-2.0454,-2.0174,-1.98,-1.9586,-1.8849,-1.7361,-1.5779,-1.388,-1.1675,-1.0301,-0.9819,-0.9819,-0.9819,-0.9819,-0.9819,-0.9819,-0.9819,-0.9819,-0.9819,-0.9819,-0.9819,-0.9819,-0.9819,-0.9819,-0.9819,-0.9819,-0.9819,-0.9819,-0.9819,-0.9819,-0.9819,-1.1318,-1.3885,-1.5956,-1.7683,-1.9004,-1.9424,-1.9424,-1.9424,-1.9424,-1.9424,-1.9424,-1.9424,-1.9424,-1.9424,-1.9424,-1.9424,-1.9424,-1.9424,-1.9424,-1.9424,-1.9424,-1.9424,-1.9424,-1.9424,-1.9424,-1.9424,-1.9758,-2.0148,-2.1536,-2.2983,-2.4433,-2.5991,-2.7105,-2.796,-2.8301,-2.8301,-2.8301,-2.8301,-2.8301,-2.8301,-2.8301,-2.8301,-2.8301,-2.8301,-2.8301,-2.8301,-2.8301,-2.8301,-2.8301,-2.832,-2.8467,-2.8584,-2.8369,-2.831,-2.8535,-2.8721,-2.8769,-2.8877,-2.8984,-2.9092,-2.9121,-2.9346,-3.062,-3.1236,-2.1102,-2.1102,-2.1102,-2.1102,-2.1102,-2.1102,-2.1102,-2.1102,-2.1102,-2.1102,-2.1102,-2.1102,-2.1102,-2.1102,-2.1102,-2.1002,-2.0989,-2.1062,-2.0681,-2.0361,-2.0247,-1.9973,-1.9693,-1.9387,-1.8388,-1.6909,-1.4475,-1.2273,-1.0119,-0.9819,-0.9819,-0.9819,-0.9819,-0.9819,-0.9819,-0.9819,-0.9819,-0.9819,-0.9819,-0.9819,-0.9819,-0.9819,-0.9819,-0.9819,-0.9822,-0.9819,-0.9819,-0.9879,-1.0301,-1.1314,-1.2389,-1.3636,-1.5725,-1.7273,-1.8402,-1.912,-1.9424,-1.9424,-1.9424,-1.9424,-1.9424,-1.9424,-1.9424,-1.9424,-1.9424,-1.9424,-1.9424,-1.9424,-1.9424,-1.9424,-1.9424,-1.9424,-1.9424,-1.9424,-1.9424,-1.9424,-1.9424,-1.9533,-2.0816,-2.2653,-2.3933,-2.4931,-2.6381,-2.7618,-2.8301,-2.8301,-2.8301,-2.8369,-2.8359,-2.8467,-2.8418,-2.8398,-2.8457,-2.8359,-2.8301,-2.8301,-2.8301,-2.8301,-2.8359,-2.8467,-2.8594,-2.8789,-2.8877,-2.8799,-2.8818,-2.8994,-2.915,-2.9189,-2.9238,-2.9381,-2.9453,-2.956,-2.9834,-3.0068,-3.0651,-2.1102,-2.1102,-2.1102,-2.1102,-2.1102,-2.1102,-2.1102,-2.1102,-2.1102,-2.1102,-2.1102,-2.1102,-2.1102,-2.1102,-2.1089,-2.0895,-2.0808,-2.0909,-2.0501,-2.0114,-2.0087,-1.9813,-1.9455,-1.9017,-1.7507,-1.5537,-1.3163,-1.1495,-0.9879,-0.9819,-0.9819,-0.9819,-0.9819,-0.9819,-0.9819,-0.9819,-0.9819,-0.9819,-0.9819,-0.9819,-0.9819,-0.9819,-0.9819,-0.9822,-1.0001,-1.0061,-1.0119,-1.06,-1.1322,-1.2749,-1.4713,-1.5838,-1.6909,-1.8104,-1.8823,-1.9424,-1.9424,-1.9424,-1.9424,-1.9424,-1.9424,-1.9424,-1.9424,-1.9424,-1.9424,-1.9424,-1.9424,-1.9437,-1.9437,-1.9424,-1.9424,-1.9424,-1.9424,-1.9444,-1.9444,-1.945,-1.945,-1.9529,-2.134,-2.3352,-2.4496,-2.5392,-2.6871,-2.8106,-2.8428,-2.8408,-2.8428,-2.8447,-2.8535,-2.875,-2.8848,-2.8809,-2.8818,-2.8672,-2.8389,-2.8447,-2.8506,-2.8574,-2.8682,-2.876,-2.8887,-2.9092,-2.9277,-2.9394,-2.9509,-2.9473,-2.956,-2.9639,-2.9678,-2.9812,-2.9961,-3.0137,-3.0215,-3.042,-3.0527,-2.1102,-2.1102,-2.1102,-2.1102,-2.1102,-2.1102,-2.1102,-2.1102,-2.1102,-2.1102,-2.1102,-2.1102,-2.1102,-2.1102,-2.1102,-2.0949,-2.0728,-2.0802,-2.0408,-1.9927,-2.002,-1.9733,-1.905,-1.8018,-1.5725,-1.3591,-1.1692,-1.0358,-0.9819,-0.9819,-0.9819,-0.9819,-0.9819,-0.9819,-0.9819,-0.9819,-0.9819,-0.9819,-0.9819,-0.9819,-0.9819,-0.9819,-0.9819,-1.024,-1.108,-1.1438,-1.2037,-1.3053,-1.3651,-1.4658,-1.5902,-1.6909,-1.7683,-1.8525,-1.9185,-1.9424,-1.9424,-1.9424,-1.9424,-1.9424,-1.9424,-1.9424,-1.9424,-1.9424,-1.9424,-1.9424,-1.9437,-1.947,-1.9464,-1.943,-1.9424,-1.9424,-1.943,-1.9477,-1.9504,-1.9466,-1.9479,-1.9983,-2.1031,-2.2912,-2.4521,-2.6016,-2.7809,-2.8662,-2.9014,-2.9023,-2.9062,-2.9082,-2.9092,-2.9245,-2.9313,-2.9209,-2.918,-2.8809,-2.8476,-2.876,-2.8867,-2.8926,-2.9053,-2.9238,-2.9375,-2.9479,-2.9646,-2.9824,-2.9805,-2.9756,-2.9873,-3.0088,-3.0244,-3.0361,-3.0576,-3.0732,-3.0732,-3.0703,-3.0732]},{"header":{"parameterUnit":"m.s-1","parameterCategory":1,"la1":31.0,"la2":29.5877,"lo1":-88.7671,"lo2":-86.6584,"dy":0.0162,"dx":0.0185,"nx":115,"ny":88,"refTime":"2026-04-02T12:00:00:Z","depth":0,"parameterNumber":3,"parameterNumberName":"V-component_of_WINDS"},"data":[0.0,0.0,0.0,0.0,0.0,0.0,0.0,0.0,0.0,0.0,0.0,0.0,0.0,0.0,0.0,0.0,0.0,0.0,0.0,0.0,0.0,0.0,0.0,0.0,0.0,0.0,0.0,0.0,0.0,0.0,0.0,0.0,0.0,0.0,0.0,0.0,0.0,0.0,0.0,0.0,0.0,0.0,0.0,0.0,0.0,0.0,0.0,0.0,0.0,0.0,0.0,0.0,0.0,0.0,0.0,0.0,0.0,0.0,0.0,0.0,0.0,0.0,0.0,0.0,0.0,0.0,0.0,0.0,0.0,0.0,0.0,0.0,0.0,0.0,0.0,0.0,0.0,0.0,0.0,0.0,0.0,0.0,0.0,0.0,0.0,0.0,0.0,0.0,0.0,0.0,0.0,0.0,0.0,0.0,0.0,0.0,0.0,0.0,0.0,0.0,0.0,0.0,0.0,0.0,0.0,0.0,0.0,0.0,0.0,0.0,0.0,0.0,0.0,0.0,0.0,0.0,0.0,0.0,0.0,0.0,0.0,0.0,0.0,0.0,0.0,0.0,0.0,0.0,0.0,0.0,0.0,0.0,0.0,0.0,0.0,0.0,0.0,0.0,0.0,0.0,0.0,0.0,0.0,0.0,0.0,0.0,0.0,0.0,0.0,0.0,0.0,0.0,0.0,0.0,0.0,0.0,0.0,0.0,0.0,0.0,0.0,0.0,0.0,0.0,0.0,0.0,0.0,0.0,0.0,0.0,0.0,0.0,0.0,0.0,0.0,0.0,0.0,0.0,0.0,0.0,0.0,0.0,0.0,0.0,0.0,0.0,0.0,0.0,0.0,0.0,0.0,0.0,0.0,0.0,0.0,0.0,0.0,0.0,0.0,0.0,0.0,0.0,0.0,0.0,0.0,0.0,0.0,0.0,0.0,0.0,0.0,0.0,0.0,0.0,0.0,0.0,0.0,0.0,0.0,0.0,0.0,0.0,0.0,0.0,0.0,0.0,0.0,0.0,0.0,0.0,0.0,0.0,0.0,0.0,0.0,0.0,0.0,0.0,0.0,0.0,0.0,0.0,0.0,0.0,0.0,0.0,0.0,0.0,0.0,0.0,0.0,0.0,0.0,0.0,0.0,0.0,0.0,0.0,0.0,0.0,0.0,0.0,0.0,0.0,0.0,0.0,0.0,0.0,0.0,0.0,0.0,0.0,0.0,0.0,0.0,0.0,0.0,0.0,0.0,0.0,0.0,0.0,0.0,0.0,0.0,0.0,0.0,0.0,0.0,0.0,0.0,0.0,0.0,0.0,0.0,0.0,0.0,0.0,0.0,0.0,0.0,0.0,0.0,0.0,0.0,0.0,0.0,0.0,0.0,0.0,0.0,0.0,0.0,0.0,0.0,0.0,0.0,0.0,0.0,0.0,0.0,0.0,0.0,0.0,0.0,0.0,0.0,0.0,0.0,0.0,0.0,0.0,0.0,0.0,0.0,0.0,0.0,0.0,0.0,0.0,0.0,0.0,0.0,0.0,0.0,0.0,0.0,0.0,0.0,0.0,0.0,0.0,0.0,0.0,0.0,0.0,0.0,0.0,0.0,0.0,0.0,0.0,0.0,0.0,0.0,0.0,0.0,0.0,0.0,0.0,0.0,0.0,0.0,0.0,0.0,0.0,0.0,0.0,0.0,0.0,0.0,0.0,0.0,0.0,0.0,0.0,0.0,0.0,0.0,0.0,0.0,0.0,0.0,0.0,0.0,0.0,0.0,0.0,0.0,0.0,0.0,0.0,0.0,0.0,0.0,0.0,0.0,0.0,0.0,0.0,0.0,0.0,0.0,0.0,0.0,0.0,0.0,0.0,0.0,0.0,0.0,0.0,0.0,0.0,0.0,0.0,0.0,0.0,0.0,0.0,0.0,0.0,0.0,0.0,0.0,0.0,0.0,0.0,0.0,0.0,0.0,0.0,0.0,0.0,0.0,0.0,0.0,0.0,0.0,0.0,0.0,0.0,0.0,0.0,0.0,0.0,0.0,0.0,0.0,0.0,0.0,0.0,0.0,0.0,0.0,0.0,0.0,0.0,0.0,0.0,0.0,0.0,0.0,0.0,0.0,0.0,0.0,0.0,0.0,0.0,0.0,0.0,0.0,0.0,0.0,0.0,0.0,0.0,0.0,0.0,0.0,0.0,0.0,0.0,0.0,0.0,0.0,0.0,0.0,0.0,0.0,0.0,0.0,0.0,0.0,0.0,0.0,0.0,0.0,0.0,0.0,0.0,0.0,0.0,0.0,0.0,0.0,0.0,0.0,0.0,0.0,0.0,0.0,0.0,0.0,0.0,0.0,0.0,0.0,0.0,0.0,0.0,0.0,0.0,0.0,0.0,0.0,0.0,0.0,0.0,0.0,0.0,0.0,0.0,0.0,0.0,0.0,0.0,0.0,0.0,0.0,0.0,0.0,0.0,0.0,0.0,0.0,0.0,0.0,0.0,0.0,0.0,0.0,0.0,0.0,0.0,0.0,0.0,0.0,0.0,0.0,0.0,0.0,0.0,0.0,0.0,0.0,0.0,0.0,0.0,0.0,0.0,0.0,0.0,0.0,0.0,0.0,0.0,0.0,0.0,0.0,0.0,0.0,0.0,0.0,0.0,0.0,0.0,0.0,0.0,0.0,0.0,0.0,0.0,0.0,0.0,0.0,0.0,0.0,0.0,0.0,0.0,0.0,0.0,0.0,0.0,0.0,0.0,0.0,0.0,0.0,0.0,0.0,0.0,0.0,0.0,0.0,0.0,0.0,0.0,0.0,0.0,0.0,0.0,0.0,0.0,0.0,0.0,0.0,0.0,0.0,0.0,0.0,0.0,0.0,0.0,0.0,0.0,0.0,0.0,0.0,0.0,0.0,0.0,0.0,0.0,0.0,0.0,0.0,0.0,0.0,0.0,0.0,0.0,0.0,0.0,0.0,0.0,0.0,0.0,0.0,0.0,0.0,0.0,0.0,0.0,0.0,0.0,0.0,0.0,0.0,0.0,0.0,0.0,0.0,0.0,0.0,0.0,0.0,0.0,0.0,0.0,0.0,0.0,0.0,0.0,0.0,0.0,0.0,0.0,0.0,0.0,0.0,0.0,0.0,0.0,0.0,0.0,0.0,0.0,0.0,0.0,0.0,0.0,0.0,0.0,0.0,0.0,0.0,0.0,0.0,0.0,0.0,0.0,0.0,0.0,0.0,0.0,0.0,0.0,0.0,0.0,0.0,0.0,0.0,0.0,0.0,0.0,0.0,0.0,0.0,0.0,0.0,0.0,0.0,0.0,0.0,0.0,0.0,0.0,0.0,0.0,0.0,0.0,0.0,0.0,0.0,0.0,0.0,0.0,0.0,0.0,0.0,0.0,0.0,0.0,0.0,0.0,0.0,0.0,0.0,0.0,0.0,0.0,0.0,0.0,0.0,0.0,0.0,0.0,0.0,0.0,0.0,0.0,0.0,0.0,0.0,0.0,0.0,0.0,0.0,0.0,0.0,0.0,0.0,0.0,0.0,0.0,0.0,0.0,0.0,0.0,0.0,0.0,0.0,0.0,0.0,0.0,0.0,0.0,0.0,0.0,0.0,0.0,0.0,0.0,0.0,0.0,0.0,0.0,0.0,0.0,0.0,0.0,0.0,0.0,0.0,0.0,0.0,0.0,0.0,0.0,0.0,0.0,0.0,0.0,0.0,0.0,0.0,0.0,0.0,0.0,0.0,0.0,0.0,0.0,0.0,0.0,0.0,0.0,0.0,0.0,0.0,0.0,0.0,0.0,0.0,0.0,0.0,0.0,0.0,0.0,0.0,0.0,0.0,0.0,0.0,0.0,0.0,0.0,0.0,0.0,0.0,0.0,0.0,0.0,0.0,0.0,0.0,0.0,0.0,0.0,0.0,0.0,0.0,0.0,0.0,0.0,0.0,0.0,0.0,0.0,0.0,0.0,0.0,0.0,0.0,0.0,0.0,0.0,0.0,0.0,0.0,0.0,0.0,0.0,0.0,0.0,0.0,0.0,0.0,0.0,0.0,0.0,0.0,0.0,0.0,0.0,0.0,0.0,0.0,0.0,0.0,0.0,0.0,0.0,0.0,0.0,0.0,0.0,0.0,0.0,0.0,0.0,0.0,0.0,0.0,0.0,0.0,0.0,0.0,0.0,0.0,0.0,0.0,0.0,0.0,0.0,0.0,0.0,0.0,0.0,0.0,0.0,0.0,0.0,0.0,0.0,0.0,0.0,0.0,0.0,0.0,0.0,0.0,0.0,0.0,0.0,0.0,0.0,0.0,0.0,0.0,0.0,0.0,0.0,0.0,0.0,0.0,0.0,0.0,0.0,0.0,0.0,0.0,0.0,0.0,0.0,0.0,0.0,0.0,0.0,0.0,0.0,0.0,0.0,0.0,0.0,0.0,0.0,0.0,0.0,0.0,0.0,0.0,0.0,0.0,0.0,0.0,0.0,0.0,0.0,0.0,0.0,0.0,0.0,0.0,0.0,0.0,0.0,0.0,0.0,0.0,0.0,0.0,0.0,0.0,0.0,0.0,0.0,0.0,0.0,0.0,0.0,0.0,0.0,0.0,0.0,0.0,0.0,0.0,0.0,0.0,0.0,0.0,0.0,0.0,0.0,0.0,0.0,0.0,0.0,0.0,0.0,0.0,0.0,0.0,0.0,0.0,0.0,0.0,0.0,0.0,0.0,0.0,0.0,0.0,0.0,0.0,0.0,0.0,0.0,0.0,0.0,0.0,0.0,0.0,0.2848,0.0,0.0,0.0,0.0,0.0,0.0,0.0,0.0,0.0,0.0,0.0,0.0,0.0,0.0,0.0,0.0,0.0,0.0,0.0,0.0,0.0,0.0,0.0,0.0,0.0,0.0,0.0,0.0,0.0,0.0,0.0,0.0,0.0,0.0,0.0,0.0,0.0,0.0,0.0,0.0,0.0,0.0,0.0,0.0,0.0,0.0,0.0,0.0,0.0,0.0,0.0,0.0,0.0,0.0,0.0,0.0,0.0,0.0,0.0,0.0,0.0,0.0,0.0,0.0,0.0,0.0,0.0,0.0,0.0,0.0,0.0,0.0,0.0,0.0,0.0,0.0,0.0,0.0,0.0,0.0,0.0,0.0,0.0,0.0,0.0,0.0,0.0,0.0,0.0,0.0,0.0,0.0,0.0,0.0,0.0,0.0,0.0,0.0,0.0,0.0,0.0,0.0,0.0,0.0,0.0,0.0,0.0,0.0,0.0,0.0,0.0,0.0,0.0,0.0,0.0,0.0,0.0,0.0268,0.0953,0.0,0.0,0.0,0.0,0.0,0.0,0.0,0.0,0.0,0.0,0.0,0.0,0.0,0.0,0.0,0.0,0.0,0.0,0.0,0.0,0.0,0.0,0.0,0.0,0.0,0.0,0.0,0.0,0.0,0.0,0.0,0.0,0.0,0.0,0.0,0.0,0.0,0.0,0.0,0.0,0.0,0.0,0.0,0.0,0.0,0.0,0.0,0.0,0.0,0.0,0.0,0.0,0.0,0.0,0.0,0.0,0.0,0.0,0.0,0.0,0.0,0.0,0.0,0.0,0.0,0.0,0.0,0.0,0.0,0.0,0.0,0.0,0.0,0.0,0.0,0.0,0.0,0.0,0.0,0.0,0.0,0.0,0.0,0.0,0.0,0.0,0.0,0.0,0.0,0.0,0.0,0.0,0.0,0.0,0.0,0.0,0.0,0.0,0.0,0.0,0.0,0.0,0.0,0.0,0.0,0.0,0.0,0.0,0.0,0.0,0.2744,0.0,0.0,0.0,0.3486,0.0,0.0,0.0,0.0,0.0,0.0,0.0,0.0,0.0,0.0,0.0,0.0,0.0,0.0,0.0,0.0,0.0,0.0,0.0,0.0,0.0,0.0,0.0,0.0,0.0,0.0,0.0,0.0,0.0,0.0,0.0,0.0,0.0,0.0,0.0,0.0,0.0,0.0,0.0,0.0,0.0,0.0,0.0,0.0,0.0,0.0,0.0,0.0,0.0,0.0,0.0,0.0,0.0,0.0,0.0,0.0,0.0,0.0,0.0,0.0,0.0,0.0,0.0,0.0,0.0,0.0,0.0,0.0,0.0,0.0,0.0,0.0,0.0,0.0,0.0,0.0,0.0,0.0,0.0,0.0,0.0,0.0,0.0,0.0,0.0,0.0,0.0,0.0,0.0,0.0,0.0,0.0,0.0,0.0,0.0,0.0,0.0,0.0,0.0,0.0,0.0,0.0,0.0,0.0,0.0,0.0,0.0,0.0,0.0,0.0,0.2705,0.0058,0.0787,0.2001,0.0,0.0,0.0,0.0,0.0,0.0,0.0,0.0,0.0,0.0,0.0,0.0,0.0,0.0,0.0,0.0,0.0,0.0,0.0,0.0,0.0,0.0,0.0,0.0,0.0,0.0,0.0,0.0,0.0,0.0,0.0,0.0,0.0,0.0,0.0,0.0,0.0,0.0,0.0,0.0,0.0,0.0,0.0,0.0,0.0,0.0,0.0,0.0,0.0,0.0,0.0,0.0,0.0,0.0,0.0,0.0,0.0,0.0,0.0,0.0,0.0,0.0,0.0,0.0,0.0,0.0,0.0,0.0,0.0,0.0,0.0,0.0,0.0,0.0,0.0,0.0,0.0,0.0,0.0,0.0,0.0,0.0,0.0,0.0,0.0,0.0,0.0,0.0,0.0,0.0,0.0,0.0,0.0,0.0,0.0,0.0,0.0,0.0,0.0,0.0,0.0,0.0,0.0,0.0,0.0,0.0,0.0,0.0,0.0,0.0,0.4049,0.2714,0.0286,0.1849,0.3239,0.4205,0.0,0.0,0.0,0.0,0.0,0.0,0.0,0.0,0.0,0.0,0.0,0.0,0.0,0.0,0.0,0.0,0.0,0.0,0.0,0.0,0.0,0.0,0.0,0.0,0.0,0.0,0.0,0.0,0.0,0.0,0.0,0.0,0.0,0.0,0.0,0.0,0.0,0.0,0.0,0.0,0.0,0.0,0.0,0.0,0.0,0.0,0.0,0.0,0.0,0.0,0.0,0.0,0.0,0.0,0.0,0.0,0.0,0.0,0.0,0.0,0.0,0.0,0.0,0.0,0.0,0.0,0.0,0.0,0.0,0.0,0.0,0.0,0.0,0.0,0.0,0.0,0.0,0.0,0.0,0.0,0.0,0.0,0.0,0.0,0.0,0.0,0.0,0.0,0.0,0.0,0.0,0.0,0.0,0.0,0.0,0.0,0.0,0.0,0.0,0.0,0.0,0.0,0.0,0.0,0.0,0.0,0.0,0.0,0.4202,0.3986,0.2715,0.0172,0.3088,0.4935,0.0,0.0,0.0,0.0,0.0,0.0,0.0,0.0,0.0,0.0,0.0,0.0,0.0,0.0,0.0,0.0,0.0,0.0,0.0,0.0,0.0,0.0,0.0,0.0,0.0,0.0,0.0,0.0,0.0,0.0,0.0,0.0,0.0,0.0,0.0,0.0,0.0,0.0,0.0,0.0,0.0,0.0,0.0,0.0,0.0,0.0,0.0,0.0,0.0,0.0,0.0,0.0,0.0,0.0,0.0,0.0,0.0,0.0,0.0,0.0,0.0,0.0,0.0,0.0,0.0,0.0,0.0,0.0,0.0,0.0,0.0,0.0,0.0,0.0,0.0,0.0,0.0,0.0,0.0,0.0,0.0,0.0,0.0,0.0,0.0,0.0,0.0,0.0,0.0,0.0,0.0,0.0,0.0,0.0,0.0,0.0,0.0,0.0,0.0,0.0,0.0,0.0,0.0,0.0,0.0,0.0,0.0,0.0,0.0,0.5461,0.3631,0.184,0.0174,0.2711,0.4561,0.0,0.0,0.0,0.0,0.0,0.0,0.0,0.0,0.0,0.0,0.0,0.0,0.0,0.0,0.0,0.0,0.0,0.0,0.0,0.0,0.0,0.0,0.0,0.0,0.0,0.0,0.0,0.0,0.0,0.0,0.0,0.0,0.0,0.0,0.0,0.0,0.0,0.0,0.0,0.0,0.0,0.0,0.0,0.0,0.0,0.0,0.0,0.0,0.0,0.0,0.0,0.0,0.0,0.0,0.0,0.0,0.0,0.0,0.0,0.0,0.0,0.0,0.0,0.0,0.0,0.0,0.0,0.0,0.0,0.0,0.0,0.0,0.0,0.0,0.0,0.0,0.0,0.0,0.0,0.0,0.0,0.0,0.0,0.0,0.0,0.0,0.0,0.0,0.0,0.0,0.0,0.0,0.0,0.0,0.0,0.0,0.0,0.0,0.0,0.0,0.0,0.0,0.0,0.0,0.0,0.0,0.0,0.0,0.0,0.5508,0.0,0.1472,0.0173,0.2629,0.4605,0.0,0.0,0.0,0.0,0.0,0.0,0.0,0.0,0.0,0.0,0.0,0.0,0.0,0.0,0.0,0.0,0.0,0.0,0.0,0.0,0.0,0.0,0.0,0.0,0.0,0.0,0.0,0.0,0.0,0.0,0.0,0.0,0.0,0.0,0.0,0.0,0.0,0.0,0.0,0.0,0.0,0.0,0.0,0.0,0.0,0.0,0.0,0.0,0.0,0.0,0.0,0.0,0.0,0.0,0.0,0.0,0.0,0.0,0.0,0.0,0.0,0.0,0.0,0.0,0.0,0.0,0.0,0.0,0.0,0.0,0.0,0.0,0.0,0.0,0.0,0.0,0.0,0.0,0.0,0.0,0.0,0.0,0.0,0.0,0.0,0.0,0.0,0.0,0.0,0.0,0.0,0.0,0.0,0.0,0.0,0.0,0.0,0.0,0.0,0.0,0.0,0.0,0.0,0.0,0.0,0.0,0.0,0.0,0.9348,0.4226,0.3108,0.1733,0.0169,0.2902,0.5242,0.0,0.0,0.0,0.0,0.0,0.0,0.0,0.0,0.0,0.0,0.0,0.0,0.0,0.0,0.0,0.0,0.0,0.0,0.0,0.0,0.0,0.0,0.0,0.0,0.0,0.0,0.0,0.0,0.0,0.0,0.0,0.0,0.0,0.0,0.0,0.0,0.0,0.0,0.0,0.0,0.0,0.0,0.0,0.0,0.0,0.0,0.0,0.0,0.0,0.0,0.0,0.0,0.0,0.0,0.0,0.0,0.0,0.0,0.0,0.0,0.0,0.0,0.0,0.0,0.0,0.0,0.0,0.0,0.0,0.0,0.0,0.0,0.0,0.0,0.0,0.0,0.0,0.0,0.0,0.0,0.0,0.0,0.0,0.0,0.0,0.0,0.0,0.0,0.0,0.0,0.0,0.0,0.0,0.0,0.0,0.0,0.0,0.0,0.0,0.0,0.0,0.0,0.0,0.0,0.0,0.0,0.0,0.0,0.0,0.4152,0.3904,0.2643,0.0235,0.2588,0.4938,0.0,0.0,0.0,0.0,0.0,0.0,0.0,0.0,0.0,0.0,0.0,0.0,0.0,0.0,0.0,0.0,0.0,0.0,0.0,0.0,0.0,0.0,0.0,0.0,0.0,0.0,0.0,0.0,0.0,0.0,0.0,0.0,0.0,0.0,0.0,0.0,0.0,0.0,0.0,0.0,0.0,0.0,0.0,0.0,0.0,0.0,0.0,0.0,0.0,0.0,0.0,0.0,0.0,0.0,0.0,0.0,0.0,0.0,0.0,0.0,0.0,0.0,0.0,0.0,0.0,0.0,0.0,0.0,0.0,0.0,0.0,0.0,0.0,0.0,0.0,0.0,0.0,0.0,0.0,0.0,0.0,0.0,0.0,0.0,0.0,0.0,0.0,0.0,0.0,0.0,0.0,0.0,0.0,0.0,0.0,0.0,0.0,0.0,0.0,0.0,0.0,0.0,0.0,0.0,0.0,0.0,0.0,0.0,0.0,0.5243,0.4813,0.3177,0.006,0.2514,0.4898,0.7142,0.0,0.0,0.0,0.0,0.0,0.0,0.0,0.0,0.0,0.0,0.0,0.0,0.0,0.0,0.0,0.0,0.0,0.0,0.0,0.0,0.0,0.0,0.0,0.0,0.0,0.0,0.0,0.0,0.0,0.0,0.0,0.0,0.0,0.0,0.0,0.0,0.0,0.0,0.0,0.0,0.0,0.0,0.0,0.0,0.0,0.0,0.0,0.0,0.0,0.0,0.0,0.0,0.0,0.0,0.0,0.0,0.0,0.0,0.0,0.0,0.0,0.0,0.0,0.0,0.0,0.0,0.0,0.0,0.0,0.0,0.0,0.0,0.0,0.0,0.0,0.0,0.0,0.0,0.0,0.0,0.0,0.0,0.0,0.0,0.0,0.0,0.0,0.0,0.0,0.0,0.0,0.0,0.0,0.0,0.0,0.0,0.0,0.0,0.0,0.0,0.0,0.0,0.0,0.0,0.0,0.0,0.0,0.0,0.692,0.5714,0.3517,0.0297,0.2665,0.5105,0.0,0.0,0.0,0.0,0.0,0.0,0.0,0.0,0.0,0.0,0.0,0.0,0.0,0.0,0.0,0.0,0.0,0.0,0.0,0.0,0.0,0.0,0.0,0.0,0.0,0.0,0.0,0.0,0.0,0.0,0.0,0.0,0.0,0.0,0.0,0.0,0.0,0.0,0.0,0.0,0.0,0.0,0.0,0.0,0.0,0.0,0.0,0.0,0.0,0.0,0.0,0.0,0.0,0.0,0.0,0.0,0.0,0.0,0.0,0.0,0.0,0.0,0.0,0.0,0.0,0.0,0.0,0.0,0.0,0.0,0.0,0.0,0.0,0.0,0.0,0.0,0.0,0.0,0.0,0.0,0.0,0.0,0.0,0.0,0.0,0.0,0.0,0.0,0.0,0.0,0.0,0.0,0.0,0.0,0.0,0.0,0.0,0.0,0.0,0.0,0.0,0.0,0.0,0.0,0.0,0.0,0.0,0.0,0.0,0.7097,0.6997,0.5456,0.2199,0.3317,0.5106,0.0,0.0,0.0,0.0,0.0,0.0,0.0,0.0,0.0,0.0,0.0,0.0,0.0,0.0,0.0,0.0,0.0,0.0,0.0,0.0,0.0,0.0,0.0,0.0,0.0,0.0,0.0,0.0,0.0,0.0,0.0,0.0,0.0,0.0,0.0,0.0,0.0,0.0,0.0,0.0,0.0,0.0,0.0,0.0,0.0,0.0,0.0,0.0,0.0,0.0,0.0,0.0,0.0,0.0,0.0,0.0,0.0,0.0,0.0,0.0,0.0,0.0,0.0,0.0,0.0,0.0,0.0,0.0,0.0,0.0,0.0,0.0,0.0,0.0,0.0,0.0,0.0,0.0,0.0,0.0,0.0,0.0,0.0,0.0,0.0,0.0,0.0,0.0,0.0,0.0,0.0,0.0,0.0,0.0,0.0,0.0,0.0,0.0,0.0,0.0,0.0,0.0,0.0,0.0,0.0,0.0,0.0,0.0,1.1923,0.9268,0.837,0.6965,0.4989,0.528,0.6508,0.0,0.0,0.0,0.0,0.0,0.0,0.0,0.0,0.0,0.0,0.0,0.0,0.0,0.0,0.0,0.0,0.0,0.0,0.0,0.0,0.0,0.0,0.0,0.0,0.0,0.0,0.0,0.0,0.0,0.0,0.0,0.0,0.0,0.0,0.0,0.0,0.0,0.0,0.0,0.0,0.0,0.0,0.0,0.0,0.0,0.0,0.0,0.0,0.0,0.0,0.0,0.0,0.0,0.0,0.0,0.0,0.0,0.0,0.0,0.0,0.0,0.0,0.0,0.0,0.0,0.0,0.0,0.0,0.0,0.0,0.0,0.0,0.0,0.0,0.0,0.0,0.0,0.0,0.0,0.0,0.0,0.0,0.0,0.0,0.0,0.0,0.0,0.0,0.0,0.0,0.0,0.0,0.0,0.0,0.0,0.0,0.0,0.0,0.0,0.0,0.0,0.0,0.0,0.0,0.0,0.0,0.0,0.0,1.3227,1.2365,0.9867,0.8439,0.8253,0.7688,0.8364,0.0,0.0,0.0,0.0,0.0,0.0,0.0,0.0,0.0,0.0,0.0,0.0,0.0,0.0,0.0,0.0,0.0,0.0,0.0,0.0,0.0,0.0,0.0,0.0,0.0,0.0,0.0,0.0,0.0,0.0,0.0,0.0,0.0,0.0,0.0,0.0,0.0,0.0,0.0,0.0,0.0,0.0,0.0,0.0,0.0,0.0,0.0,0.0,0.0,0.0,0.0,0.0,0.0,0.0,0.0,0.0,0.0,0.0,0.0,0.0,0.0,0.0,0.0,0.0,0.0,0.0,0.0,0.0,0.0,0.0,0.0,0.0,0.0,0.0,0.0,0.0,0.0,0.0,0.0,0.0,0.0,0.0,0.0,0.0,0.0,0.0,0.0,0.0,0.0,0.0,0.0,0.0,0.0,0.0,0.0,0.0,0.0,0.0,0.0,0.0,0.0,0.0,0.0,0.0,0.0,0.0,0.0,0.0,1.4608,1.2492,1.2258,1.1472,1.0029,0.8037,0.811,0.0,0.0,0.0,0.0,0.0,0.0,0.0,0.0,0.0,0.0,0.0,0.0,0.0,0.0,0.0,0.0,0.0,0.0,0.0,0.0,0.0,0.0,0.0,0.0,0.0,0.0,0.0,0.0,0.0,0.0,0.0,0.0,0.0,0.0,0.0,0.0,0.0,0.0,0.0,0.0,0.0,0.0,0.0,0.0,0.0,0.0,0.0,0.0,1.2039,0.0,0.0,0.0,0.0,0.0,0.0,0.0,0.0,0.0,0.0,0.0,0.0,0.0,0.0,0.0,0.0,0.0,0.0,0.0,0.0,0.0,0.0,0.0,0.0,0.0,0.0,0.0,0.0,0.0,0.0,0.0,0.0,0.0,0.0,0.0,0.0,0.0,0.0,0.0,0.0,0.0,0.0,0.0,0.0,0.0,0.0,0.0,0.0,0.0,0.0,0.0,0.0,0.0,0.0,0.0,0.0,0.0,0.0,0.0,1.5831,1.489,1.3752,1.2759,1.1687,1.0197,1.0127,0.0,0.0,0.0,0.0,0.0,0.0,0.0,0.0,0.0,0.0,0.0,0.0,0.0,0.0,0.0,0.0,0.0,0.0,0.0,0.0,0.0,0.0,0.0,0.0,0.0,0.0,0.0,0.0,0.0,0.0,0.0,0.0,0.0,0.0,0.0,0.0,0.0,0.0,0.0,0.0,0.0,0.0,0.0,0.0,0.0,0.0,0.0,0.0,0.0,0.0,0.0,0.0,0.0,0.0,0.0,0.0,0.0,0.0,0.0,0.0,0.0,0.0,0.0,0.0,0.0,0.0,0.0,0.0,0.0,0.0,0.0,0.0,0.0,0.0,0.0,0.0,0.0,0.0,0.0,0.0,0.0,0.0,0.0,0.0,0.0,0.0,0.0,0.0,0.0,0.0,0.0,0.0,0.0,0.0,0.0,0.0,0.0,0.0,0.0,0.0,0.0,0.0,0.0,0.0,0.0,0.0,0.0,1.8066,1.7241,1.7753,1.522,1.3684,1.339,1.2865,1.2953,1.3678,0.0,0.0,0.0,0.0,0.0,0.0,0.0,0.0,0.0,0.0,0.0,0.0,0.0,0.0,0.0,0.0,0.0,0.0,0.0,0.0,0.0,0.0,0.0,0.0,0.0,0.0,0.0,0.0,0.0,0.0,0.0,0.0,0.0,0.0,0.0,0.0,0.0,0.0,2.169,1.9959,0.0,0.0,0.0,0.0,0.0,0.0,0.0,0.0,1.4566,0.0,0.0,0.0,0.0,0.0,0.0,0.0,0.0,0.0,0.0,0.0,0.0,0.0,0.0,0.0,0.0,0.0,0.0,0.0,0.0,0.0,0.0,0.0,0.0,0.0,0.0,0.0,0.0,0.0,0.0,0.0,0.0,0.0,0.0,0.0,0.0,0.0,0.0,0.0,0.0,0.0,0.0,0.0,0.0,0.0,0.0,0.0,0.0,0.0,0.0,0.0,0.0,0.0,0.0,0.0,0.0,2.3861,2.1063,1.9449,1.9101,1.7631,1.6143,1.46,1.4436,1.4993,1.6336,0.0,0.0,0.0,0.0,0.0,0.0,0.0,0.0,0.0,0.0,0.0,0.0,0.0,0.0,0.0,0.0,0.0,0.0,0.0,0.0,0.0,0.0,0.0,0.0,0.0,0.0,0.0,0.0,0.0,0.0,0.0,0.0,0.0,0.0,0.0,0.0,0.0,0.0,0.0,2.2233,2.1587,0.0,0.0,0.0,0.0,0.0,0.0,0.0,0.0,1.6137,0.0,0.0,0.0,0.0,0.0,0.0,0.0,0.0,0.0,0.0,0.0,0.0,0.0,0.0,0.0,0.0,0.0,0.0,0.0,0.0,0.0,0.0,0.0,0.0,0.0,0.0,0.0,0.0,0.0,0.0,0.0,0.0,0.0,0.0,0.0,0.0,0.0,0.0,0.0,0.0,0.0,0.0,0.0,0.0,0.0,0.0,0.0,0.0,0.0,0.0,0.0,0.0,0.0,0.0,0.0,2.3952,2.2573,2.145,2.0753,1.9337,1.7859,1.6189,1.5714,1.5959,0.0,0.0,0.0,0.0,0.0,0.0,0.0,0.0,0.0,0.0,0.0,0.0,0.0,0.0,0.0,0.0,0.0,0.0,0.0,0.0,0.0,0.0,0.0,0.0,0.0,0.0,0.0,0.0,0.0,0.0,0.0,0.0,0.0,0.0,0.0,0.0,0.0,0.0,0.0,0.0,2.3365,2.2751,2.2635,0.0,0.0,0.0,0.0,0.0,0.0,1.7703,1.7407,0.0,0.0,0.0,0.0,0.0,0.0,0.0,0.0,0.0,0.0,0.0,0.0,0.0,0.0,0.0,0.0,0.0,0.0,0.0,0.0,0.0,0.0,0.0,0.0,0.0,0.0,0.0,0.0,0.0,0.0,0.0,0.0,0.0,0.0,0.0,0.0,0.0,0.0,0.0,0.0,0.0,0.0,0.0,0.0,0.0,0.0,0.0,0.0,0.0,0.0,0.0,0.0,0.0,0.0,0.0,2.4208,2.3696,2.3239,2.2777,2.1271,1.9728,1.8239,1.7723,1.7585,0.0,0.0,0.0,0.0,0.0,0.0,0.0,0.0,0.0,0.0,0.0,0.0,0.0,0.0,0.0,0.0,0.0,0.0,0.0,0.0,0.0,0.0,0.0,0.0,0.0,0.0,0.0,0.0,0.0,0.0,0.0,0.0,0.0,0.0,0.0,0.0,0.0,0.0,0.0,0.0,0.0,2.3767,2.3978,2.2832,0.0,0.0,0.0,0.0,1.8926,1.9233,0.0,0.0,0.0,0.0,0.0,0.0,0.0,0.0,0.0,0.0,0.0,0.0,0.0,0.0,0.0,0.0,0.0,0.0,0.0,0.0,0.0,0.0,0.0,0.0,0.0,0.0,0.0,0.0,0.0,0.0,0.0,0.0,0.0,0.0,0.0,0.0,0.0,0.0,0.0,0.0,0.0,0.0,0.0,0.0,0.0,0.0,0.0,0.0,0.0,0.0,0.0,0.0,0.0,0.0,0.0,0.0,2.6795,2.4998,2.4544,2.548,2.4094,2.2495,2.082,2.1805,2.1772,0.0,0.0,0.0,0.0,0.0,0.0,0.0,0.0,0.0,0.0,0.0,0.0,0.0,0.0,0.0,0.0,0.0,0.0,0.0,0.0,0.0,0.0,0.0,0.0,0.0,0.0,0.0,0.0,0.0,0.0,0.0,0.0,0.0,0.0,0.0,0.0,0.0,0.0,0.0,0.0,0.0,2.5625,2.4483,2.4514,2.3985,0.0,0.0,2.2263,2.0892,2.1467,0.0,0.0,0.0,0.0,0.0,0.0,0.0,0.0,0.0,0.0,0.0,0.0,0.0,0.0,0.0,0.0,0.0,0.0,0.0,0.0,0.0,0.0,0.0,0.0,0.0,0.0,0.0,0.0,0.0,0.0,0.0,0.0,0.0,0.0,0.0,0.0,0.0,0.0,0.0,0.0,0.0,0.0,0.0,0.0,0.0,0.0,0.0,0.0,0.0,0.0,0.0,0.0,0.0,0.0,0.0,2.6715,2.8015,2.7986,2.7742,2.7214,2.6321,2.4734,2.2363,2.2063,2.187,0.0,0.0,0.0,0.0,0.0,0.0,0.0,0.0,0.0,0.0,0.0,0.0,0.0,0.0,0.0,0.0,0.0,0.0,0.0,0.0,0.0,0.0,0.0,0.0,0.0,0.0,0.0,0.0,0.0,0.0,0.0,0.0,0.0,0.0,0.0,0.0,0.0,0.0,0.0,0.0,0.0,0.0,2.6872,2.719,0.0,0.0,0.0,2.488,2.3202,0.0,0.0,0.0,0.0,0.0,0.0,0.0,0.0,0.0,0.0,0.0,0.0,0.0,0.0,0.0,0.0,0.0,0.0,0.0,0.0,0.0,0.0,0.0,0.0,0.0,0.0,0.0,0.0,0.0,0.0,0.0,0.0,0.0,0.0,0.0,0.0,0.0,0.0,0.0,0.0,0.0,0.0,0.0,0.0,0.0,0.0,0.0,0.0,0.0,0.0,0.0,0.0,0.0,0.0,0.0,0.0,0.0,2.8798,3.0038,3.0079,2.8817,2.842,2.6856,2.4032,2.3188,0.0,0.0,0.0,0.0,0.0,0.0,0.0,0.0,0.0,0.0,0.0,0.0,0.0,0.0,0.0,0.0,0.0,0.0,0.0,0.0,0.0,0.0,0.0,0.0,0.0,0.0,0.0,2.1094,0.0,0.0,0.0,0.0,0.0,0.0,0.0,0.0,0.0,0.0,0.0,0.0,0.0,0.0,2.8668,2.8477,2.9127,2.9464,0.0,0.0,2.7346,2.5747,2.5816,2.4888,0.0,0.0,0.0,0.0,0.0,0.0,0.0,0.0,0.0,0.0,0.0,0.0,0.0,0.0,0.0,0.0,0.0,0.0,0.0,0.0,0.0,0.0,0.0,0.0,0.0,0.0,0.0,0.0,0.0,0.0,0.0,0.0,0.0,0.0,0.0,0.0,0.0,0.0,0.0,0.0,0.0,0.0,0.0,0.0,0.0,0.0,0.0,0.0,0.0,0.0,0.0,0.0,0.0,0.0,0.0,2.9312,2.9795,3.0284,3.0495,3.0484,2.9023,2.617,2.7097,2.5831,0.0,0.0,0.0,0.0,0.0,0.0,0.0,0.0,0.0,0.0,0.0,0.0,0.0,0.0,0.0,0.0,0.0,0.0,0.0,0.0,0.0,0.0,0.0,0.0,0.0,0.0,0.0,0.0,0.0,0.0,0.0,0.0,0.0,0.0,0.0,0.0,0.0,0.0,0.0,0.0,0.0,2.8924,2.8206,2.9285,3.0004,0.0,0.0,2.9091,2.8567,2.9471,2.9297,2.6455,0.0,0.0,0.0,0.0,0.0,0.0,0.0,0.0,0.0,0.0,0.0,0.0,0.0,0.0,0.0,0.0,0.0,0.0,0.0,0.0,0.0,0.0,0.0,0.0,0.0,0.0,0.0,0.0,0.0,0.0,0.0,0.0,0.0,0.0,0.0,0.0,0.0,0.0,0.0,0.0,0.0,0.0,0.0,0.0,0.0,0.0,0.0,0.0,0.0,0.0,0.0,0.0,0.0,3.0367,3.114,3.2589,3.3248,3.2903,3.2054,3.0586,2.8588,2.8218,2.6969,0.0,0.0,0.0,0.0,0.0,0.0,0.0,0.0,0.0,0.0,0.0,0.0,0.0,0.0,0.0,0.0,0.0,0.0,0.0,0.0,0.0,0.0,0.0,0.0,0.0,0.0,0.0,0.0,2.6017,2.5992,2.5694,0.0,0.0,0.0,0.0,0.0,0.0,0.0,0.0,0.0,0.0,3.1464,3.1597,3.1828,0.0,0.0,3.1,3.0382,3.0285,3.0,2.9024,2.6853,2.6,0.0,0.0,0.0,0.0,0.0,0.0,0.0,0.0,0.0,0.0,0.0,0.0,0.0,0.0,0.0,0.0,0.0,0.0,0.0,0.0,0.0,0.0,0.0,0.0,0.0,0.0,0.0,0.0,0.0,0.0,0.0,0.0,0.0,0.0,0.0,0.0,0.0,0.0,0.0,0.0,0.0,0.0,0.0,0.0,0.0,0.0,0.0,0.0,0.0,0.0,0.0,0.0,3.1884,3.2326,3.454,3.5431,3.4878,3.3552,3.2228,3.0869,2.954,2.8239,0.0,0.0,0.0,0.0,0.0,0.0,0.0,0.0,0.0,0.0,0.0,0.0,0.0,0.0,0.0,0.0,0.0,0.0,0.0,0.0,0.0,0.0,0.0,0.0,0.0,0.0,0.0,0.0,2.7177,2.6918,2.6404,0.0,0.0,0.0,0.0,0.0,0.0,0.0,0.0,0.0,0.0,3.3792,3.4446,3.438,3.4231,3.4021,3.3005,3.2239,3.2144,3.1314,3.0174,2.8567,0.0,0.0,0.0,0.0,0.0,0.0,0.0,0.0,0.0,0.0,0.0,0.0,0.0,0.0,0.0,0.0,0.0,0.0,0.0,0.0,0.0,0.0,0.0,0.0,0.0,0.0,0.0,0.0,0.0,0.0,3.2536,0.0,0.0,0.0,0.0,0.0,0.0,0.0,0.0,0.0,0.0,0.0,0.0,0.0,0.0,0.0,0.0,0.0,0.0,0.0,0.0,0.0,0.0,3.2585,3.2627,3.4999,3.6213,3.6134,3.5142,3.4056,3.28,3.17,2.9948,2.7369,0.0,0.0,0.0,0.0,0.0,0.0,0.0,0.0,0.0,0.0,0.0,0.0,0.0,0.0,0.0,0.0,0.0,0.0,0.0,0.0,0.0,0.0,0.0,0.0,0.0,0.0,2.7316,2.6974,2.6566,0.0,0.0,0.0,0.0,0.0,0.0,0.0,0.0,0.0,0.0,3.3868,3.5507,3.602,3.6629,3.6605,3.603,3.5507,3.4945,3.4282,3.4159,3.3833,0.0,0.0,0.0,0.0,0.0,0.0,0.0,0.0,0.0,0.0,0.0,0.0,0.0,0.0,0.0,0.0,0.0,0.0,0.0,0.0,0.0,0.0,0.0,0.0,0.0,0.0,0.0,3.3582,3.3479,0.0,0.0,0.0,0.0,0.0,0.0,0.0,0.0,0.0,0.0,0.0,3.776,3.8443,0.0,0.0,0.0,0.0,0.0,0.0,0.0,0.0,0.0,0.0,0.0,0.0,3.3884,3.4383,3.6239,3.7266,3.7266,3.6212,3.5507,3.5049,3.4338,3.2302,2.8686,0.0,0.0,0.0,0.0,0.0,0.0,0.0,0.0,0.0,0.0,0.0,0.0,0.0,0.0,0.0,0.0,0.0,0.0,0.0,0.0,0.0,0.0,0.0,0.0,0.0,2.748,0.0,0.0,0.0,0.0,0.0,0.0,0.0,0.0,0.0,0.0,0.0,3.2458,3.3917,3.4654,3.5277,3.5909,3.5948,3.5788,0.0,0.0,0.0,0.0,0.0,0.0,0.0,0.0,0.0,0.0,0.0,0.0,0.0,0.0,2.999,2.6106,2.4735,2.4314,2.488,0.0,0.0,0.0,0.0,0.0,0.0,0.0,0.0,0.0,0.0,0.0,0.0,0.0,0.0,3.6296,0.0,3.6127,0.0,0.0,0.0,0.0,0.0,0.0,0.0,0.0,4.1199,4.1788,4.1286,4.1982,4.1149,0.0,3.8073,3.6039,0.0,0.0,0.0,0.0,0.0,0.0,0.0,0.0,3.4965,3.5683,3.7186,3.8112,3.8294,3.7291,3.6774,3.6746,3.5892,3.3946,3.0813,2.9194,2.7774,0.0,0.0,0.0,0.0,0.0,0.0,0.0,0.0,0.0,0.0,0.0,0.0,0.0,0.0,0.0,0.0,0.0,0.0,0.0,0.0,0.0,0.0,0.0,2.8533,0.0,0.0,0.0,0.0,0.0,0.0,0.0,0.0,0.0,3.3486,3.3902,3.4862,3.6535,3.6393,3.6289,3.6697,0.0,0.0,0.0,0.0,0.0,0.0,0.0,3.459,3.4043,3.4027,3.4025,3.3845,3.4517,3.4989,3.4789,0.0,0.0,2.9824,2.8409,2.789,2.8086,2.8122,2.8134,2.8044,2.8231,2.8187,0.0,0.0,0.0,0.0,0.0,0.0,0.0,0.0,3.8471,3.8646,0.0,3.9229,0.0,0.0,0.0,0.0,0.0,4.035,0.0,0.0,4.3538,4.4244,4.428,4.3717,4.3009,4.2317,4.2157,4.1049,3.8875,3.3861,0.0,0.0,0.0,0.0,0.0,0.0,3.5866,3.6552,3.7764,3.8721,3.9307,3.8383,3.7843,3.7829,3.629,3.4875,3.372,3.3046,3.1541,2.8944,2.8259,0.0,0.0,0.0,0.0,0.0,0.0,0.0,0.0,0.0,0.0,0.0,0.0,0.0,0.0,0.0,0.0,0.0,0.0,0.0,0.0,3.0804,0.0,0.0,0.0,0.0,0.0,0.0,0.0,0.0,0.0,0.0,3.7821,3.7802,3.8197,3.9435,0.0,0.0,0.0,0.0,3.8172,3.7539,3.7449,3.7206,3.6638,3.6996,3.7161,3.6563,0.0,0.0,3.749,3.7415,3.7231,3.6716,3.6766,3.6419,3.4966,3.4016,3.3444,3.2998,3.237,3.2045,3.1557,3.1194,3.1001,4.9516,0.0,0.0,0.0,0.0,4.4781,4.4886,4.5473,4.4741,4.4224,4.3848,4.3503,0.0,0.0,0.0,0.0,0.0,0.0,4.3096,4.3894,4.5346,4.6324,4.6841,4.7172,4.6939,4.6191,4.4587,4.3239,4.2048,3.8963,3.6691,3.5217,0.0,0.0,0.0,0.0,3.6586,3.7139,3.7973,3.8721,3.9409,3.9104,3.8943,3.8929,3.7387,3.6159,3.5332,3.4046,3.2621,3.098,3.0403,0.0,0.0,0.0,0.0,0.0,0.0,0.0,0.0,0.0,0.0,0.0,0.0,0.0,0.0,0.0,0.0,0.0,0.0,0.0,3.009,3.0717,3.1134,0.0,0.0,0.0,0.0,0.0,0.0,0.0,0.0,0.0,4.0844,3.9592,3.865,0.0,0.0,3.8544,3.7984,3.8269,3.8665,3.8992,3.8512,0.0,0.0,3.7599,3.7345,3.7165,3.7838,3.8317,3.8138,3.8512,3.8796,3.8586,3.8606,3.8501,3.8018,3.6319,3.4873,3.43,3.3727,3.3182,3.2735,3.2634,3.2494,5.3338,4.999,4.8804,4.8492,4.8673,4.8097,4.8277,4.8849,4.8244,4.7744,4.742,4.6625,4.5094,4.3121,4.2359,0.0,0.0,0.0,4.487,4.5901,4.6797,4.7631,4.8311,4.8798,4.8612,4.7808,4.62,4.5037,4.4273,4.2307,4.0738,3.9451,0.0,0.0,3.6517,3.7131,3.7795,3.8402,3.9062,3.9631,3.9979,3.9699,3.956,3.956,3.8626,3.7779,3.7116,3.5874,3.4539,3.3226,3.234,3.1316,0.0,0.0,0.0,0.0,0.0,0.0,0.0,0.0,0.0,0.0,0.0,2.8681,2.8075,0.0,0.0,0.0,3.062,3.1501,3.2581,3.3111,0.0,0.0,0.0,0.0,0.0,0.0,0.0,3.9565,4.0538,4.1452,4.2571,4.1532,4.0652,4.0528,4.0064,3.9556,3.9062,0.0,3.9593,3.9672,3.9263,3.8815,3.8447,3.8302,3.8197,3.8212,3.8527,3.8781,3.8811,3.9155,3.9373,3.9388,3.9388,3.9388,3.9388,3.8062,3.6736,3.6038,3.5303,3.4566,3.3888,3.3386,3.3124,5.6494,5.5631,5.2808,5.2029,5.2435,5.1116,5.0913,5.1338,4.9926,4.9869,5.0758,4.8928,4.752,4.6509,4.4747,0.0,4.5957,4.6024,4.6739,4.7973,4.8003,4.8342,4.8984,4.9001,4.8646,4.7956,4.7175,4.6447,4.5737,4.422,4.347,4.3314,4.0635,3.8859,3.8149,3.8753,3.9381,3.995,4.0653,4.0942,4.0879,4.0193,3.9795,3.9795,3.9795,3.9491,3.882,3.809,3.6999,3.5492,3.426,3.2681,3.065,0.0,0.0,0.0,0.0,0.0,0.0,0.0,0.0,0.0,0.0,0.0,0.0,0.0,0.0,0.0,3.4663,0.0,3.6834,3.6882,0.0,0.0,0.0,3.6446,3.7251,3.8581,3.9914,4.1152,0.0,0.0,4.3291,4.3392,4.3396,4.3403,4.2136,4.1159,4.1097,4.1081,4.0785,4.0091,3.9827,3.9474,3.8717,3.896,3.9254,3.9254,3.9388,3.9379,3.9343,3.9373,3.9388,3.9388,3.9388,3.9388,3.9388,3.9271,3.9104,3.8017,3.7046,3.596,3.4856,3.3953,3.3326,5.7526,5.7256,5.6004,5.526,5.4888,5.4532,5.4143,5.3771,5.3399,5.2758,5.19,5.1412,5.0456,4.9171,4.8709,4.8391,4.824,4.8781,4.8934,4.8748,4.8748,4.8832,4.9001,4.9018,4.89,4.8663,4.7428,4.6701,4.6464,4.5026,4.3995,4.3392,4.2685,4.167,4.0439,4.057,4.0704,4.0748,4.0893,4.0958,4.0895,4.0193,3.9795,3.9795,3.9795,3.9491,3.8834,3.8623,3.8093,3.7249,3.7413,3.6822,3.5254,3.3902,0.0,0.0,0.0,0.0,0.0,0.0,0.0,0.0,0.0,3.2385,3.0433,0.0,3.2845,0.0,3.6186,3.7503,3.7641,3.7705,0.0,0.0,3.8635,3.8848,4.0051,4.1021,4.168,4.2016,4.2692,4.3217,4.3375,4.3403,4.3607,4.4147,4.3439,4.2608,4.2098,4.195,4.1815,4.1454,4.0913,4.0166,3.9375,3.929,3.9424,3.9388,3.9388,3.9388,3.9388,3.9388,3.9388,3.9388,3.9388,3.9388,3.9388,3.9388,3.9337,3.9017,3.8182,3.6866,3.5115,3.4511,3.4079,5.7881,5.7848,5.7442,5.7269,5.7124,5.5789,5.4972,5.4566,5.4245,5.3636,5.2824,5.2469,5.1674,5.0608,5.0591,5.0371,5.0016,5.005,4.9881,4.9475,4.9154,4.9018,4.9018,4.9018,4.9018,4.8951,4.7496,4.6786,4.6701,4.5326,4.435,4.3944,4.3927,4.3513,4.274,4.235,4.214,4.2052,4.2052,4.1891,4.1517,4.0799,4.0258,3.9947,3.9947,3.975,3.9385,3.9044,3.8651,3.8322,3.8377,3.7927,3.6866,3.5775,3.4701,0.0,0.0,0.0,0.0,0.0,0.0,0.0,0.0,0.0,0.0,0.0,3.4671,3.6467,3.8321,3.9548,3.983,3.9907,4.0348,4.1403,4.1491,4.1783,4.2552,4.3297,4.3627,4.3356,4.369,4.3944,4.3944,4.3944,4.4079,4.4547,4.4215,4.3788,4.3427,4.3285,4.3127,4.2626,4.2157,4.1543,4.0672,4.022,3.999,3.997,3.9631,3.9388,3.9388,3.9388,3.9388,3.9388,3.9388,3.9388,3.9388,3.9388,3.9388,3.9301,3.8943,3.7956,3.6397,3.5346,3.447,5.8192,5.8209,5.8209,5.8651,5.9055,5.6353,5.5094,5.4856,5.4194,5.3754,5.3467,5.2756,5.2114,5.1522,5.1505,5.1454,5.1319,5.0574,5.0185,5.005,4.934,4.9018,4.9018,4.9018,4.9018,4.8951,4.7513,4.6786,4.6752,4.5326,4.4598,4.4598,4.4598,4.4598,4.4564,4.3893,4.3572,4.3544,4.3443,4.3071,4.2455,4.1644,4.0882,4.0282,4.0163,4.0113,4.007,3.9437,3.9059,3.9032,3.8511,3.7927,3.7256,3.6621,3.6029,0.0,3.4129,0.0,0.0,0.0,0.0,0.0,0.0,0.0,0.0,3.6349,3.7183,3.9101,4.0603,4.1748,4.2398,4.2422,4.2722,4.339,4.4106,4.4547,4.4535,4.5103,4.5294,4.4776,4.4654,4.4581,4.4412,4.453,4.4598,4.4445,4.4496,4.4485,4.4553,4.4491,4.4191,4.3443,4.3216,4.2552,4.1933,4.118,4.0656,4.0588,3.9955,3.9424,3.9388,3.9388,3.9388,3.9388,3.9388,3.9388,3.9388,3.9388,3.9388,3.9388,3.9337,3.8943,3.7829,3.6411,3.5102,5.9945,5.9945,5.9945,6.0023,6.0061,5.8897,5.7653,5.6457,5.6336,5.5205,5.3518,5.3348,5.3213,5.3078,5.3061,5.2723,5.2063,5.1336,5.0693,5.0098,4.934,4.9018,4.9018,4.9018,4.9018,4.8917,4.7496,4.6786,4.6752,4.5326,4.4598,4.4598,4.4598,4.4598,4.4598,0.0,0.0,0.0,4.3741,4.3325,4.3183,4.188,4.1136,4.0984,4.0417,0.0,4.0113,3.9969,3.9859,3.9876,4.0301,0.0,0.0,0.0,0.0,0.0,0.0,0.0,0.0,0.0,0.0,0.0,3.8126,3.7552,3.8006,3.9669,4.0653,4.0596,4.1971,4.2962,4.3186,4.32,4.3462,4.4127,4.4844,4.5237,4.5153,4.5361,4.5451,4.5346,4.4906,4.4333,4.3842,4.4164,4.4333,4.3859,4.4181,4.4581,4.4598,4.4598,4.4253,4.3456,4.2847,4.23,4.2013,4.133,4.0878,4.0603,3.999,3.9466,3.9394,3.9343,3.9358,3.9328,3.9388,3.9373,3.9358,3.9388,3.9328,3.9373,3.9358,3.9053,3.8032,3.751,3.6724,6.0414,0.0,6.0414,6.061,0.0,6.0597,5.9554,5.8025,5.6854,5.5475,5.4059,5.4042,5.4042,5.4027,5.3668,5.3298,5.2841,5.1725,5.1014,5.0591,4.9509,4.9018,4.9018,4.9018,4.9018,4.8951,4.7496,4.6786,4.6701,4.5326,4.4598,4.4598,4.4598,4.4598,4.4598,4.4598,4.4598,4.4598,4.4198,4.3809,4.3375,4.232,4.1559,4.1204,0.0,0.0,0.0,0.0,0.0,0.0,0.0,0.0,0.0,0.0,0.0,4.0245,3.9782,3.9656,3.9942,4.034,4.1027,4.2028,4.1758,4.1011,3.9684,4.1324,4.2251,4.1958,4.2964,4.3708,4.3828,4.3843,4.4105,4.4747,4.5509,4.5892,4.5806,4.6156,4.6167,4.5545,4.4914,4.4346,4.405,4.3927,4.4028,4.4012,4.4344,4.4598,4.4598,4.4598,4.4412,4.4006,4.3604,4.3303,4.3213,4.2552,4.1788,4.1347,4.0359,3.9449,3.8987,3.8646,3.8422,3.8452,3.8676,3.8826,3.8527,3.8676,3.8811,3.8512,3.8387,3.8415,3.8083,3.7949,3.7343,6.0838,6.082,6.0838,6.1218,6.1815,6.1815,6.0838,5.9141,0.0,0.0,0.0,5.4787,5.4787,5.4757,5.4171,5.3898,5.3778,5.2311,5.1595,5.1526,4.9923,4.9182,4.9199,4.9063,4.9018,4.8934,4.7598,4.6915,4.6747,4.5501,4.4852,4.4776,4.4776,4.472,4.4598,4.4598,4.4637,4.4765,4.4637,4.4198,4.3392,4.2675,4.1948,4.1221,4.0502,4.0146,4.0237,4.0254,4.0497,4.1036,4.1064,4.1291,4.1771,4.1895,4.1958,4.1958,4.2205,4.2521,4.3024,4.3806,4.4377,4.4673,4.4709,4.3761,4.1546,4.2513,4.3234,4.3269,4.3828,4.4341,4.4647,4.4399,4.4582,4.529,4.5861,4.6123,4.6143,4.6597,4.6449,4.5558,4.4665,4.4225,4.4245,4.3806,4.3639,4.4215,4.4479,4.4598,4.4598,4.4598,4.457,4.4514,4.4367,4.4497,4.444,4.3785,4.3015,4.2074,4.0831,3.9652,3.8811,3.8092,3.7673,3.7816,3.8022,3.7943,3.7584,3.7883,3.8018,3.7509,3.7404,3.7554,3.8038,3.8046,3.7604,6.2446,6.2446,6.2446,6.2541,6.2636,6.2636,6.136,5.915,5.6776,5.5641,5.5535,5.5552,5.5552,5.5535,5.5437,5.5379,5.5273,5.3806,5.3102,0.0,5.0869,4.985,4.9821,4.9256,4.9018,4.8944,4.8026,4.7306,4.6804,4.6352,4.5908,4.5433,4.5355,4.5115,4.4654,4.4598,4.4869,4.5346,4.4869,4.4198,4.3409,4.2675,4.1948,4.1221,4.0502,4.0336,4.0774,4.078,4.1064,4.166,4.1664,4.1725,4.181,4.2284,4.2577,4.2614,4.365,4.4327,4.4418,4.5169,4.5352,4.4783,4.4709,4.4509,4.42,4.4328,4.4505,4.4671,4.4829,4.5262,4.59,4.4906,4.4662,4.576,4.5525,4.5391,4.5844,4.5664,4.5389,4.5111,4.4074,4.3442,4.3545,4.3471,4.346,4.3673,4.4147,4.4564,4.4513,4.4598,4.4598,4.4598,4.4598,4.4598,4.4429,4.3873,4.3039,4.2301,4.13,4.0309,3.955,3.8694,3.8212,3.8337,3.7879,3.7499,3.7345,3.7464,3.7449,3.7285,3.724,3.736,3.7539,3.7918,3.8104,6.2823,6.2823,6.2823,6.2823,6.2725,6.1869,6.089,5.9757,5.7793,5.6729,5.6349,5.634,5.634,5.6295,5.5893,5.5706,5.5635,5.4113,5.3405,5.3254,5.1464,5.0599,5.0554,5.0269,5.0118,5.0087,4.8863,4.8146,4.783,4.69,4.6264,4.6014,4.5989,4.584,4.5597,4.5571,4.5724,4.5965,4.5381,4.4712,4.3957,4.3229,4.2466,4.1704,4.0957,4.0797,4.1358,4.1402,4.1664,4.2262,4.2282,4.2404,4.2715,4.2995,4.3142,4.3142,4.3722,4.4048,4.4066,4.48,4.548,4.592,4.5608,4.5553,4.5975,4.5186,4.4729,4.4854,4.5237,4.5731,4.6211,4.5269,4.4856,4.5485,4.5199,4.5077,4.5224,4.5461,4.5365,4.509,4.4286,4.3757,4.3948,4.3644,4.3623,4.3927,4.4096,4.3995,4.3961,4.3961,4.413,4.4496,4.4598,4.4384,4.4045,4.3631,4.2882,4.1783,4.0945,4.0175,3.9372,3.8372,3.767,3.7497,3.7129,3.6783,3.6507,3.6686,3.6716,3.6417,3.6372,3.6477,3.6866,3.7674,3.8186,6.2823,6.2823,6.2823,6.2713,6.242,6.1006,6.0309,5.9997,5.8602,5.766,5.7184,5.7159,5.7141,5.7091,5.6501,5.6223,5.6027,5.4598,5.3927,5.3723,5.2123,5.1317,5.1292,5.1207,5.1086,5.0935,4.9661,4.8933,4.8657,4.7452,4.6756,4.6641,4.6618,4.653,4.6389,4.6389,4.6478,4.6594,4.6161,4.5411,4.4356,4.3763,4.3032,4.2062,4.1458,4.138,4.1976,4.2018,4.2282,4.2845,4.2865,4.3069,4.3462,4.3479,4.3479,4.3497,4.3698,4.3864,4.4066,4.48,4.57,4.6691,4.6434,4.6361,4.6654,4.5883,4.5259,4.5315,4.5847,4.6247,4.6313,4.5689,4.5146,4.4983,4.4765,4.4502,4.4364,4.4949,4.5226,4.4729,4.4223,4.4021,4.4289,4.3874,4.3741,4.4265,4.391,4.3436,4.3403,4.3403,4.3707,4.413,4.4479,4.4265,4.3572,4.3409,4.2729,4.1304,4.0724,4.0166,3.9263,3.7905,3.7012,3.6969,3.656,3.6142,3.5684,3.5893,3.6043,3.5729,3.5654,3.5833,3.6701,3.7449,3.7985,6.2823,6.2823,6.2823,6.2383,6.1649,6.0768,5.9979,5.9281,5.8364,5.7973,5.7844,5.7867,5.7844,5.7886,5.7774,5.7708,5.7562,5.6132,5.5336,5.5085,5.3059,5.2018,5.1952,5.1419,5.1086,5.102,5.0116,4.9387,4.8917,4.8351,4.7836,4.7363,4.732,4.6999,4.6501,4.6413,4.671,4.7281,4.7237,4.6217,4.4279,4.4057,4.3332,4.1866,4.176,4.2,4.2596,4.2598,4.2883,4.3375,4.341,4.3444,4.3479,4.3479,4.3479,4.3516,4.4176,4.4911,4.5608,4.6415,4.6544,4.614,4.6636,4.6728,4.6232,4.6581,4.6874,4.6874,4.6929,4.7002,4.6964,4.6286,4.548,4.4785,4.4126,4.345,4.3192,4.3544,4.3773,4.3186,4.339,4.3546,4.4148,4.3853,4.3775,4.4496,4.3809,4.3257,4.3284,4.3172,4.324,4.3572,4.4062,4.4147,4.3538,4.3403,4.2645,4.1435,4.1107,4.0622,3.9751,3.8672,3.7661,3.7354,3.646,3.5659,3.5564,3.5579,3.5594,3.5564,3.5579,3.5848,3.6941,3.7389,3.7336,6.2823,6.2823,6.2823,6.2346,6.1465,6.0236,5.9496,5.9129,5.8364,5.7978,5.7978,5.7978,5.7978,5.7978,5.7978,5.7978,5.7868,5.6326,5.5614,5.5445,5.3624,5.2747,5.2707,5.2486,5.233,5.2208,5.0998,5.0235,4.9836,4.8841,4.8172,4.7957,4.7937,4.7797,4.7533,4.7533,4.7677,4.7917,4.7937,4.7252,4.5959,4.5093,4.4154,4.3151,4.2575,4.2598,4.3124,4.3178,4.3286,4.3462,4.3479,4.3479,4.3479,4.3479,4.3479,4.3515,4.3791,4.4342,4.5149,4.5516,4.5938,4.6544,4.6911,4.7113,4.7315,4.7645,4.7791,4.7791,4.7791,4.7626,4.7094,4.6397,4.559,4.4782,4.3975,4.341,4.3214,4.3452,4.355,4.3527,4.3622,4.3857,4.4308,4.4289,4.4276,4.4412,4.3589,4.2828,4.2743,4.2388,4.232,4.2743,4.3403,4.3504,4.2963,4.276,4.21,4.1035,4.057,4.0367,4.0036,3.8832,3.7806,3.7822,3.6538,3.5636,3.5504,3.5489,3.5489,3.5489,3.5504,3.5714,3.6193,3.6596,3.6703,6.2823,6.2762,6.256,6.1887,6.086,5.9698,5.9074,5.8841,5.8253,5.7978,5.7978,5.7978,5.7978,5.7978,5.7978,5.7886,5.7519,5.6216,5.5486,5.5133,5.3849,5.3185,5.3185,5.3185,5.3185,5.2928,5.1552,5.0525,5.005,4.8967,4.8324,4.8324,4.8324,4.8324,4.8324,4.8324,4.8324,4.8305,4.8324,4.8012,4.7331,4.6257,4.5154,4.4191,4.3555,4.3324,4.348,4.3479,4.3479,4.3479,4.3479,4.3479,4.3479,4.3479,4.3479,4.3479,4.3479,4.3846,4.4654,4.4911,4.5627,4.6911,4.7278,4.7663,4.8177,4.8324,4.8324,4.8288,4.8324,4.7902,4.6856,4.6434,4.581,4.4856,4.4287,4.405,4.3688,4.3743,4.382,4.358,4.3728,4.4202,4.4501,4.4564,4.453,4.4141,4.3132,4.2168,4.1999,4.1593,4.1508,4.2185,4.2946,4.3183,4.2692,4.2455,4.1694,4.0849,4.04,4.018,4.0045,3.887,3.7921,3.7806,3.6554,3.5782,3.5554,3.5489,3.5489,3.5489,3.5504,3.5594,3.5983,3.6252,3.6537,6.2823,6.2677,6.1961,6.075,5.9313,5.9203,5.8767,5.8125,5.8033,5.7978,5.7978,5.7978,5.7978,5.7978,5.7978,5.7593,5.684,5.5996,5.5188,5.4491,5.3607,5.3185,5.3185,5.3185,5.3185,5.3075,5.1665,5.0123,4.8673,4.8379,4.8324,4.8324,4.8324,4.8324,4.8324,4.8324,4.8324,4.8324,4.8324,4.8269,4.8122,4.7406,4.625,4.4912,4.46,4.4197,4.3589,4.3479,4.3479,4.3479,4.3479,4.3479,4.3479,4.3479,4.3479,4.3479,4.3515,4.3883,4.4709,4.5443,4.6232,4.7058,4.7791,4.8251,4.8288,4.8324,4.8324,4.8324,4.8324,4.7719,4.6471,4.6636,4.6305,4.5057,4.5369,4.5095,4.4079,4.4479,4.3989,4.3069,4.3572,4.4311,4.4557,4.4598,4.4231,4.3639,4.2794,4.2083,4.1491,4.1255,4.1457,4.2083,4.2777,4.3341,4.3267,4.2709,4.1999,4.117,4.046,4.0113,3.9833,3.9411,3.8652,3.7905,3.6964,3.6244,3.5718,3.5489,3.5489,3.5489,3.5489,3.5639,3.5878,3.6267,3.6462,6.1722,6.119,6.0401,5.9722,5.9166,5.8657,5.8272,5.7997,5.7978,5.7978,5.7978,5.7978,5.7978,5.7978,5.7978,5.7556,5.6767,5.5959,5.5152,5.4363,5.3573,5.3185,5.3185,5.3185,5.3185,5.302,5.2087,5.0729,4.9205,4.8581,4.8324,4.8324,4.8324,4.8324,4.8324,4.8324,4.8324,4.8324,4.8324,4.8324,4.8306,4.8012,4.7314,4.6269,4.5223,4.4323,4.3516,4.3479,4.3479,4.3479,4.3479,4.3479,4.3479,4.3479,4.3479,4.3534,4.3975,4.4617,4.5406,4.6214,4.7021,4.7773,4.8122,4.8324,4.8324,4.8324,4.8324,4.8324,4.8324,4.7774,4.7039,4.6947,4.6654,4.5773,4.5718,4.5773,4.5259,4.4984,4.4533,4.41,4.4254,4.4362,4.4538,4.4598,4.4265,4.3521,4.276,4.1999,4.1322,4.0832,4.0781,4.1424,4.183,4.2185,4.2675,4.2506,4.2033,4.1305,4.0663,4.0265,3.9927,3.9463,3.8761,3.8386,3.7526,3.6615,3.6023,3.5572,3.5587,3.5489,3.5489,3.5579,3.5789,3.5983,3.6058,6.075,5.9997,5.9423,5.9061,5.8767,5.8235,5.7978,5.7978,5.7978,5.7978,5.7978,5.7978,5.7978,5.7978,5.7978,5.7574,5.6767,5.5959,5.5152,5.4363,5.3573,5.3185,5.3185,5.3185,5.3185,5.3002,5.2105,5.0894,4.9647,4.8728,4.8343,4.8324,4.8324,4.8324,4.8324,4.8324,4.8324,4.8324,4.8324,4.8324,4.8324,4.8324,4.7901,4.7039,4.5792,4.4727,4.392,4.3644,4.3479,4.3479,4.3479,4.3479,4.3479,4.3479,4.3625,4.392,4.4361,4.5168,4.614,4.6801,4.7443,4.8214,4.8324,4.8324,4.8324,4.8324,4.8324,4.8324,4.8287,4.8012,4.7645,4.7498,4.7149,4.6507,4.6507,4.6544,4.6287,4.5572,4.5017,4.4617,4.4407,4.444,4.4527,4.4327,4.3842,4.3166,4.2405,4.1677,4.095,4.0502,4.0367,4.1035,4.1255,4.1677,4.2049,4.2083,4.183,4.1187,4.0578,4.0248,4.002,3.9489,3.9113,3.8728,3.8015,3.7054,3.6337,3.5831,3.5604,3.5522,3.5489,3.5549,3.5594,3.5534,3.5684,5.9924,5.9221,5.9166,5.8731,5.8143,5.8015,5.7978,5.7978,5.7978,5.7978,5.7978,5.7978,5.7978,5.7978,5.7978,5.7574,5.6895,5.6088,5.5244,5.4363,5.3573,5.3185,5.3185,5.3185,5.3185,5.3112,5.1628,5.049,4.9702,4.8875,4.8416,4.8343,4.8324,4.8324,4.8324,4.8324,4.8324,4.8324,4.8324,4.8324,4.8324,4.8324,4.7938,4.7186,4.6361,4.5571,4.4783,4.3956,4.3479,4.3479,4.3479,4.3479,4.3479,4.3479,4.3828,4.4488,4.4709,4.5498,4.6819,4.7131,4.7571,4.814,4.8324,4.8324,4.8324,4.8324,4.8324,4.8324,4.8324,4.8251,4.8251,4.8196,4.7901,4.7333,4.7627,4.7719,4.7131,4.636,4.5416,4.44,4.4194,4.4397,4.4378,4.3978,4.3267,4.2439,4.1762,4.1085,4.0468,4.0163,4.0426,4.0882,4.1035,4.117,4.1474,4.1694,4.1407,4.1052,4.051,4.0113,4.0113,3.9782,3.9584,3.9209,3.8274,3.7308,3.6006,3.5587,3.5554,3.5489,3.5489,3.5489,3.5489,3.5489,3.5489,5.9116,5.84,5.8382,5.8235,5.7997,5.7978,5.7978,5.7978,5.7978,5.7978,5.7978,5.7978,5.7978,5.7978,5.7978,5.785,5.7556,5.6767,5.5721,5.4473,5.3592,5.3203,5.3185,5.3185,5.3185,5.302,5.2142,5.1206,5.0417,4.9572,4.893,4.8416,4.8324,4.8324,4.8324,4.8324,4.8324,4.8324,4.8324,4.8324,4.8324,4.8324,4.8158,4.7902,4.7168,4.6581,4.6269,4.4525,4.3534,4.3516,4.3479,4.3479,4.3497,4.3479,4.3883,4.4635,4.5241,4.5957,4.6947,4.7608,4.7993,4.8232,4.8324,4.8324,4.8324,4.8324,4.8324,4.8324,4.8324,4.8324,4.8324,4.8324,4.8158,4.7938,4.8141,4.8177,4.7663,4.6709,4.539,4.4307,4.409,4.4031,4.3812,4.3436,4.2844,4.1813,4.1339,4.0865,4.0316,4.0113,4.013,4.0417,4.0485,4.0603,4.0823,4.0933,4.0798,4.0679,4.0367,4.0113,4.0113,4.007,3.9901,3.9358,3.8458,3.7397,3.6133,3.5489,3.5489,3.5489,3.5489,3.5489,3.5489,3.5489,3.5489,5.8474,5.7997,5.7978,5.7978,5.7978,5.7978,5.7978,5.7978,5.7978,5.7978,5.7978,5.7978,5.7978,5.7978,5.7978,5.7978,5.7905,5.7171,5.6106,5.4876,5.4014,5.3518,5.324,5.3185,5.3185,5.3038,5.238,5.1738,5.1206,5.0143,4.9317,4.8857,4.8489,4.8324,4.8324,4.8324,4.8324,4.8324,4.8324,4.8324,4.8324,4.8324,4.8324,4.8177,4.7516,4.7131,4.6966,4.5333,4.4378,4.4396,4.4378,4.4378,4.4378,4.4433,4.4745,4.5498,4.6067,4.6691,4.7461,4.8031,4.8324,4.8324,4.8324,4.8324,4.8324,4.8324,4.8324,4.8324,4.8324,4.8324,4.8324,4.8324,4.8324,4.8324,4.8306,4.8031,4.7517,4.6819,4.5465,4.4278,4.3827,4.3659,4.3218,4.2658,4.2286,4.1356,4.095,4.0696,4.0231,4.0113,4.0113,4.0113,4.0197,4.0231,4.0163,4.018,4.0163,4.0197,4.018,4.0113,4.0113,4.007,3.9952,3.9252,3.843,3.7557,3.6337,3.5718,3.5489,3.5489,3.5489,3.5489,3.5489,3.5489,3.5489,5.7997,5.7978,5.7978,5.7978,5.7978,5.7978,5.7978,5.7978,5.7978,5.7978,5.7978,5.7978,5.7978,5.7978,5.7978,5.7978,5.785,5.7317,5.6436,5.5537,5.4766,5.4069,5.3316,5.3185,5.3185,5.3057,5.2472,5.2068,5.1793,5.062,4.9665,4.9445,4.882,4.8343,4.8343,4.8324,4.8324,4.8324,4.8324,4.8324,4.8324,4.8324,4.8324,4.825,4.7626,4.7259,4.7131,4.6471,4.5957,4.5883,4.5681,4.5645,4.581,4.5883,4.6085,4.6782,4.7058,4.7443,4.8067,4.8269,4.8324,4.8324,4.8324,4.8324,4.8324,4.8324,4.8324,4.8324,4.8324,4.8324,4.8324,4.8324,4.8324,4.8324,4.8324,4.77,4.6361,4.6636,4.5685,4.395,4.3629,4.3623,4.2483,4.1816,4.1373,4.1001,4.0544,4.0265,4.0146,4.0113,4.0113,4.0113,4.0113,4.0113,4.0113,4.0113,4.0113,4.0113,4.0113,4.0113,4.0113,4.007,3.9833,3.9129,3.8458,3.7571,3.6737,3.6006,3.5587,3.5489,3.5489,3.5489,3.5489,3.5489,3.5489,5.7978,5.7978,5.7978,5.7978,5.7978,5.7978,5.7978,5.7978,5.7978,5.7978,5.7978,5.7978,5.7978,5.7978,5.7978,5.7978,5.7905,5.7758,5.6859,5.5721,5.5409,5.4473,5.3445,5.3185,5.3185,5.313,5.2931,5.2601,5.2013,5.1481,5.0712,4.961,4.9372,4.8875,4.8416,4.8324,4.8324,4.8324,4.8324,4.8324,4.8324,4.8324,4.8324,4.8288,4.8086,4.7957,4.7975,4.781,4.704,4.5975,4.5902,4.5902,4.5993,4.6012,4.6397,4.7003,4.7168,4.7461,4.8122,4.8324,4.8324,4.8324,4.8324,4.8324,4.8324,4.8324,4.8324,4.8324,4.8324,4.8324,4.8324,4.8324,4.8324,4.8324,4.8324,4.7902,4.6966,4.6397,4.5696,4.4646,4.3789,4.3031,4.2306,4.1605,4.1002,4.0553,4.0282,4.0113,4.0113,4.0113,4.0113,4.0113,4.0113,4.0113,4.0113,4.0113,4.0113,4.0113,4.0113,4.0113,4.0113,4.0096,3.9662,3.9086,3.8569,3.7761,3.6874,3.6038,3.5814,3.5587,3.5489,3.5489,3.5489,3.5489,3.5489,5.7978,5.7978,5.7978,5.7978,5.7978,5.7978,5.7978,5.7978,5.7978,5.7978,5.7978,5.7978,5.7978,5.7978,5.7978,5.7978,5.7978,5.7978,5.7097,5.5647,5.484,5.4032,5.3353,5.3185,5.3185,5.3185,5.3185,5.2949,5.2509,5.2179,5.1279,5.027,4.9757,4.915,4.8361,4.8324,4.8324,4.8324,4.8324,4.8324,4.8324,4.8324,4.8324,4.8324,4.8324,4.8324,4.8306,4.8306,4.7829,4.7113,4.6929,4.6911,4.6911,4.6929,4.7131,4.759,4.759,4.7828,4.8177,4.8324,4.8324,4.8324,4.8324,4.8324,4.8324,4.8324,4.8324,4.8324,4.8324,4.8324,4.8324,4.8324,4.8324,4.8324,4.8324,4.7957,4.7186,4.6709,4.6007,4.5106,4.405,4.3001,4.2247,4.1535,4.0855,4.0324,4.0163,4.0113,4.0113,4.0113,4.0113,4.0113,4.0113,4.0113,4.0113,4.0113,4.0113,4.0113,4.0113,4.0113,4.0113,4.0113,3.9859,3.9342,3.8707,3.8007,3.716,3.6415,3.5975,3.5782,3.5604,3.5489,3.5489,3.5489,3.5489,5.7978,5.7978,5.7978,5.7978,5.7978,5.7978,5.7978,5.7978,5.7978,5.7978,5.7978,5.7978,5.7978,5.7978,5.7978,5.7978,5.7978,5.7978,5.6969,5.5556,5.4271,5.3259,5.324,5.3185,5.3185,5.3185,5.3185,5.3167,5.2949,5.2435,5.1738,5.093,5.018,4.9315,4.8691,4.8416,4.8324,4.8324,4.8324,4.8324,4.8324,4.8324,4.8324,4.8324,4.8324,4.8324,4.8324,4.8324,4.8233,4.8288,4.8324,4.8159,4.8196,4.8251,4.8251,4.8214,4.8177,4.8252,4.8326,4.8364,4.8363,4.8383,4.8345,4.8324,4.8324,4.8324,4.8324,4.8324,4.8324,4.8324,4.8324,4.8324,4.8324,4.8324,4.8324,4.7957,4.7424,4.7149,4.6632,4.5437,4.4578,4.3451,4.257,4.159,4.0779,4.0604,4.0333,4.0113,4.0113,4.0113,4.0113,4.0113,4.0113,4.0113,4.0113,4.0113,4.0113,4.0113,4.0113,4.0113,4.0113,4.0113,4.0113,3.9705,3.8832,3.8206,3.769,3.7025,3.6274,3.5814,3.5554,3.5489,3.5489,3.5489,3.5489,5.7978,5.7978,5.7978,5.7978,5.7978,5.7978,5.7978,5.7978,5.7978,5.7978,5.7978,5.7978,5.7978,5.7978,5.7978,5.7978,5.796,5.785,5.7116,5.5537,5.3959,5.3259,5.3185,5.3185,5.3185,5.3185,5.3185,5.3185,5.3075,5.2949,5.2509,5.1683,5.0912,5.0105,4.9335,4.8673,4.8324,4.8324,4.8324,4.8324,4.8324,4.8324,4.8324,4.8324,4.8324,4.8324,4.8324,4.8324,4.8324,4.8324,4.8324,4.8324,4.8324,4.8324,4.8325,4.8363,4.8344,4.8458,4.8658,4.8513,4.8439,4.8658,4.8439,4.8324,4.8324,4.8324,4.8324,4.8324,4.8324,4.8324,4.8324,4.8324,4.8324,4.8324,4.8306,4.8233,4.7976,4.7498,4.6982,4.6443,4.5191,4.3953,4.3643,4.2105,4.1374,4.0976,4.0561,4.0197,4.0113,4.0113,4.0113,4.0113,4.0113,4.0113,4.0113,4.0113,4.0113,4.0113,4.0113,4.0113,4.0113,4.0113,4.0113,3.9584,3.8789,3.829,3.795,3.6905,3.6038,3.575,3.5489,3.5489,3.5489,3.5489,3.5639,5.7978,5.7978,5.7978,5.7978,5.7978,5.7978,5.7978,5.7978,5.7978,5.7978,5.7978,5.7978,5.7978,5.7978,5.7978,5.7978,5.7758,5.7152,5.644,5.5317,5.4014,5.3222,5.3185,5.3185,5.3185,5.3185,5.3185,5.3185,5.3185,5.313,5.2766,5.205,5.1555,5.0674,4.9757,4.9095,4.871,4.8379,4.8324,4.8324,4.8324,4.8324,4.8324,4.8324,4.8324,4.8324,4.8324,4.8324,4.8324,4.8324,4.8324,4.8324,4.8324,4.8324,4.8364,4.855,4.8586,4.8657,4.8779,4.8728,4.8586,4.8604,4.8402,4.8363,4.8324,4.8324,4.8324,4.8324,4.8324,4.8324,4.8324,4.8324,4.8324,4.8324,4.8324,4.8324,4.8213,4.7901,4.7663,4.7346,4.6189,4.5207,4.423,4.2936,4.1844,4.1375,4.1068,4.0663,4.0113,4.0113,4.0113,4.0113,4.0113,4.0113,4.0113,4.0113,4.0113,4.0113,4.0113,4.0113,4.0113,4.0113,4.0113,3.9558,3.9102,3.8541,3.8064,3.6935,3.607,3.5701,3.5537,3.5489,3.5609,3.5804,3.5983,5.7978,5.7978,5.7978,5.7978,5.7978,5.7978,5.7978,5.7978,5.7978,5.7978,5.7978,5.7978,5.7978,5.7978,5.7978,5.7978,5.7611,5.6657,5.5941,5.5409,5.4197,5.346,5.3277,5.3185,5.3185,5.3185,5.3185,5.3185,5.3185,5.3148,5.2913,5.227,5.2013,5.1206,5.0106,4.9592,4.9114,4.8434,4.8324,4.8324,4.8324,4.8324,4.8324,4.8324,4.8324,4.8324,4.8324,4.8324,4.8324,4.8324,4.8324,4.8324,4.8324,4.8325,4.8421,4.8779,4.8796,4.8863,4.888,4.8846,4.8727,4.8383,4.8325,4.8306,4.8324,4.8324,4.8324,4.8324,4.8324,4.8324,4.8324,4.8324,4.8324,4.8324,4.8324,4.8324,4.8324,4.8324,4.8233,4.8026,4.6894,4.5829,4.5029,4.3972,4.2833,4.1834,4.1527,4.1136,4.0578,4.0248,4.0333,4.013,4.0113,4.0409,4.0476,4.0561,4.051,4.0688,4.057,4.057,4.0519,4.0502,4.051,4.0088,3.9601,3.9001,3.8294,3.7352,3.6554,3.591,3.5567,3.5579,3.5818,3.6133,3.6372,5.7978,5.7978,5.7978,5.7978,5.7978,5.7978,5.7978,5.7978,5.7978,5.7978,5.7978,5.7978,5.7978,5.7978,5.7978,5.7978,5.774,5.6895,5.6161,5.5556,5.4528,5.3867,5.3259,5.3185,5.3185,5.3185,5.3185,5.3185,5.3185,5.3167,5.3078,5.2858,5.238,5.1499,5.0692,4.9959,4.9279,4.8581,4.8379,4.8306,4.8382,4.8364,4.8325,4.8325,4.8324,4.8324,4.8324,4.8324,4.8324,4.8324,4.8324,4.8324,4.8324,4.8324,4.8364,4.8532,4.8761,4.8897,4.8897,4.8897,4.8863,4.8727,4.8477,4.8306,4.8324,4.8324,4.8324,4.8324,4.8324,4.8324,4.8324,4.8324,4.8324,4.8324,4.8324,4.8324,4.8324,4.8324,4.8324,4.8212,4.7226,4.6287,4.5558,4.4774,4.3623,4.2743,4.2296,4.1813,4.1187,4.0899,4.0832,4.0519,4.0113,4.0527,4.095,4.1102,4.1204,4.1593,4.1627,4.161,4.1508,4.1238,4.0992,4.0696,4.0083,3.9361,3.8593,3.7953,3.7306,3.6845,3.6307,3.5794,3.6207,3.6686,3.6926,5.7978,5.7978,5.7978,5.7978,5.7978,5.7978,5.7978,5.7978,5.7978,5.7978,5.7978,5.7978,5.7978,5.7978,5.7978,5.7978,5.7776,5.7171,5.6381,5.5574,5.4766,5.3977,5.3259,5.3185,5.3185,5.3185,5.3185,5.3185,5.3185,5.3185,5.3185,5.3115,5.2766,5.2234,5.1426,5.0637,4.9793,4.9095,4.8582,4.842,4.8568,4.8604,4.8513,4.8326,4.8324,4.8324,4.8324,4.8324,4.8324,4.8324,4.8324,4.8324,4.8324,4.8325,4.8383,4.8568,4.8779,4.8897,4.8897,4.888,4.8795,4.8586,4.842,4.8325,4.8324,4.8324,4.8343,4.8324,4.8324,4.8324,4.8324,4.8324,4.8324,4.8324,4.8324,4.8324,4.8324,4.8324,4.8324,4.8267,4.7563,4.6807,4.623,4.5346,4.4308,4.3644,4.3125,4.2523,4.1863,4.1677,4.1542,4.1271,4.0976,4.1221,4.1627,4.1745,4.1982,4.2371,4.2574,4.2574,4.2371,4.2016,4.1779,4.1559,4.0785,4.013,3.9995,3.9731,3.8776,3.7842,3.754,3.724,3.7113,3.7225,3.7479,5.7978,5.7978,5.7978,5.7978,5.7978,5.7978,5.7978,5.7978,5.7978,5.7978,5.7978,5.7978,5.7978,5.7978,5.7978,5.7978,5.7923,5.7299,5.6583,5.5611,5.5005,5.4216,5.3405,5.3185,5.3185,5.3185,5.3185,5.3185,5.3185,5.3185,5.3185,5.3167,5.3188,5.2803,5.194,5.1316,5.0545,4.9667,4.9084,4.8844,4.885,4.8813,4.8658,4.8326,4.8324,4.8324,4.8324,4.8324,4.8324,4.8324,4.8324,4.8324,4.8324,4.8324,4.8458,4.8728,4.8829,4.8863,4.8796,4.888,4.8837,4.877,4.8638,4.8673,4.882,4.8875,4.8545,4.8379,4.8324,4.8324,4.8324,4.8324,4.8324,4.8324,4.8324,4.8324,4.8324,4.8324,4.8324,4.8132,4.7777,4.7237,4.6553,4.5805,4.4757,4.4255,4.3741,4.3301,4.2709,4.2557,4.2405,4.2202,4.2066,4.2168,4.2388,4.2489,4.2777,4.3183,4.3328,4.3345,4.3047,4.2709,4.2574,4.2523,4.2158,4.1644,4.1599,4.116,3.9984,3.915,3.8905,3.846,3.7941,3.7873,3.8093,5.7978,5.7978,5.7978,5.7978,5.7978,5.7978,5.7978,5.7978,5.7978,5.7978,5.7978,5.7978,5.7978,5.7978,5.7978,5.7978,5.7941,5.7776,5.7005,5.5849,5.5409,5.4583,5.3405,5.3203,5.3185,5.3185,5.3185,5.3185,5.3185,5.3185,5.3185,5.3185,5.313,5.2839,5.2215,5.183,5.1077,4.9946,4.9806,4.9554,4.9015,4.8641,4.8439,4.8382,4.8379,4.8399,4.8418,4.8437,4.8416,4.8324,4.8343,4.8324,4.8324,4.8324,4.8306,4.8477,4.864,4.8744,4.855,4.8657,4.9044,4.9155,4.9335,4.9793,4.9921,4.9682,4.915,4.8343,4.8416,4.8453,4.8508,4.8379,4.8343,4.8324,4.8324,4.8324,4.8324,4.8324,4.8324,4.8305,4.8035,4.7385,4.6687,4.5965,4.5259,4.4821,4.435,4.3893,4.3572,4.3386,4.3217,4.3014,4.2946,4.3064,4.3183,4.3267,4.3436,4.3904,4.3938,4.3972,4.3768,4.3521,4.3707,4.3589,4.3217,4.2878,4.2589,4.1948,4.0942,4.0309,3.9898,3.9192,3.8406,3.8522,3.8676,5.7978,5.7978,5.7978,5.7978,5.7978,5.7978,5.7978,5.7978,5.7978,5.7978,5.7978,5.7978,5.7978,5.7978,5.7978,5.7978,5.7978,5.7978,5.7391,5.629,5.5739,5.4987,5.4032,5.3424,5.3185,5.3185,5.3185,5.3185,5.3185,5.3206,5.3185,5.3185,5.3206,5.3115,5.2608,5.2218,5.185,5.125,5.0788,5.0193,4.9601,4.9041,4.864,4.8677,4.8937,4.8919,4.8808,4.8935,4.8729,4.8581,4.8691,4.8765,4.8728,4.9077,4.9591,4.9097,4.9674,4.9453,4.8548,4.855,4.9048,4.945,4.9684,4.9884,5.049,5.0508,5.0178,4.9811,4.9738,4.9499,4.9114,4.904,4.8691,4.8545,4.8581,4.8434,4.8434,4.8324,4.8324,4.8324,4.8229,4.7593,4.6977,4.6336,4.5597,4.4899,4.4586,4.4299,4.4147,4.4158,4.4005,4.3853,4.3836,4.3887,4.4005,4.4079,4.4012,4.431,4.431,4.4344,4.4395,4.4378,4.435,4.435,4.4062,4.3758,4.3494,4.3121,4.2531,4.1701,4.0865,4.0047,3.9263,3.8951,3.9125,5.7978,5.7978,5.7978,5.7978,5.7978,5.7978,5.7978,5.7978,5.7978,5.7978,5.7978,5.7978,5.7978,5.7978,5.7978,5.7978,5.7978,5.7978,5.7501,5.6767,5.5978,5.517,5.4308,5.3647,5.3185,5.3185,5.3185,5.3185,5.323,5.3295,5.3339,5.3227,5.3359,5.3361,5.3193,5.2888,5.2567,5.2682,5.1657,5.1011,5.0616,5.0102,4.9743,4.9736,4.9875,5.0024,4.9784,4.9999,4.9824,4.9528,4.975,4.9786,4.9447,4.9976,5.0325,5.0031,5.0386,5.0201,4.9462,4.9244,4.9426,4.9941,5.04,5.0949,5.1004,5.1114,5.0912,5.0655,5.0618,5.0343,5.0068,4.9904,4.9682,4.937,4.915,4.8875,4.871,4.8783,4.86,4.8324,4.8209,4.7937,4.7324,4.6733,4.5965,4.5106,4.4748,4.4626,4.4581,4.4564,4.4462,4.4259,4.4276,4.4293,4.4395,4.453,4.4581,4.4598,4.4598,4.4581,4.4564,4.4564,4.453,4.4564,4.4598,4.4445,4.4028,4.4131,4.4105,4.2661,4.1422,4.0843,4.0247,3.9737,3.9388,5.7978,5.7978,5.7978,5.7978,5.7978,5.7978,5.7978,5.7978,5.7978,5.7978,5.7978,5.7978,5.7978,5.7978,5.7978,5.7978,5.7978,5.7978,5.7556,5.684,5.5959,5.5225,5.4473,5.3794,5.3185,5.3185,5.3185,5.3185,5.3316,5.3643,5.3504,5.3295,5.3603,5.3739,5.3758,5.3609,5.3603,5.352,5.2589,5.2042,5.1862,5.1612,5.1393,5.1258,5.1534,5.179,5.1764,5.1651,5.1333,5.0839,5.1044,5.0823,5.0404,5.0875,5.1022,5.0875,5.1004,5.0949,5.0674,5.0435,5.093,5.1701,5.2197,5.2234,5.1958,5.1922,5.161,5.1169,5.1298,5.1022,5.082,5.0692,5.0582,5.0251,4.9939,4.9793,4.9627,4.9517,4.926,4.8581,4.8245,4.8158,4.7431,4.6801,4.6167,4.5337,4.4748,4.4598,4.4598,4.4581,4.4581,4.4513,4.4513,4.453,4.4547,4.4598,4.4598,4.4598,4.4598,4.4598,4.4581,4.4598,4.4615,4.4598,4.4598,4.4598,4.4598,4.4468,4.4018,4.2909,4.1933,4.1229,4.0359,3.961,3.9388,5.7978,5.7978,5.7978,5.7978,5.7978,5.7978,5.7978,5.7978,5.7978,5.7978,5.7978,5.7978,5.7978,5.7978,5.7978,5.7978,5.7978,5.7978,5.774,5.7189,5.6308,5.55,5.4748,5.3977,5.3185,5.3185,5.3185,5.3185,5.3251,5.3851,5.3682,5.3603,5.3924,5.3924,5.4013,5.4319,5.4543,5.4348,5.3718,5.318,5.3005,5.2347,5.2027,5.2196,5.2211,5.2352,5.2329,5.2344,5.1986,5.1776,5.2003,5.1677,5.1352,5.1823,5.193,5.1726,5.1928,5.2107,5.1922,5.1481,5.1187,5.194,5.2656,5.3059,5.2656,5.2711,5.2637,5.238,5.2158,5.1977,5.1573,5.1518,5.1389,5.1004,5.0802,5.071,5.0527,5.038,4.9976,4.9334,4.8943,4.8694,4.7795,4.6801,4.6209,4.5563,4.5025,4.4598,4.4615,4.4716,4.4784,4.4886,4.4936,4.4801,4.4784,4.4716,4.4632,4.4649,4.4682,4.4818,4.4886,4.4632,4.4632,4.4615,4.4733,4.4852,4.4852,4.4666,4.4114,4.3272,4.2333,4.1412,4.0516,3.9745,3.9612,5.7978,5.7978,5.7978,5.7978,5.7978,5.7978,5.7978,5.7978,5.7978,5.7978,5.7978,5.7978,5.7978,5.7978,5.7978,5.7978,5.7978,5.7978,5.7978,5.7464,5.6712,5.5904,5.5207,5.4399,5.3537,5.3295,5.3206,5.3227,5.3444,5.4154,5.396,5.3869,5.427,5.4465,5.4319,5.4819,5.5282,5.5103,5.4816,5.4339,5.4129,5.3663,5.3185,5.3486,5.3594,5.3694,5.3728,5.3745,5.3407,5.312,5.3013,5.2833,5.2698,5.2731,5.3042,5.2999,5.2974,5.3318,5.2899,5.2417,5.1775,5.2472,5.2839,5.3148,5.3185,5.3185,5.3002,5.3057,5.3075,5.2968,5.2325,5.2325,5.227,5.1977,5.1922,5.1793,5.1371,5.1114,5.0637,5.0105,4.9785,4.9498,4.8537,4.7512,4.6236,4.5595,4.4934,4.4632,4.4666,4.4835,4.5094,4.5229,4.5382,4.5224,4.5038,4.5094,4.5162,4.5128,4.5179,4.5314,4.5314,4.5094,4.5224,4.5579,4.5613,4.5314,4.5393,4.5596,4.4859,4.3856,4.2927,4.1987,4.1922,4.1281,4.0461,5.7978,5.7978,5.7978,5.7978,5.7978,5.7978,5.7978,5.7978,5.7978,5.7978,5.7978,5.7978,5.7978,5.7978,5.7978,5.7978,5.7978,5.7978,5.7978,5.7703,5.7024,5.6308,5.55,5.4656,5.3794,5.3314,5.3227,5.338,5.3739,5.4238,5.4118,5.4236,5.4741,5.516,5.4609,5.5262,5.5651,5.5654,5.5555,5.5281,5.5077,5.5028,5.4915,5.4842,5.4861,5.4891,5.4994,5.4903,5.461,5.4458,5.4444,5.4277,5.4039,5.3979,5.3974,5.3665,5.3627,5.3545,5.3196,5.3115,5.3023,5.2968,5.313,5.3167,5.3185,5.3185,5.3185,5.3185,5.3185,5.3185,5.3093,5.3096,5.2949,5.2858,5.2747,5.2619,5.2179,5.1958,5.1518,5.0906,5.07,5.0404,4.9426,4.8317,4.6652,4.564,4.4896,4.4716,4.4953,4.5224,4.5618,4.5754,4.5923,4.5872,4.5737,4.5703,4.572,4.5686,4.572,4.5872,4.6075,4.6126,4.6295,4.6566,4.638,4.6024,4.6346,4.6747,4.5975,4.5161,4.3648,4.2817,4.2938,4.2539,4.1395,5.7978,5.7978,5.7978,5.7978,5.7978,5.7978,5.7978,5.7978,5.7978,5.7978,5.7978,5.7978,5.7978,5.7978,5.7978,5.7978,5.7978,5.7978,5.7978,5.7886,5.7226,5.6363,5.5574,5.4821,5.4014,5.3387,5.3209,5.3402,5.3796,5.4272,5.442,5.4547,5.4947,5.525,5.5331,5.564,5.5684,5.5684,5.5654,5.561,5.5543,5.5629,5.564,5.5477,5.5411,5.5477,5.5682,5.5543,5.5319,5.5192,5.516,5.4966,5.4579,5.4404,5.4048,5.3758,5.3644,5.3359,5.3227,5.3167,5.3167,5.3185,5.3185,5.3185,5.3185,5.3185,5.3185,5.3185,5.3185,5.3185,5.3167,5.3148,5.3075,5.3093,5.302,5.3041,5.2821,5.2784,5.2506,5.1718,5.1286,5.0122,4.9061,4.8609,4.7244,4.6697,4.6184,4.5918,4.6007,4.6143,4.6413,4.643,4.6515,4.6532,4.6498,4.6464,4.643,4.643,4.643,4.6464,4.6701,4.7039,4.6972,4.7022,4.6887,4.6786,4.709,4.7327,4.7305,4.6545,4.5094,4.3791,4.3396,4.2716,4.1535,5.7978,5.7978,5.7978,5.7978,5.7978,5.7978,5.7978,5.7978,5.7978,5.7978,5.7978,5.7978,5.7978,5.7978,5.7978,5.7978,5.7978,5.7978,5.7978,5.7923,5.7519,5.662,5.5721,5.4987,5.4234,5.3537,5.3272,5.3462,5.4085,5.4373,5.4655,5.4938,5.5053,5.5319,5.5543,5.5673,5.5684,5.5684,5.5684,5.5684,5.5662,5.5684,5.5684,5.5618,5.5543,5.5466,5.5566,5.5489,5.5306,5.5294,5.5256,5.5173,5.4848,5.4528,5.4202,5.3977,5.3524,5.3293,5.3185,5.3185,5.3185,5.3185,5.3185,5.3185,5.3185,5.3185,5.3185,5.3185,5.3185,5.3185,5.3185,5.3185,5.3185,5.3185,5.3185,5.3167,5.3148,5.3115,5.3038,5.2285,5.177,5.036,4.9038,4.846,4.7819,4.7691,4.7547,4.7293,4.7022,4.709,4.7175,4.7208,4.731,4.7428,4.7361,4.7208,4.7192,4.7192,4.7192,4.7192,4.7614,4.7986,4.7733,4.7564,4.7716,4.7817,4.78,4.7872,4.7977,4.7639,4.6699,4.5427,4.4204,4.31,4.2115,5.7978,5.7978,5.7978,5.7978,5.7978,5.7978,5.7978,5.7978,5.7978,5.7978,5.7978,5.7978,5.7978,5.7978,5.7978,5.7978,5.7978,5.7978,5.7978,5.7905,5.7648,5.673,5.5941,5.5299,5.4344,5.3592,5.3336,5.372,5.4423,5.4716,5.5075,5.5387,5.5306,5.5466,5.561,5.5684,5.5684,5.5684,5.5684,5.5684,5.5684,5.5684,5.5684,5.5662,5.564,5.5629,5.5673,5.561,5.561,5.564,5.5651,5.5651,5.5524,5.5262,5.4876,5.4305,5.3562,5.3334,5.3185,5.3185,5.3185,5.3185,5.3185,5.3185,5.3185,5.3185,5.3185,5.3185,5.3185,5.3185,5.3185,5.3185,5.3185,5.3185,5.3185,5.3185,5.3185,5.3167,5.3167,5.2877,5.2649,5.1628,5.0303,4.947,4.8359,4.8409,4.8257,4.802,4.7817,4.7851,4.7919,4.8003,4.8139,4.8392,4.8274,4.797,4.7953,4.7936,4.797,4.8037,4.8511,4.8714,4.846,4.8392,4.8748,4.8815,4.8494,4.8545,4.8781,4.8262,4.7502,4.6881,4.5608,4.418,4.3249,5.7978,5.7978,5.7978,5.7978,5.7978,5.7978,5.7978,5.7978,5.7978,5.7978,5.7978,5.7978,5.7978,5.7978,5.7978,5.7978,5.7978,5.7978,5.7978,5.7831,5.7446,5.6528,5.5739,5.5005,5.4142,5.3645,5.3524,5.3869,5.4516,5.4919,5.5331,5.5618,5.5535,5.5599,5.5651,5.5684,5.5684,5.5684,5.5684,5.5684,5.5684,5.5684,5.5684,5.5684,5.5684,5.5684,5.5684,5.5684,5.5684,5.5684,5.5684,5.5684,5.5662,5.5048,5.4423,5.3662,5.3293,5.3185,5.3185,5.3185,5.3185,5.3185,5.3185,5.3185,5.3185,5.3185,5.3185,5.3185,5.3185,5.3185,5.3185,5.3185,5.3185,5.3185,5.3185,5.3185,5.3185,5.3185,5.3164,5.2872,5.2658,5.1703,5.0544,4.9688,4.8731,4.8917,4.89,4.8629,4.8477,4.846,4.8477,4.8545,4.8612,4.8748,4.8832,4.8595,4.8663,4.8697,4.8629,4.8578,4.8748,4.89,4.8984,4.9018,4.9018,4.9018,4.8951,4.9018,4.9018,4.8736,4.8075,4.7671,4.7019,4.5599,4.4534,5.7978,5.7978,5.7978,5.7978,5.7978,5.7978,5.7978,5.7978,5.7978,5.7978,5.7978,5.7978,5.7978,5.7978,5.7978,5.7978,5.7978,5.796,5.7831,5.7299,5.7005,5.6088,5.528,5.4601,5.3995,5.3615,5.3624,5.4014,5.4606,5.5237,5.5684,5.5703,5.5684,5.5684,5.5684,5.5684,5.5684,5.5684,5.5684,5.5684,5.5684,5.5684,5.5684,5.5684,5.5684,5.5684,5.5684,5.5684,5.5684,5.5684,5.5684,5.5599,5.538,5.4667,5.3996,5.3359,5.3227,5.3185,5.3185,5.3185,5.3185,5.3185,5.3185,5.3185,5.3185,5.3185,5.3185,5.3185,5.3185,5.3185,5.3185,5.3185,5.3185,5.3185,5.3185,5.3185,5.3185,5.3185,5.2937,5.2617,5.194,5.1008,5.0146,4.9449,4.9018,4.9018,4.9018,4.8917,4.8798,4.8798,4.8798,4.8832,4.8883,4.8951,4.9018,4.9018,4.8951,4.89,4.8883,4.8883,4.9018,4.9018,4.9018,4.9018,4.9018,4.9035,4.9086,4.9018,4.897,4.882,4.886,4.8671,4.8117,4.7103,4.626,5.7978,5.7978,5.7978,5.7978,5.7978,5.7978,5.7978,5.7978,5.7978,5.7978,5.7978,5.7978,5.7978,5.7978,5.7978,5.7978,5.7978,5.7978,5.7593,5.6781,5.6602,5.5831,5.4876,5.4271,5.3787,5.3566,5.3739,5.4286,5.4727,5.5306,5.5684,5.5684,5.5684,5.5684,5.5684,5.5684,5.5684,5.5684,5.5684,5.5684,5.5684,5.5684,5.5684,5.5684,5.5684,5.5684,5.5684,5.5684,5.5684,5.5684,5.5651,5.5512,5.4933,5.4333,5.3702,5.3359,5.3206,5.3185,5.3185,5.3185,5.3185,5.3185,5.3185,5.3185,5.3185,5.3185,5.3185,5.3185,5.3185,5.3185,5.3185,5.3185,5.3185,5.3185,5.3185,5.3185,5.3185,5.3124,5.2893,5.2463,5.171,5.0823,5.0118,4.9449,4.9001,4.9018,4.9018,4.9018,4.9018,4.9018,4.9018,4.9018,4.9018,4.9018,4.9018,4.9018,4.9018,4.9001,4.9018,4.9018,4.9018,4.9018,4.9018,4.9018,4.9018,4.9137,4.9171,4.9255,4.9424,4.9565,4.9634,4.9664,4.9141,4.8487,4.805,5.7978,5.7978,5.7978,5.7978,5.7978,5.7978,5.7978,5.7978,5.7978,5.7978,5.7978,5.7978,5.7978,5.7978,5.7978,5.796,5.7923,5.7905,5.7501,5.6712,5.6198,5.5427,5.4399,5.3812,5.3599,5.3832,5.4134,5.4652,5.5224,5.5577,5.5684,5.5684,5.5684,5.5684,5.5684,5.5684,5.5684,5.5684,5.5684,5.5684,5.5684,5.5684,5.5684,5.5684,5.5684,5.5684,5.5684,5.5684,5.5684,5.5684,5.5684,5.5319,5.4671,5.4082,5.3624,5.3295,5.3185,5.3185,5.3185,5.3185,5.3185,5.3185,5.3185,5.3185,5.3185,5.3185,5.3185,5.3185,5.3185,5.3185,5.3185,5.3185,5.3185,5.3185,5.3185,5.3185,5.3185,5.302,5.2831,5.2154,5.1469,5.0796,5.0061,4.9534,4.9168,4.9018,4.9018,4.9018,4.9018,4.9018,4.9018,4.9018,4.9018,4.9018,4.9018,4.9018,4.9018,4.9018,4.9018,4.9018,4.9052,4.9306,4.9509,4.9137,4.9035,4.9424,4.9746,4.983,5.0016,5.0202,5.0388,5.0439,5.0828,5.046,4.9988,5.7978,5.7978,5.7978,5.7978,5.7978,5.7978,5.7978,5.7978,5.7978,5.7978,5.7978,5.7978,5.7978,5.7978,5.7978,5.7703,5.7666,5.7868,5.6822,5.5941,5.5629,5.4876,5.4106,5.3448,5.3593,5.3833,5.4497,5.5075,5.561,5.5684,5.5684,5.5684,5.5684,5.5684,5.5684,5.5684,5.5684,5.5684,5.5684,5.5684,5.5684,5.5684,5.5684,5.5684,5.5703,5.5684,5.5684,5.5673,5.5577,5.53,5.5029,5.4693,5.417,5.3758,5.3444,5.3254,5.3185,5.3185,5.3185,5.3185,5.3185,5.3185,5.3185,5.3185,5.3185,5.3185,5.3185,5.3185,5.3185,5.3185,5.3185,5.3185,5.3185,5.3185,5.3185,5.3185,5.3185,5.3124,5.2509,5.1636,5.1034,5.0554,4.9879,4.9316,4.9018,4.9018,4.9018,4.9137,4.912,4.9306,4.9221,4.9187,4.9289,4.912,4.9018,4.9018,4.9018,4.9018,4.912,4.9306,4.9526,4.9864,5.0016,4.9881,4.9915,5.0219,5.049,5.0557,5.0642,5.0762,5.1014,5.12,5.1674,5.208,5.1648,5.7978,5.7978,5.7978,5.7978,5.7978,5.7978,5.7978,5.7978,5.7978,5.7978,5.7978,5.7978,5.7978,5.7978,5.7941,5.7409,5.7171,5.7446,5.6326,5.5262,5.5188,5.4436,5.3818,5.3332,5.3682,5.4183,5.4829,5.5262,5.5673,5.5684,5.5684,5.5684,5.5684,5.5684,5.5684,5.5684,5.5684,5.5684,5.5684,5.5684,5.5684,5.5684,5.5684,5.5703,5.5651,5.564,5.561,5.5501,5.5338,5.4947,5.4433,5.4117,5.3833,5.3525,5.3339,5.3185,5.3185,5.3185,5.3185,5.3185,5.3185,5.3185,5.3185,5.3185,5.3185,5.3185,5.3185,5.3222,5.3222,5.3185,5.3185,5.3185,5.3185,5.324,5.324,5.3259,5.3259,5.3292,5.2488,5.1538,5.107,5.0652,4.975,4.9175,4.9238,4.9204,4.9238,4.9272,4.9424,4.9796,4.9965,4.9898,4.9915,4.9661,4.9171,4.9272,4.9373,4.9492,4.9678,4.9813,5.0033,5.0388,5.071,5.0913,5.0982,5.1048,5.12,5.1336,5.1403,5.1506,5.1894,5.2198,5.2334,5.2689,5.2875,5.7978,5.7978,5.7978,5.7978,5.7978,5.7978,5.7978,5.7978,5.7978,5.7978,5.7978,5.7978,5.7978,5.7978,5.7978,5.7556,5.695,5.7152,5.6069,5.4748,5.5005,5.4216,5.361,5.3657,5.417,5.4764,5.5301,5.5546,5.5684,5.5684,5.5684,5.5684,5.5684,5.5684,5.5684,5.5684,5.5684,5.5684,5.5684,5.5684,5.5684,5.5684,5.5684,5.5588,5.5387,5.5294,5.5147,5.4895,5.475,5.4468,5.4118,5.3833,5.3624,5.3422,5.3251,5.3185,5.3185,5.3185,5.3185,5.3185,5.3185,5.3185,5.3185,5.3185,5.3185,5.3185,5.3222,5.3314,5.3295,5.3203,5.3185,5.3185,5.3203,5.3332,5.3405,5.3482,5.3518,5.3624,5.339,5.2695,5.2139,5.1059,4.9657,4.9644,5.0253,5.027,5.0338,5.0371,5.0388,5.0526,5.0644,5.0591,5.0541,4.9898,4.9323,4.9813,4.9999,5.0101,5.0321,5.0642,5.0879,5.0931,5.1219,5.1657,5.1623,5.1539,5.1742,5.2114,5.2384,5.2587,5.2959,5.323,5.323,5.3179,5.323]}]]